Wetterdaten: aktuell Mittwoch, 18.09.2019 20:03
Datum Zeit Temp. I. Temp. 2m Temp. 5cm LF I. Luftf.2m Luftdruck Regen Wind Richtung Richtung Taupunkt Windchill Windben
18.09.2019 20:03 20,0 C 9,0 C 8,6 C 51 % 59 % 1017,3 hPa 0,0 l/m 0,0 km/h (0 Bft) N-NO 22 1,4 C 9,0 C 0,0 km/h (0 Bft)
18.09.2019 20:02 20,0 C 9,0 C 8,6 C 51 % 59 % 1017,3 hPa 0,0 l/m 0,0 km/h (0 Bft) N-NO 22 1,4 C 9,0 C 0,0 km/h (0 Bft)
18.09.2019 20:01 20,0 C 9,1 C 8,6 C 51 % 59 % 1017,3 hPa 0,0 l/m 0,0 km/h (0 Bft) N-NO 22 1,5 C 9,1 C 0,0 km/h (0 Bft)
18.09.2019 20:00 20,0 C 9,1 C 8,6 C 51 % 59 % 1017,3 hPa 0,0 l/m 0,0 km/h (0 Bft) N-NO 22 1,5 C 9,1 C 0,0 km/h (0 Bft)
18.09.2019 19:59 20,0 C 9,3 C 8,7 C 51 % 58 % 1017,3 hPa 0,0 l/m 0,0 km/h (0 Bft) N-NO 22 1,5 C 9,3 C 0,0 km/h (0 Bft)
18.09.2019 19:58 20,0 C 9,3 C 8,7 C 51 % 58 % 1017,3 hPa 0,0 l/m 0,0 km/h (0 Bft) N-NO 22 1,5 C 9,3 C 0,0 km/h (0 Bft)
18.09.2019 19:57 20,0 C 9,4 C 8,9 C 51 % 58 % 1017,3 hPa 0,0 l/m 0,0 km/h (0 Bft) N-NO 22 1,6 C 9,4 C 0,0 km/h (0 Bft)
18.09.2019 19:56 20,0 C 9,4 C 8,9 C 51 % 58 % 1017,3 hPa 0,0 l/m 0,0 km/h (0 Bft) N-NO 22 1,6 C 9,4 C 0,0 km/h (0 Bft)
18.09.2019 19:55 20,0 C 9,5 C 9,1 C 51 % 58 % 1017,3 hPa 0,0 l/m 0,0 km/h (0 Bft) N-NO 22 1,7 C 9,5 C 0,0 km/h (0 Bft)
18.09.2019 19:54 20,0 C 9,5 C 9,1 C 51 % 58 % 1017,3 hPa 0,0 l/m 0,0 km/h (0 Bft) N-NO 22 1,7 C 9,5 C 0,0 km/h (0 Bft)
18.09.2019 19:53 20,0 C 9,6 C 9,2 C 51 % 58 % 1017,3 hPa 0,0 l/m 0,0 km/h (0 Bft) N-NO 22 1,8 C 9,6 C 0,0 km/h (0 Bft)
18.09.2019 19:52 20,0 C 9,6 C 9,2 C 51 % 58 % 1017,3 hPa 0,0 l/m 0,0 km/h (0 Bft) N-NO 22 1,8 C 9,6 C 0,0 km/h (0 Bft)
18.09.2019 19:51 20,0 C 9,6 C 9,3 C 51 % 58 % 1017,3 hPa 0,0 l/m 0,0 km/h (0 Bft) N-NO 22 1,8 C 9,6 C 0,0 km/h (0 Bft)
18.09.2019 19:50 20,0 C 9,6 C 9,3 C 51 % 58 % 1017,3 hPa 0,0 l/m 0,0 km/h (0 Bft) N-NO 22 1,8 C 9,6 C 0,0 km/h (0 Bft)
18.09.2019 19:49 20,0 C 9,7 C 9,4 C 51 % 57 % 1017,3 hPa 0,0 l/m 0,0 km/h (0 Bft) N-NO 22 1,6 C 9,7 C 0,0 km/h (0 Bft)
18.09.2019 19:48 20,0 C 9,7 C 9,4 C 51 % 57 % 1017,3 hPa 0,0 l/m 0,0 km/h (0 Bft) N-NO 22 1,6 C 9,7 C 0,0 km/h (0 Bft)
18.09.2019 19:47 20,0 C 9,8 C 9,6 C 51 % 57 % 1017,3 hPa 0,0 l/m 0,0 km/h (0 Bft) N-NO 22 1,7 C 9,8 C 0,0 km/h (0 Bft)
18.09.2019 19:46 20,0 C 9,8 C 9,6 C 51 % 57 % 1017,3 hPa 0,0 l/m 0,0 km/h (0 Bft) N-NO 22 1,7 C 9,8 C 0,0 km/h (0 Bft)
18.09.2019 19:45 20,0 C 9,8 C 9,6 C 51 % 57 % 1017,2 hPa 0,0 l/m 0,0 km/h (0 Bft) N-NO 22 1,7 C 9,8 C 0,0 km/h (0 Bft)
18.09.2019 19:44 20,0 C 9,8 C 9,6 C 51 % 57 % 1017,2 hPa 0,0 l/m 0,0 km/h (0 Bft) N-NO 22 1,7 C 9,8 C 0,0 km/h (0 Bft)
18.09.2019 19:43 20,0 C 9,9 C 9,4 C 51 % 57 % 1017,2 hPa 0,0 l/m 0,0 km/h (0 Bft) N-NO 22 1,8 C 9,9 C 0,0 km/h (0 Bft)
18.09.2019 19:42 20,0 C 9,9 C 9,4 C 51 % 57 % 1017,2 hPa 0,0 l/m 0,0 km/h (0 Bft) N-NO 22 1,8 C 9,9 C 0,0 km/h (0 Bft)
18.09.2019 19:41 20,0 C 9,9 C 9,4 C 51 % 56 % 1017,2 hPa 0,0 l/m 0,0 km/h (0 Bft) N-NO 22 1,5 C 9,9 C 0,0 km/h (0 Bft)
18.09.2019 19:40 20,0 C 9,9 C 9,4 C 51 % 56 % 1017,2 hPa 0,0 l/m 0,0 km/h (0 Bft) N-NO 22 1,5 C 9,9 C 0,0 km/h (0 Bft)
18.09.2019 19:39 20,0 C 10,1 C 9,4 C 51 % 56 % 1017,2 hPa 0,0 l/m 0,0 km/h (0 Bft) N-NO 22 1,7 C 10,1 C 0,0 km/h (0 Bft)
18.09.2019 19:38 20,0 C 10,1 C 9,4 C 51 % 56 % 1017,2 hPa 0,0 l/m 0,0 km/h (0 Bft) N-NO 22 1,7 C 10,1 C 0,0 km/h (0 Bft)
18.09.2019 19:37 20,0 C 10,2 C 9,4 C 51 % 55 % 1017,2 hPa 0,0 l/m 0,0 km/h (0 Bft) N-NO 22 1,6 C 10,2 C 0,0 km/h (0 Bft)
18.09.2019 19:36 20,0 C 10,2 C 9,4 C 51 % 55 % 1017,2 hPa 0,0 l/m 0,0 km/h (0 Bft) N-NO 22 1,6 C 10,2 C 0,0 km/h (0 Bft)
18.09.2019 19:35 20,0 C 10,3 C 9,6 C 50 % 55 % 1017,2 hPa 0,0 l/m 0,0 km/h (0 Bft) N-NO 22 1,7 C 10,3 C 0,0 km/h (0 Bft)
18.09.2019 19:34 20,0 C 10,3 C 9,6 C 50 % 55 % 1017,2 hPa 0,0 l/m 0,0 km/h (0 Bft) N-NO 22 1,7 C 10,3 C 0,0 km/h (0 Bft)
18.09.2019 19:33 20,0 C 10,4 C 9,7 C 50 % 55 % 1017,2 hPa 0,0 l/m 0,0 km/h (0 Bft) N-NO 22 1,8 C 10,4 C 0,0 km/h (0 Bft)
18.09.2019 19:32 20,0 C 10,4 C 9,7 C 50 % 55 % 1017,2 hPa 0,0 l/m 0,0 km/h (0 Bft) N-NO 22 1,8 C 10,4 C 0,0 km/h (0 Bft)
18.09.2019 19:31 20,0 C 10,4 C 9,9 C 50 % 54 % 1017,2 hPa 0,0 l/m 0,0 km/h (0 Bft) N-NO 22 1,5 C 10,4 C 0,0 km/h (0 Bft)
18.09.2019 19:30 20,0 C 10,4 C 9,9 C 50 % 54 % 1017,2 hPa 0,0 l/m 0,0 km/h (0 Bft) N-NO 22 1,5 C 10,4 C 0,0 km/h (0 Bft)
18.09.2019 19:29 20,0 C 10,5 C 10,0 C 50 % 54 % 1017,2 hPa 0,0 l/m 0,0 km/h (0 Bft) N-NO 22 1,6 C 10,5 C 0,0 km/h (0 Bft)
18.09.2019 19:28 20,0 C 10,5 C 10,0 C 50 % 54 % 1017,2 hPa 0,0 l/m 0,0 km/h (0 Bft) N-NO 22 1,6 C 10,5 C 0,0 km/h (0 Bft)
18.09.2019 19:27 20,1 C 10,8 C 10,1 C 50 % 53 % 1017,2 hPa 0,0 l/m 0,0 km/h (0 Bft) N-NO 22 1,6 C 10,8 C 0,0 km/h (0 Bft)
18.09.2019 19:26 20,1 C 10,8 C 10,1 C 50 % 53 % 1017,2 hPa 0,0 l/m 0,0 km/h (0 Bft) N-NO 22 1,6 C 10,8 C 0,0 km/h (0 Bft)
18.09.2019 19:25 20,1 C 10,8 C 10,1 C 50 % 53 % 1017,1 hPa 0,0 l/m 0,0 km/h (0 Bft) N-NO 22 1,6 C 10,8 C 0,0 km/h (0 Bft)
18.09.2019 19:24 20,1 C 10,8 C 10,1 C 50 % 53 % 1017,1 hPa 0,0 l/m 0,0 km/h (0 Bft) N-NO 22 1,6 C 10,8 C 0,0 km/h (0 Bft)
18.09.2019 19:23 20,1 C 11,0 C 10,1 C 50 % 53 % 1017,1 hPa 0,0 l/m 0,0 km/h (0 Bft) N-NO 22 1,8 C 11,0 C 0,0 km/h (0 Bft)
18.09.2019 19:22 20,1 C 11,0 C 10,1 C 50 % 53 % 1017,1 hPa 0,0 l/m 0,0 km/h (0 Bft) N-NO 22 1,8 C 11,0 C 0,0 km/h (0 Bft)
18.09.2019 19:21 20,1 C 11,2 C 10,3 C 50 % 52 % 1017,1 hPa 0,0 l/m 0,0 km/h (0 Bft) N-NO 22 1,7 C 11,2 C 0,0 km/h (0 Bft)
18.09.2019 19:20 20,1 C 11,2 C 10,3 C 50 % 52 % 1017,1 hPa 0,0 l/m 0,0 km/h (0 Bft) N-NO 22 1,7 C 11,2 C 0,0 km/h (0 Bft)
18.09.2019 19:19 20,1 C 11,3 C 10,3 C 50 % 52 % 1017,1 hPa 0,0 l/m 0,0 km/h (0 Bft) N-NO 22 1,8 C 11,3 C 0,0 km/h (0 Bft)
18.09.2019 19:18 20,1 C 11,3 C 10,3 C 50 % 52 % 1017,1 hPa 0,0 l/m 0,0 km/h (0 Bft) N-NO 22 1,8 C 11,3 C 0,0 km/h (0 Bft)
18.09.2019 19:17 20,1 C 11,5 C 10,5 C 50 % 52 % 1017,1 hPa 0,0 l/m 0,0 km/h (0 Bft) N-NO 22 2,0 C 11,5 C 0,0 km/h (0 Bft)
18.09.2019 19:16 20,1 C 11,5 C 10,5 C 50 % 52 % 1017,1 hPa 0,0 l/m 0,0 km/h (0 Bft) N-NO 22 2,0 C 11,5 C 0,0 km/h (0 Bft)
18.09.2019 19:15 20,1 C 11,7 C 10,6 C 50 % 51 % 1017,1 hPa 0,0 l/m 0,0 km/h (0 Bft) N-NO 22 1,9 C 11,7 C 0,0 km/h (0 Bft)
18.09.2019 19:14 20,1 C 11,7 C 10,6 C 50 % 51 % 1017,1 hPa 0,0 l/m 0,0 km/h (0 Bft) N-NO 22 1,9 C 11,7 C 0,0 km/h (0 Bft)
18.09.2019 19:13 20,1 C 11,8 C 10,8 C 50 % 51 % 1017,1 hPa 0,0 l/m 0,0 km/h (0 Bft) N-NO 22 2,0 C 11,8 C 0,0 km/h (0 Bft)
18.09.2019 19:12 20,1 C 11,8 C 10,8 C 50 % 51 % 1017,1 hPa 0,0 l/m 0,0 km/h (0 Bft) N-NO 22 2,0 C 11,8 C 0,0 km/h (0 Bft)
18.09.2019 19:11 20,1 C 12,0 C 11,0 C 49 % 50 % 1017,1 hPa 0,0 l/m 0,0 km/h (0 Bft) N-NO 22 1,9 C 12,0 C 0,0 km/h (0 Bft)
18.09.2019 19:10 20,1 C 12,0 C 11,0 C 49 % 50 % 1017,1 hPa 0,0 l/m 0,0 km/h (0 Bft) N-NO 22 1,9 C 12,0 C 0,0 km/h (0 Bft)
18.09.2019 19:09 20,1 C 12,1 C 11,1 C 49 % 50 % 1017,1 hPa 0,0 l/m 0,0 km/h (0 Bft) N-NO 22 2,0 C 12,1 C 0,0 km/h (0 Bft)
18.09.2019 19:08 20,1 C 12,1 C 11,1 C 49 % 50 % 1017,1 hPa 0,0 l/m 0,0 km/h (0 Bft) N-NO 22 2,0 C 12,1 C 0,0 km/h (0 Bft)
18.09.2019 19:07 20,2 C 12,5 C 11,3 C 49 % 49 % 1017,1 hPa 0,0 l/m 0,0 km/h (0 Bft) N-NO 22 2,1 C 12,5 C 0,0 km/h (0 Bft)
18.09.2019 19:06 20,2 C 12,5 C 11,3 C 49 % 49 % 1017,1 hPa 0,0 l/m 0,0 km/h (0 Bft) N-NO 22 2,1 C 12,5 C 0,0 km/h (0 Bft)
18.09.2019 19:05 20,2 C 12,5 C 11,3 C 49 % 49 % 1017,1 hPa 0,0 l/m 0,0 km/h (0 Bft) N-NO 22 2,1 C 12,5 C 0,0 km/h (0 Bft)
18.09.2019 19:04 20,2 C 12,5 C 11,3 C 49 % 49 % 1017,1 hPa 0,0 l/m 0,0 km/h (0 Bft) N-NO 22 2,1 C 12,5 C 0,0 km/h (0 Bft)
18.09.2019 19:03 20,2 C 12,7 C 11,5 C 49 % 49 % 1017,1 hPa 0,0 l/m 0,0 km/h (0 Bft) N-NO 22 2,3 C 12,7 C 0,0 km/h (0 Bft)
18.09.2019 19:02 20,2 C 12,7 C 11,5 C 49 % 49 % 1017,1 hPa 0,0 l/m 0,0 km/h (0 Bft) N-NO 22 2,3 C 12,7 C 0,0 km/h (0 Bft)
18.09.2019 19:01 20,2 C 12,9 C 11,6 C 49 % 48 % 1017,1 hPa 0,0 l/m 0,0 km/h (0 Bft) N-NO 22 2,2 C 12,9 C 0,0 km/h (0 Bft)
18.09.2019 19:00 20,2 C 12,9 C 11,6 C 49 % 48 % 1017,1 hPa 0,0 l/m 0,0 km/h (0 Bft) N-NO 22 2,2 C 12,9 C 0,0 km/h (0 Bft)
18.09.2019 18:59 20,2 C 13,0 C 11,9 C 49 % 47 % 1017,1 hPa 0,0 l/m 0,0 km/h (0 Bft) N-NO 22 2,0 C 13,0 C 0,0 km/h (0 Bft)
18.09.2019 18:58 20,2 C 13,0 C 11,9 C 49 % 47 % 1017,1 hPa 0,0 l/m 0,0 km/h (0 Bft) N-NO 22 2,0 C 13,0 C 0,0 km/h (0 Bft)
18.09.2019 18:57 20,2 C 13,2 C 12,0 C 48 % 46 % 1017,1 hPa 0,0 l/m 0,0 km/h (0 Bft) N-NO 22 1,8 C 13,2 C 0,0 km/h (0 Bft)
18.09.2019 18:56 20,2 C 13,2 C 12,0 C 48 % 46 % 1017,1 hPa 0,0 l/m 0,0 km/h (0 Bft) N-NO 22 1,8 C 13,2 C 0,0 km/h (0 Bft)
18.09.2019 18:55 20,2 C 13,4 C 12,1 C 48 % 46 % 1017,1 hPa 0,0 l/m 0,0 km/h (0 Bft) N-NO 22 2,0 C 13,4 C 0,0 km/h (0 Bft)
18.09.2019 18:54 20,2 C 13,4 C 12,1 C 48 % 46 % 1017,1 hPa 0,0 l/m 0,0 km/h (0 Bft) N-NO 22 2,0 C 13,4 C 0,0 km/h (0 Bft)
18.09.2019 18:53 20,2 C 13,6 C 12,2 C 48 % 45 % 1017,1 hPa 0,0 l/m 0,0 km/h (0 Bft) N-NO 22 1,9 C 13,6 C 0,0 km/h (0 Bft)
18.09.2019 18:52 20,2 C 13,6 C 12,2 C 48 % 45 % 1017,1 hPa 0,0 l/m 0,0 km/h (0 Bft) N-NO 22 1,9 C 13,6 C 0,0 km/h (0 Bft)
18.09.2019 18:51 20,3 C 13,8 C 12,3 C 48 % 45 % 1017,1 hPa 0,0 l/m 0,0 km/h (0 Bft) N-NO 22 2,1 C 13,8 C 0,0 km/h (0 Bft)
18.09.2019 18:50 20,3 C 13,8 C 12,3 C 48 % 45 % 1017,1 hPa 0,0 l/m 0,0 km/h (0 Bft) N-NO 22 2,1 C 13,8 C 0,0 km/h (0 Bft)
18.09.2019 18:49 20,2 C 14,0 C 12,4 C 48 % 44 % 1017,1 hPa 0,0 l/m 0,0 km/h (0 Bft) N-NO 22 1,9 C 14,0 C 0,0 km/h (0 Bft)
18.09.2019 18:48 20,2 C 14,0 C 12,4 C 48 % 44 % 1017,1 hPa 0,0 l/m 0,0 km/h (0 Bft) N-NO 22 1,9 C 14,0 C 0,0 km/h (0 Bft)
18.09.2019 18:47 20,4 C 14,5 C 12,7 C 48 % 42 % 1017,1 hPa 0,0 l/m 0,0 km/h (0 Bft) N-NO 22 1,7 C 14,5 C 0,0 km/h (0 Bft)
18.09.2019 18:46 20,4 C 14,5 C 12,7 C 48 % 42 % 1017,1 hPa 0,0 l/m 0,0 km/h (0 Bft) N-NO 22 1,7 C 14,5 C 0,0 km/h (0 Bft)
18.09.2019 18:45 20,4 C 14,5 C 12,7 C 48 % 42 % 1016,9 hPa 0,0 l/m 0,0 km/h (0 Bft) N-NO 22 1,7 C 14,5 C 0,0 km/h (0 Bft)
18.09.2019 18:44 20,4 C 14,5 C 12,7 C 48 % 42 % 1016,9 hPa 0,0 l/m 0,0 km/h (0 Bft) N-NO 22 1,7 C 14,5 C 0,0 km/h (0 Bft)
18.09.2019 18:43 20,4 C 14,5 C 12,9 C 47 % 42 % 1016,9 hPa 0,0 l/m 0,0 km/h (0 Bft) N-NO 22 1,7 C 14,5 C 0,0 km/h (0 Bft)
18.09.2019 18:42 20,4 C 14,5 C 12,9 C 47 % 42 % 1016,9 hPa 0,0 l/m 0,0 km/h (0 Bft) N-NO 22 1,7 C 14,5 C 0,0 km/h (0 Bft)
18.09.2019 18:41 20,4 C 14,7 C 13,2 C 47 % 42 % 1016,9 hPa 0,0 l/m 0,0 km/h (0 Bft) N-NO 22 1,9 C 14,7 C 0,0 km/h (0 Bft)
18.09.2019 18:40 20,4 C 14,7 C 13,2 C 47 % 42 % 1016,9 hPa 0,0 l/m 0,0 km/h (0 Bft) N-NO 22 1,9 C 14,7 C 0,0 km/h (0 Bft)
18.09.2019 18:39 20,4 C 14,7 C 13,3 C 47 % 41 % 1016,9 hPa 0,0 l/m 0,0 km/h (0 Bft) N-NO 22 1,6 C 14,7 C 0,0 km/h (0 Bft)
18.09.2019 18:38 20,4 C 14,7 C 13,3 C 47 % 41 % 1016,9 hPa 0,0 l/m 0,0 km/h (0 Bft) N-NO 22 1,6 C 14,7 C 0,0 km/h (0 Bft)
18.09.2019 18:37 20,5 C 15,0 C 13,5 C 47 % 40 % 1016,9 hPa 0,0 l/m 0,0 km/h (0 Bft) N-NO 22 1,5 C 15,0 C 0,0 km/h (0 Bft)
18.09.2019 18:36 20,5 C 15,0 C 13,5 C 47 % 40 % 1016,9 hPa 0,0 l/m 0,0 km/h (0 Bft) N-NO 22 1,5 C 15,0 C 0,0 km/h (0 Bft)
18.09.2019 18:35 20,4 C 15,1 C 13,7 C 47 % 39 % 1016,9 hPa 0,0 l/m 0,0 km/h (0 Bft) N-NO 22 1,3 C 15,1 C 0,0 km/h (0 Bft)
18.09.2019 18:34 20,4 C 15,1 C 13,7 C 47 % 39 % 1016,9 hPa 0,0 l/m 0,0 km/h (0 Bft) N-NO 22 1,3 C 15,1 C 0,0 km/h (0 Bft)
18.09.2019 18:33 20,4 C 15,1 C 14,0 C 47 % 39 % 1016,9 hPa 0,0 l/m 0,0 km/h (0 Bft) N-NO 22 1,3 C 15,1 C 0,0 km/h (0 Bft)
18.09.2019 18:32 20,4 C 15,1 C 14,0 C 47 % 39 % 1016,9 hPa 0,0 l/m 0,0 km/h (0 Bft) N-NO 22 1,3 C 15,1 C 0,0 km/h (0 Bft)
18.09.2019 18:31 20,5 C 15,2 C 14,0 C 46 % 38 % 1016,9 hPa 0,0 l/m 0,0 km/h (0 Bft) N-NO 22 1,0 C 15,2 C 0,0 km/h (0 Bft)
18.09.2019 18:30 20,5 C 15,2 C 14,0 C 46 % 38 % 1016,9 hPa 0,0 l/m 0,0 km/h (0 Bft) N-NO 22 1,0 C 15,2 C 0,0 km/h (0 Bft)
18.09.2019 18:29 20,5 C 15,3 C 14,4 C 46 % 40 % 1016,9 hPa 0,0 l/m 0,0 km/h (0 Bft) N-NO 22 1,8 C 15,3 C 0,0 km/h (0 Bft)
18.09.2019 18:28 20,5 C 15,3 C 14,4 C 46 % 40 % 1016,9 hPa 0,0 l/m 0,0 km/h (0 Bft) N-NO 22 1,8 C 15,3 C 0,0 km/h (0 Bft)
18.09.2019 18:27 20,6 C 15,4 C 14,5 C 46 % 38 % 1016,9 hPa 0,0 l/m 0,0 km/h (0 Bft) N-NO 22 1,2 C 15,4 C 0,0 km/h (0 Bft)
18.09.2019 18:26 20,6 C 15,4 C 14,5 C 46 % 38 % 1016,9 hPa 0,0 l/m 0,0 km/h (0 Bft) N-NO 22 1,2 C 15,4 C 0,0 km/h (0 Bft)
18.09.2019 18:25 20,6 C 15,4 C 14,5 C 46 % 38 % 1016,9 hPa 0,0 l/m 0,0 km/h (0 Bft) N-NO 22 1,2 C 15,4 C 0,0 km/h (0 Bft)
18.09.2019 18:24 20,6 C 15,4 C 14,5 C 46 % 38 % 1016,9 hPa 0,0 l/m 0,0 km/h (0 Bft) N-NO 22 1,2 C 15,4 C 0,0 km/h (0 Bft)
18.09.2019 18:23 20,5 C 15,6 C 14,7 C 46 % 37 % 1016,9 hPa 0,0 l/m 0,0 km/h (0 Bft) N-NO 22 1,0 C 15,6 C 0,0 km/h (0 Bft)
18.09.2019 18:22 20,5 C 15,6 C 14,7 C 46 % 37 % 1016,9 hPa 0,0 l/m 0,0 km/h (0 Bft) N-NO 22 1,0 C 15,6 C 0,0 km/h (0 Bft)
18.09.2019 18:21 20,5 C 15,6 C 14,7 C 45 % 37 % 1016,9 hPa 0,0 l/m 0,0 km/h (0 Bft) N-NO 22 1,0 C 15,6 C 0,0 km/h (0 Bft)
18.09.2019 18:20 20,5 C 15,6 C 14,7 C 45 % 37 % 1016,9 hPa 0,0 l/m 0,0 km/h (0 Bft) N-NO 22 1,0 C 15,6 C 0,0 km/h (0 Bft)
18.09.2019 18:19 20,5 C 15,7 C 14,9 C 45 % 36 % 1016,9 hPa 0,0 l/m 0,0 km/h (0 Bft) N-NO 22 0,7 C 15,7 C 0,0 km/h (0 Bft)
18.09.2019 18:18 20,5 C 15,7 C 14,9 C 45 % 36 % 1016,9 hPa 0,0 l/m 0,0 km/h (0 Bft) N-NO 22 0,7 C 15,7 C 0,0 km/h (0 Bft)
18.09.2019 18:17 20,6 C 15,9 C 15,0 C 45 % 36 % 1016,9 hPa 0,0 l/m 0,0 km/h (0 Bft) N-NO 22 0,9 C 15,9 C 0,0 km/h (0 Bft)
18.09.2019 18:16 20,6 C 15,9 C 15,0 C 45 % 36 % 1016,9 hPa 0,0 l/m 0,0 km/h (0 Bft) N-NO 22 0,9 C 15,9 C 0,0 km/h (0 Bft)
18.09.2019 18:15 20,6 C 15,9 C 15,0 C 44 % 36 % 1016,9 hPa 0,0 l/m 0,0 km/h (0 Bft) N-NO 22 0,9 C 15,9 C 0,0 km/h (0 Bft)
18.09.2019 18:14 20,6 C 15,9 C 15,0 C 44 % 36 % 1016,9 hPa 0,0 l/m 0,0 km/h (0 Bft) N-NO 22 0,9 C 15,9 C 0,0 km/h (0 Bft)
18.09.2019 18:13 20,6 C 15,9 C 15,0 C 44 % 35 % 1016,9 hPa 0,0 l/m 0,0 km/h (0 Bft) N-NO 22 0,5 C 15,9 C 0,0 km/h (0 Bft)
18.09.2019 18:12 20,6 C 15,9 C 15,0 C 44 % 35 % 1016,9 hPa 0,0 l/m 0,0 km/h (0 Bft) N-NO 22 0,5 C 15,9 C 0,0 km/h (0 Bft)
18.09.2019 18:11 20,6 C 15,9 C 15,1 C 43 % 35 % 1016,9 hPa 0,0 l/m 0,0 km/h (0 Bft) N-NO 22 0,5 C 15,9 C 0,0 km/h (0 Bft)
18.09.2019 18:10 20,6 C 15,9 C 15,1 C 43 % 35 % 1016,9 hPa 0,0 l/m 0,0 km/h (0 Bft) N-NO 22 0,5 C 15,9 C 0,0 km/h (0 Bft)
18.09.2019 18:09 20,6 C 15,9 C 15,1 C 43 % 35 % 1016,9 hPa 0,0 l/m 0,0 km/h (0 Bft) N-NO 22 0,5 C 15,9 C 0,0 km/h (0 Bft)
18.09.2019 18:08 20,6 C 15,9 C 15,1 C 43 % 35 % 1016,9 hPa 0,0 l/m 0,0 km/h (0 Bft) N-NO 22 0,5 C 15,9 C 0,0 km/h (0 Bft)
18.09.2019 18:07 20,6 C 16,0 C 15,4 C 42 % 37 % 1016,9 hPa 0,0 l/m 0,0 km/h (0 Bft) N-NO 22 1,3 C 16,0 C 0,0 km/h (0 Bft)
18.09.2019 18:06 20,6 C 16,0 C 15,4 C 42 % 37 % 1016,9 hPa 0,0 l/m 0,0 km/h (0 Bft) N-NO 22 1,3 C 16,0 C 0,0 km/h (0 Bft)
18.09.2019 18:05 20,6 C 16,0 C 15,4 C 42 % 37 % 1017,2 hPa 0,0 l/m 0,0 km/h (0 Bft) N-NO 22 1,3 C 16,0 C 0,0 km/h (0 Bft)
18.09.2019 18:04 20,6 C 16,0 C 15,4 C 42 % 37 % 1017,2 hPa 0,0 l/m 0,0 km/h (0 Bft) N-NO 22 1,3 C 16,0 C 0,0 km/h (0 Bft)
18.09.2019 18:03 20,6 C 16,1 C 15,4 C 41 % 36 % 1017,2 hPa 0,0 l/m 0,0 km/h (0 Bft) N-NO 22 1,0 C 16,1 C 0,0 km/h (0 Bft)
18.09.2019 18:02 20,6 C 16,1 C 15,4 C 41 % 36 % 1017,2 hPa 0,0 l/m 0,0 km/h (0 Bft) N-NO 22 1,0 C 16,1 C 0,0 km/h (0 Bft)
18.09.2019 18:01 20,6 C 16,1 C 15,4 C 42 % 36 % 1017,2 hPa 0,0 l/m 0,0 km/h (0 Bft) N-NO 22 1,0 C 16,1 C 0,0 km/h (0 Bft)
18.09.2019 18:00 20,6 C 16,1 C 15,4 C 42 % 36 % 1017,2 hPa 0,0 l/m 0,0 km/h (0 Bft) N-NO 22 1,0 C 16,1 C 0,0 km/h (0 Bft)
18.09.2019 17:59 20,6 C 16,2 C 15,6 C 42 % 37 % 1017,2 hPa 0,0 l/m 0,0 km/h (0 Bft) N-NO 22 1,5 C 16,2 C 0,0 km/h (0 Bft)
18.09.2019 17:58 20,6 C 16,2 C 15,6 C 42 % 37 % 1017,2 hPa 0,0 l/m 0,0 km/h (0 Bft) N-NO 22 1,5 C 16,2 C 0,0 km/h (0 Bft)
18.09.2019 17:57 20,6 C 16,3 C 15,6 C 42 % 36 % 1017,2 hPa 0,0 l/m 0,0 km/h (0 Bft) N-NO 22 1,2 C 16,3 C 0,0 km/h (0 Bft)
18.09.2019 17:56 20,6 C 16,3 C 15,6 C 42 % 36 % 1017,2 hPa 0,0 l/m 0,0 km/h (0 Bft) N-NO 22 1,2 C 16,3 C 0,0 km/h (0 Bft)
18.09.2019 17:55 20,6 C 16,3 C 15,6 C 42 % 36 % 1017,2 hPa 0,0 l/m 0,0 km/h (0 Bft) N-NO 22 1,2 C 16,3 C 0,0 km/h (0 Bft)
18.09.2019 17:54 20,6 C 16,3 C 15,6 C 42 % 36 % 1017,2 hPa 0,0 l/m 0,0 km/h (0 Bft) N-NO 22 1,2 C 16,3 C 0,0 km/h (0 Bft)
18.09.2019 17:53 20,6 C 16,3 C 15,7 C 42 % 36 % 1017,2 hPa 0,0 l/m 0,0 km/h (0 Bft) N-NO 22 1,2 C 16,3 C 0,0 km/h (0 Bft)
18.09.2019 17:52 20,6 C 16,3 C 15,7 C 42 % 36 % 1017,2 hPa 0,0 l/m 0,0 km/h (0 Bft) N-NO 22 1,2 C 16,3 C 0,0 km/h (0 Bft)
18.09.2019 17:51 20,6 C 16,3 C 15,7 C 42 % 36 % 1017,2 hPa 0,0 l/m 0,0 km/h (0 Bft) N-NO 22 1,2 C 16,3 C 0,0 km/h (0 Bft)
18.09.2019 17:50 20,6 C 16,3 C 15,7 C 42 % 36 % 1017,2 hPa 0,0 l/m 0,0 km/h (0 Bft) N-NO 22 1,2 C 16,3 C 0,0 km/h (0 Bft)
18.09.2019 17:49 20,7 C 16,3 C 15,8 C 42 % 36 % 1017,2 hPa 0,0 l/m 0,0 km/h (0 Bft) N-NO 22 1,2 C 16,3 C 0,0 km/h (0 Bft)
18.09.2019 17:48 20,7 C 16,3 C 15,8 C 42 % 36 % 1017,2 hPa 0,0 l/m 0,0 km/h (0 Bft) N-NO 22 1,2 C 16,3 C 0,0 km/h (0 Bft)
18.09.2019 17:47 20,7 C 16,6 C 16,0 C 42 % 36 % 1017,2 hPa 0,0 l/m 0,0 km/h (0 Bft) N-NO 22 1,5 C 16,6 C 0,0 km/h (0 Bft)
18.09.2019 17:46 20,7 C 16,6 C 16,0 C 42 % 36 % 1017,2 hPa 0,0 l/m 0,0 km/h (0 Bft) N-NO 22 1,5 C 16,6 C 0,0 km/h (0 Bft)
18.09.2019 17:45 20,7 C 16,6 C 16,0 C 42 % 36 % 1017,1 hPa 0,0 l/m 0,0 km/h (0 Bft) N-NO 22 1,5 C 16,6 C 0,0 km/h (0 Bft)
18.09.2019 17:44 20,7 C 16,6 C 16,0 C 42 % 36 % 1017,1 hPa 0,0 l/m 0,0 km/h (0 Bft) N-NO 22 1,5 C 16,6 C 0,0 km/h (0 Bft)
18.09.2019 17:43 20,6 C 16,6 C 16,1 C 43 % 36 % 1017,1 hPa 0,0 l/m 0,0 km/h (0 Bft) N-NO 22 1,5 C 16,6 C 0,0 km/h (0 Bft)
18.09.2019 17:42 20,6 C 16,6 C 16,1 C 43 % 36 % 1017,1 hPa 0,0 l/m 0,0 km/h (0 Bft) N-NO 22 1,5 C 16,6 C 0,0 km/h (0 Bft)
18.09.2019 17:41 20,6 C 16,5 C 16,1 C 43 % 36 % 1017,1 hPa 0,0 l/m 0,0 km/h (0 Bft) N-NO 22 1,4 C 16,5 C 0,0 km/h (0 Bft)
18.09.2019 17:40 20,6 C 16,5 C 16,1 C 43 % 36 % 1017,1 hPa 0,0 l/m 0,0 km/h (0 Bft) N-NO 22 1,4 C 16,5 C 0,0 km/h (0 Bft)
18.09.2019 17:39 20,6 C 16,6 C 16,1 C 43 % 35 % 1017,1 hPa 0,0 l/m 0,0 km/h (0 Bft) N-NO 22 1,1 C 16,6 C 0,0 km/h (0 Bft)
18.09.2019 17:38 20,6 C 16,6 C 16,1 C 43 % 35 % 1017,1 hPa 0,0 l/m 0,0 km/h (0 Bft) N-NO 22 1,1 C 16,6 C 0,0 km/h (0 Bft)
18.09.2019 17:37 20,6 C 16,6 C 16,1 C 43 % 36 % 1017,1 hPa 0,0 l/m 0,0 km/h (0 Bft) N-NO 22 1,5 C 16,6 C 0,0 km/h (0 Bft)
18.09.2019 17:36 20,6 C 16,6 C 16,1 C 43 % 36 % 1017,1 hPa 0,0 l/m 0,0 km/h (0 Bft) N-NO 22 1,5 C 16,6 C 0,0 km/h (0 Bft)
18.09.2019 17:35 20,6 C 16,7 C 16,3 C 44 % 36 % 1017,1 hPa 0,0 l/m 0,0 km/h (0 Bft) N-NO 22 1,6 C 16,7 C 0,0 km/h (0 Bft)
18.09.2019 17:34 20,6 C 16,7 C 16,3 C 44 % 36 % 1017,1 hPa 0,0 l/m 0,0 km/h (0 Bft) N-NO 22 1,6 C 16,7 C 0,0 km/h (0 Bft)
18.09.2019 17:33 20,6 C 16,7 C 16,4 C 45 % 36 % 1017,1 hPa 0,0 l/m 0,0 km/h (0 Bft) N-NO 22 1,6 C 16,7 C 0,0 km/h (0 Bft)
18.09.2019 17:32 20,6 C 16,7 C 16,4 C 45 % 36 % 1017,1 hPa 0,0 l/m 0,0 km/h (0 Bft) N-NO 22 1,6 C 16,7 C 0,0 km/h (0 Bft)
18.09.2019 17:31 20,6 C 16,7 C 16,3 C 45 % 36 % 1017,1 hPa 0,0 l/m 0,0 km/h (0 Bft) N-NO 22 1,6 C 16,7 C 0,0 km/h (0 Bft)
18.09.2019 17:30 20,6 C 16,7 C 16,3 C 45 % 36 % 1017,1 hPa 0,0 l/m 0,0 km/h (0 Bft) N-NO 22 1,6 C 16,7 C 0,0 km/h (0 Bft)
18.09.2019 17:29 20,6 C 16,8 C 16,4 C 46 % 36 % 1017,1 hPa 0,0 l/m 0,0 km/h (0 Bft) N-NO 22 1,7 C 16,8 C 0,0 km/h (0 Bft)
18.09.2019 17:28 20,6 C 16,8 C 16,4 C 46 % 36 % 1017,1 hPa 0,0 l/m 0,0 km/h (0 Bft) N-NO 22 1,7 C 16,8 C 0,0 km/h (0 Bft)
18.09.2019 17:27 20,6 C 16,8 C 16,7 C 48 % 36 % 1017,1 hPa 0,0 l/m 0,0 km/h (0 Bft) N-NO 22 1,7 C 16,8 C 0,0 km/h (0 Bft)
18.09.2019 17:26 20,6 C 16,8 C 16,7 C 48 % 36 % 1017,1 hPa 0,0 l/m 0,0 km/h (0 Bft) N-NO 22 1,7 C 16,8 C 0,0 km/h (0 Bft)
18.09.2019 17:25 20,6 C 16,8 C 16,7 C 48 % 36 % 1017,1 hPa 0,0 l/m 0,0 km/h (0 Bft) N-NO 22 1,7 C 16,8 C 0,0 km/h (0 Bft)
18.09.2019 17:24 20,6 C 16,8 C 16,7 C 48 % 36 % 1017,1 hPa 0,0 l/m 0,0 km/h (0 Bft) N-NO 22 1,7 C 16,8 C 0,0 km/h (0 Bft)
18.09.2019 17:23 20,5 C 16,9 C 16,7 C 51 % 37 % 1017,1 hPa 0,0 l/m 0,0 km/h (0 Bft) N-NO 22 2,1 C 16,9 C 0,0 km/h (0 Bft)
18.09.2019 17:22 20,5 C 16,9 C 16,7 C 51 % 37 % 1017,1 hPa 0,0 l/m 0,0 km/h (0 Bft) N-NO 22 2,1 C 16,9 C 0,0 km/h (0 Bft)
18.09.2019 17:21 20,5 C 16,8 C 16,7 C 52 % 37 % 1017,1 hPa 0,0 l/m 0,0 km/h (0 Bft) N-NO 22 2,0 C 16,8 C 0,0 km/h (0 Bft)
18.09.2019 17:20 20,5 C 16,8 C 16,7 C 52 % 37 % 1017,1 hPa 0,0 l/m 0,0 km/h (0 Bft) N-NO 22 2,0 C 16,8 C 0,0 km/h (0 Bft)
18.09.2019 17:19 20,4 C 16,9 C 16,7 C 52 % 36 % 1017,1 hPa 0,0 l/m 0,0 km/h (0 Bft) N-NO 22 1,7 C 16,9 C 0,0 km/h (0 Bft)
18.09.2019 17:18 20,4 C 16,9 C 16,7 C 52 % 36 % 1017,1 hPa 0,0 l/m 0,0 km/h (0 Bft) N-NO 22 1,7 C 16,9 C 0,0 km/h (0 Bft)
18.09.2019 17:17 20,4 C 16,9 C 16,9 C 52 % 37 % 1017,1 hPa 0,0 l/m 0,0 km/h (0 Bft) N-NO 22 2,1 C 16,9 C 0,0 km/h (0 Bft)
18.09.2019 17:16 20,4 C 16,9 C 16,9 C 52 % 37 % 1017,1 hPa 0,0 l/m 0,0 km/h (0 Bft) N-NO 22 2,1 C 16,9 C 0,0 km/h (0 Bft)
18.09.2019 17:15 20,4 C 16,9 C 17,0 C 52 % 36 % 1017,1 hPa 0,0 l/m 0,0 km/h (0 Bft) N-NO 22 1,7 C 16,9 C 0,0 km/h (0 Bft)
18.09.2019 17:14 20,4 C 16,9 C 17,0 C 52 % 36 % 1017,1 hPa 0,0 l/m 0,0 km/h (0 Bft) N-NO 22 1,7 C 16,9 C 0,0 km/h (0 Bft)
18.09.2019 17:13 20,4 C 17,0 C 17,0 C 52 % 37 % 1017,1 hPa 0,0 l/m 0,0 km/h (0 Bft) N-NO 22 2,2 C 17,0 C 0,0 km/h (0 Bft)
18.09.2019 17:12 20,4 C 17,0 C 17,0 C 52 % 37 % 1017,1 hPa 0,0 l/m 0,0 km/h (0 Bft) N-NO 22 2,2 C 17,0 C 0,0 km/h (0 Bft)
18.09.2019 17:11 20,4 C 17,0 C 17,2 C 51 % 36 % 1017,1 hPa 0,0 l/m 0,0 km/h (0 Bft) N-NO 22 1,8 C 17,0 C 0,0 km/h (0 Bft)
18.09.2019 17:10 20,4 C 17,0 C 17,2 C 51 % 36 % 1017,1 hPa 0,0 l/m 0,0 km/h (0 Bft) N-NO 22 1,8 C 17,0 C 0,0 km/h (0 Bft)
18.09.2019 17:09 20,4 C 17,1 C 17,3 C 51 % 36 % 1017,1 hPa 0,0 l/m 0,0 km/h (0 Bft) N-NO 22 1,9 C 17,1 C 0,0 km/h (0 Bft)
18.09.2019 17:08 20,4 C 17,1 C 17,3 C 51 % 36 % 1017,1 hPa 0,0 l/m 0,0 km/h (0 Bft) N-NO 22 1,9 C 17,1 C 0,0 km/h (0 Bft)
18.09.2019 17:07 20,4 C 17,0 C 17,4 C 51 % 36 % 1017,1 hPa 0,0 l/m 0,0 km/h (0 Bft) N-NO 22 1,8 C 17,0 C 0,0 km/h (0 Bft)
18.09.2019 17:06 20,4 C 17,0 C 17,4 C 51 % 36 % 1017,1 hPa 0,0 l/m 0,0 km/h (0 Bft) N-NO 22 1,8 C 17,0 C 0,0 km/h (0 Bft)
18.09.2019 17:05 20,4 C 17,0 C 17,4 C 51 % 36 % 1017,0 hPa 0,0 l/m 0,0 km/h (0 Bft) N-NO 22 1,8 C 17,0 C 0,0 km/h (0 Bft)
18.09.2019 17:04 20,4 C 17,0 C 17,4 C 51 % 36 % 1017,0 hPa 0,0 l/m 0,0 km/h (0 Bft) N-NO 22 1,8 C 17,0 C 0,0 km/h (0 Bft)
18.09.2019 17:03 20,2 C 17,1 C 17,5 C 51 % 37 % 1017,0 hPa 0,0 l/m 0,0 km/h (0 Bft) N-NO 22 2,3 C 17,1 C 0,0 km/h (0 Bft)
18.09.2019 17:02 20,2 C 17,1 C 17,5 C 51 % 37 % 1017,0 hPa 0,0 l/m 0,0 km/h (0 Bft) N-NO 22 2,3 C 17,1 C 0,0 km/h (0 Bft)
18.09.2019 17:01 20,2 C 17,2 C 17,5 C 50 % 37 % 1017,0 hPa 0,0 l/m 0,0 km/h (0 Bft) N-NO 22 2,4 C 17,2 C 0,0 km/h (0 Bft)
18.09.2019 17:00 20,2 C 17,2 C 17,5 C 50 % 37 % 1017,0 hPa 0,0 l/m 0,0 km/h (0 Bft) N-NO 22 2,4 C 17,2 C 0,0 km/h (0 Bft)
18.09.2019 16:59 20,3 C 17,0 C 17,6 C 50 % 36 % 1017,0 hPa 0,0 l/m 0,0 km/h (0 Bft) N-NO 22 1,8 C 17,0 C 0,0 km/h (0 Bft)
18.09.2019 16:58 20,3 C 17,0 C 17,6 C 50 % 36 % 1017,0 hPa 0,0 l/m 0,0 km/h (0 Bft) N-NO 22 1,8 C 17,0 C 0,0 km/h (0 Bft)
18.09.2019 16:57 20,3 C 17,2 C 17,7 C 50 % 36 % 1017,0 hPa 0,0 l/m 0,0 km/h (0 Bft) N-NO 22 2,0 C 17,2 C 0,0 km/h (0 Bft)
18.09.2019 16:56 20,3 C 17,2 C 17,7 C 50 % 36 % 1017,0 hPa 0,0 l/m 0,0 km/h (0 Bft) N-NO 22 2,0 C 17,2 C 0,0 km/h (0 Bft)
18.09.2019 16:55 20,2 C 17,5 C 18,1 C 50 % 37 % 1017,0 hPa 0,0 l/m 0,0 km/h (0 Bft) N-NO 22 2,7 C 17,5 C 0,0 km/h (0 Bft)
18.09.2019 16:54 20,2 C 17,5 C 18,1 C 50 % 37 % 1017,0 hPa 0,0 l/m 0,0 km/h (0 Bft) N-NO 22 2,7 C 17,5 C 0,0 km/h (0 Bft)
18.09.2019 16:53 20,2 C 17,4 C 18,1 C 50 % 36 % 1017,0 hPa 0,0 l/m 0,0 km/h (0 Bft) N-NO 22 2,2 C 17,4 C 0,0 km/h (0 Bft)
18.09.2019 16:52 20,2 C 17,4 C 18,1 C 50 % 36 % 1017,0 hPa 0,0 l/m 0,0 km/h (0 Bft) N-NO 22 2,2 C 17,4 C 0,0 km/h (0 Bft)
18.09.2019 16:51 20,2 C 17,4 C 18,2 C 50 % 36 % 1017,0 hPa 0,0 l/m 0,0 km/h (0 Bft) N-NO 22 2,2 C 17,4 C 0,0 km/h (0 Bft)
18.09.2019 16:50 20,2 C 17,4 C 18,2 C 50 % 36 % 1017,0 hPa 0,0 l/m 0,0 km/h (0 Bft) N-NO 22 2,2 C 17,4 C 0,0 km/h (0 Bft)
18.09.2019 16:49 20,1 C 17,5 C 18,4 C 50 % 37 % 1017,0 hPa 0,0 l/m 0,0 km/h (0 Bft) N-NO 22 2,7 C 17,5 C 0,0 km/h (0 Bft)
18.09.2019 16:48 20,1 C 17,5 C 18,4 C 50 % 37 % 1017,0 hPa 0,0 l/m 0,0 km/h (0 Bft) N-NO 22 2,7 C 17,5 C 0,0 km/h (0 Bft)
18.09.2019 16:47 20,1 C 17,6 C 19,0 C 50 % 37 % 1017,0 hPa 0,0 l/m 0,0 km/h (0 Bft) N-NO 22 2,7 C 17,6 C 0,0 km/h (0 Bft)
18.09.2019 16:46 20,1 C 17,6 C 19,0 C 50 % 37 % 1017,0 hPa 0,0 l/m 0,0 km/h (0 Bft) N-NO 22 2,7 C 17,6 C 0,0 km/h (0 Bft)
18.09.2019 16:45 20,1 C 17,6 C 19,0 C 50 % 37 % 1016,8 hPa 0,0 l/m 0,0 km/h (0 Bft) N-NO 22 2,7 C 17,6 C 0,0 km/h (0 Bft)
18.09.2019 16:44 20,1 C 17,6 C 19,0 C 50 % 37 % 1016,8 hPa 0,0 l/m 0,0 km/h (0 Bft) N-NO 22 2,7 C 17,6 C 0,0 km/h (0 Bft)
18.09.2019 16:43 20,0 C 17,7 C 19,8 C 50 % 37 % 1016,8 hPa 0,0 l/m 0,0 km/h (0 Bft) N-NO 22 2,8 C 17,7 C 0,0 km/h (0 Bft)
18.09.2019 16:42 20,0 C 17,7 C 19,8 C 50 % 37 % 1016,8 hPa 0,0 l/m 0,0 km/h (0 Bft) N-NO 22 2,8 C 17,7 C 0,0 km/h (0 Bft)
18.09.2019 16:41 20,0 C 17,7 C 21,9 C 50 % 35 % 1016,8 hPa 0,0 l/m 0,0 km/h (0 Bft) N-NO 22 2,1 C 17,7 C 0,0 km/h (0 Bft)
18.09.2019 16:40 20,0 C 17,7 C 21,9 C 50 % 35 % 1016,8 hPa 0,0 l/m 0,0 km/h (0 Bft) N-NO 22 2,1 C 17,7 C 0,0 km/h (0 Bft)
18.09.2019 16:39 20,0 C 17,2 C 22,1 C 50 % 36 % 1016,8 hPa 0,0 l/m 0,0 km/h (0 Bft) N-NO 22 2,0 C 17,2 C 0,0 km/h (0 Bft)
18.09.2019 16:38 20,0 C 17,2 C 22,1 C 50 % 36 % 1016,8 hPa 0,0 l/m 0,0 km/h (0 Bft) N-NO 22 2,0 C 17,2 C 0,0 km/h (0 Bft)
18.09.2019 16:37 19,9 C 17,2 C 22,2 C 49 % 36 % 1016,8 hPa 0,0 l/m 0,0 km/h (0 Bft) N-NO 22 2,0 C 17,2 C 0,0 km/h (0 Bft)
18.09.2019 16:36 19,9 C 17,2 C 22,2 C 49 % 36 % 1016,8 hPa 0,0 l/m 0,0 km/h (0 Bft) N-NO 22 2,0 C 17,2 C 0,0 km/h (0 Bft)
18.09.2019 16:35 19,9 C 17,1 C 22,3 C 49 % 37 % 1016,8 hPa 0,0 l/m 0,0 km/h (0 Bft) N-NO 22 2,3 C 17,1 C 0,0 km/h (0 Bft)
18.09.2019 16:34 19,9 C 17,1 C 22,3 C 49 % 37 % 1016,8 hPa 0,0 l/m 0,0 km/h (0 Bft) N-NO 22 2,3 C 17,1 C 0,0 km/h (0 Bft)
18.09.2019 16:33 19,9 C 17,2 C 22,1 C 49 % 38 % 1016,8 hPa 0,0 l/m 0,0 km/h (0 Bft) N-NO 22 2,8 C 17,2 C 0,0 km/h (0 Bft)
18.09.2019 16:32 19,9 C 17,2 C 22,1 C 49 % 38 % 1016,8 hPa 0,0 l/m 0,0 km/h (0 Bft) N-NO 22 2,8 C 17,2 C 0,0 km/h (0 Bft)
18.09.2019 16:31 19,8 C 17,4 C 22,3 C 49 % 37 % 1016,8 hPa 0,0 l/m 0,0 km/h (0 Bft) N-NO 22 2,6 C 17,4 C 0,0 km/h (0 Bft)
18.09.2019 16:30 19,8 C 17,4 C 22,3 C 49 % 37 % 1016,8 hPa 0,0 l/m 0,0 km/h (0 Bft) N-NO 22 2,6 C 17,4 C 0,0 km/h (0 Bft)
18.09.2019 16:29 19,8 C 17,3 C 22,2 C 49 % 37 % 1016,8 hPa 0,0 l/m 0,0 km/h (0 Bft) N-NO 22 2,5 C 17,3 C 0,0 km/h (0 Bft)
18.09.2019 16:28 19,8 C 17,3 C 22,2 C 49 % 37 % 1016,8 hPa 0,0 l/m 0,0 km/h (0 Bft) N-NO 22 2,5 C 17,3 C 0,0 km/h (0 Bft)
18.09.2019 16:27 19,7 C 17,3 C 23,3 C 49 % 36 % 1016,8 hPa 0,0 l/m 0,0 km/h (0 Bft) N-NO 22 2,1 C 17,3 C 0,0 km/h (0 Bft)
18.09.2019 16:26 19,7 C 17,3 C 23,3 C 49 % 36 % 1016,8 hPa 0,0 l/m 0,0 km/h (0 Bft) N-NO 22 2,1 C 17,3 C 0,0 km/h (0 Bft)
18.09.2019 16:25 19,7 C 17,3 C 23,3 C 49 % 36 % 1016,6 hPa 0,0 l/m 0,0 km/h (0 Bft) N-NO 22 2,1 C 17,3 C 0,0 km/h (0 Bft)
18.09.2019 16:24 19,7 C 17,3 C 23,3 C 49 % 36 % 1016,6 hPa 0,0 l/m 0,0 km/h (0 Bft) N-NO 22 2,1 C 17,3 C 0,0 km/h (0 Bft)
18.09.2019 16:23 19,8 C 17,1 C 22,7 C 48 % 36 % 1016,6 hPa 0,0 l/m 0,0 km/h (0 Bft) N-NO 22 1,9 C 17,1 C 0,0 km/h (0 Bft)
18.09.2019 16:22 19,8 C 17,1 C 22,7 C 48 % 36 % 1016,6 hPa 0,0 l/m 0,0 km/h (0 Bft) N-NO 22 1,9 C 17,1 C 0,0 km/h (0 Bft)
18.09.2019 16:21 19,7 C 17,3 C 22,2 C 48 % 35 % 1016,6 hPa 0,0 l/m 0,0 km/h (0 Bft) N-NO 22 1,7 C 17,3 C 0,0 km/h (0 Bft)
18.09.2019 16:20 19,7 C 17,3 C 22,2 C 48 % 35 % 1016,6 hPa 0,0 l/m 0,0 km/h (0 Bft) N-NO 22 1,7 C 17,3 C 0,0 km/h (0 Bft)
18.09.2019 16:19 19,7 C 17,5 C 22,5 C 48 % 35 % 1016,6 hPa 0,0 l/m 0,0 km/h (0 Bft) N-NO 22 1,9 C 17,5 C 0,0 km/h (0 Bft)
18.09.2019 16:18 19,7 C 17,5 C 22,5 C 48 % 35 % 1016,6 hPa 0,0 l/m 0,0 km/h (0 Bft) N-NO 22 1,9 C 17,5 C 0,0 km/h (0 Bft)
18.09.2019 16:17 19,7 C 17,7 C 24,2 C 48 % 35 % 1016,6 hPa 0,0 l/m 0,0 km/h (0 Bft) N-NO 22 2,1 C 17,7 C 0,0 km/h (0 Bft)
18.09.2019 16:16 19,7 C 17,7 C 24,2 C 48 % 35 % 1016,6 hPa 0,0 l/m 0,0 km/h (0 Bft) N-NO 22 2,1 C 17,7 C 0,0 km/h (0 Bft)
18.09.2019 16:15 19,6 C 17,7 C 23,8 C 48 % 36 % 1016,6 hPa 0,0 l/m 0,0 km/h (0 Bft) N-NO 22 2,4 C 17,7 C 0,0 km/h (0 Bft)
18.09.2019 16:14 19,6 C 17,7 C 23,8 C 48 % 36 % 1016,6 hPa 0,0 l/m 0,0 km/h (0 Bft) N-NO 22 2,4 C 17,7 C 0,0 km/h (0 Bft)
18.09.2019 16:13 19,6 C 17,9 C 23,7 C 48 % 37 % 1016,6 hPa 0,0 l/m 0,0 km/h (0 Bft) N-NO 22 3,0 C 17,9 C 0,0 km/h (0 Bft)
18.09.2019 16:12 19,6 C 17,9 C 23,7 C 48 % 37 % 1016,6 hPa 0,0 l/m 0,0 km/h (0 Bft) N-NO 22 3,0 C 17,9 C 0,0 km/h (0 Bft)
18.09.2019 16:11 19,6 C 17,7 C 23,2 C 48 % 37 % 1016,6 hPa 0,0 l/m 0,0 km/h (0 Bft) N-NO 22 2,8 C 17,7 C 0,0 km/h (0 Bft)
18.09.2019 16:10 19,6 C 17,7 C 23,2 C 48 % 37 % 1016,6 hPa 0,0 l/m 0,0 km/h (0 Bft) N-NO 22 2,8 C 17,7 C 0,0 km/h (0 Bft)
18.09.2019 16:09 19,6 C 17,6 C 23,6 C 47 % 35 % 1016,6 hPa 0,0 l/m 0,0 km/h (0 Bft) N-NO 22 2,0 C 17,6 C 0,0 km/h (0 Bft)
18.09.2019 16:08 19,6 C 17,6 C 23,6 C 47 % 35 % 1016,6 hPa 0,0 l/m 0,0 km/h (0 Bft) N-NO 22 2,0 C 17,6 C 0,0 km/h (0 Bft)
18.09.2019 16:07 19,5 C 17,4 C 22,2 C 47 % 35 % 1016,6 hPa 0,0 l/m 0,0 km/h (0 Bft) N-NO 22 1,8 C 17,4 C 0,0 km/h (0 Bft)
18.09.2019 16:06 19,5 C 17,4 C 22,2 C 47 % 35 % 1016,6 hPa 0,0 l/m 0,0 km/h (0 Bft) N-NO 22 1,8 C 17,4 C 0,0 km/h (0 Bft)
18.09.2019 16:05 19,5 C 17,4 C 22,2 C 47 % 35 % 1016,6 hPa 0,0 l/m 0,0 km/h (0 Bft) N-NO 22 1,8 C 17,4 C 0,0 km/h (0 Bft)
18.09.2019 16:04 19,5 C 17,4 C 22,2 C 47 % 35 % 1016,6 hPa 0,0 l/m 0,0 km/h (0 Bft) N-NO 22 1,8 C 17,4 C 0,0 km/h (0 Bft)
18.09.2019 16:03 19,5 C 17,2 C 21,7 C 47 % 35 % 1016,6 hPa 0,0 l/m 0,0 km/h (0 Bft) N-NO 22 1,6 C 17,2 C 0,0 km/h (0 Bft)
18.09.2019 16:02 19,5 C 17,2 C 21,7 C 47 % 35 % 1016,6 hPa 0,0 l/m 0,0 km/h (0 Bft) N-NO 22 1,6 C 17,2 C 0,0 km/h (0 Bft)
18.09.2019 16:01 19,5 C 17,1 C 21,4 C 46 % 35 % 1016,6 hPa 0,0 l/m 0,0 km/h (0 Bft) N-NO 22 1,5 C 17,1 C 0,0 km/h (0 Bft)
18.09.2019 16:00 19,5 C 17,1 C 21,4 C 46 % 35 % 1016,6 hPa 0,0 l/m 0,0 km/h (0 Bft) N-NO 22 1,5 C 17,1 C 0,0 km/h (0 Bft)
18.09.2019 15:59 19,5 C 17,1 C 21,7 C 46 % 34 % 1016,6 hPa 0,0 l/m 0,0 km/h (0 Bft) N-NO 22 1,1 C 17,1 C 0,0 km/h (0 Bft)
18.09.2019 15:58 19,5 C 17,1 C 21,7 C 46 % 34 % 1016,6 hPa 0,0 l/m 0,0 km/h (0 Bft) N-NO 22 1,1 C 17,1 C 0,0 km/h (0 Bft)
18.09.2019 15:57 19,4 C 17,3 C 21,6 C 46 % 35 % 1016,6 hPa 0,0 l/m 0,0 km/h (0 Bft) N-NO 22 1,7 C 17,3 C 0,0 km/h (0 Bft)
18.09.2019 15:56 19,4 C 17,3 C 21,6 C 46 % 35 % 1016,6 hPa 0,0 l/m 0,0 km/h (0 Bft) N-NO 22 1,7 C 17,3 C 0,0 km/h (0 Bft)
18.09.2019 15:55 19,4 C 17,3 C 22,2 C 46 % 36 % 1016,6 hPa 0,0 l/m 0,0 km/h (0 Bft) N-NO 22 2,1 C 17,3 C 0,0 km/h (0 Bft)
18.09.2019 15:54 19,4 C 17,3 C 22,2 C 46 % 36 % 1016,6 hPa 0,0 l/m 0,0 km/h (0 Bft) N-NO 22 2,1 C 17,3 C 0,0 km/h (0 Bft)
18.09.2019 15:53 19,4 C 17,5 C 22,4 C 45 % 36 % 1016,6 hPa 0,0 l/m 0,0 km/h (0 Bft) N-NO 22 2,3 C 17,5 C 0,0 km/h (0 Bft)
18.09.2019 15:52 19,4 C 17,5 C 22,4 C 45 % 36 % 1016,6 hPa 0,0 l/m 0,0 km/h (0 Bft) N-NO 22 2,3 C 17,5 C 0,0 km/h (0 Bft)
18.09.2019 15:51 19,2 C 17,4 C 21,8 C 45 % 36 % 1016,6 hPa 0,0 l/m 0,0 km/h (0 Bft) N-NO 22 2,2 C 17,4 C 0,0 km/h (0 Bft)
18.09.2019 15:50 19,2 C 17,4 C 21,8 C 45 % 36 % 1016,6 hPa 0,0 l/m 0,0 km/h (0 Bft) N-NO 22 2,2 C 17,4 C 0,0 km/h (0 Bft)
18.09.2019 15:49 19,3 C 17,4 C 21,6 C 44 % 36 % 1016,6 hPa 0,0 l/m 0,0 km/h (0 Bft) N-NO 22 2,2 C 17,4 C 0,0 km/h (0 Bft)
18.09.2019 15:48 19,3 C 17,4 C 21,6 C 44 % 36 % 1016,6 hPa 0,0 l/m 0,0 km/h (0 Bft) N-NO 22 2,2 C 17,4 C 0,0 km/h (0 Bft)
18.09.2019 15:47 19,3 C 17,5 C 21,9 C 44 % 35 % 1016,6 hPa 0,0 l/m 0,0 km/h (0 Bft) N-NO 22 1,9 C 17,5 C 0,0 km/h (0 Bft)
18.09.2019 15:46 19,3 C 17,5 C 21,9 C 44 % 35 % 1016,6 hPa 0,0 l/m 0,0 km/h (0 Bft) N-NO 22 1,9 C 17,5 C 0,0 km/h (0 Bft)
18.09.2019 15:45 19,3 C 17,5 C 21,9 C 44 % 35 % 1016,9 hPa 0,0 l/m 0,0 km/h (0 Bft) N-NO 22 1,9 C 17,5 C 0,0 km/h (0 Bft)
18.09.2019 15:44 19,3 C 17,5 C 21,9 C 44 % 35 % 1016,9 hPa 0,0 l/m 0,0 km/h (0 Bft) N-NO 22 1,9 C 17,5 C 0,0 km/h (0 Bft)
18.09.2019 15:43 19,3 C 17,5 C 21,5 C 44 % 35 % 1016,9 hPa 0,0 l/m 0,0 km/h (0 Bft) N-NO 22 1,9 C 17,5 C 0,0 km/h (0 Bft)
18.09.2019 15:42 19,3 C 17,5 C 21,5 C 44 % 35 % 1016,9 hPa 0,0 l/m 0,0 km/h (0 Bft) N-NO 22 1,9 C 17,5 C 0,0 km/h (0 Bft)
18.09.2019 15:41 19,2 C 17,4 C 20,7 C 44 % 34 % 1016,9 hPa 0,0 l/m 0,0 km/h (0 Bft) N-NO 22 1,4 C 17,4 C 0,0 km/h (0 Bft)
18.09.2019 15:40 19,2 C 17,4 C 20,7 C 44 % 34 % 1016,9 hPa 0,0 l/m 0,0 km/h (0 Bft) N-NO 22 1,4 C 17,4 C 0,0 km/h (0 Bft)
18.09.2019 15:39 19,2 C 17,3 C 21,1 C 45 % 34 % 1016,9 hPa 0,0 l/m 0,0 km/h (0 Bft) N-NO 22 1,3 C 17,3 C 0,0 km/h (0 Bft)
18.09.2019 15:38 19,2 C 17,3 C 21,1 C 45 % 34 % 1016,9 hPa 0,0 l/m 0,0 km/h (0 Bft) N-NO 22 1,3 C 17,3 C 0,0 km/h (0 Bft)
18.09.2019 15:37 19,2 C 17,3 C 21,8 C 46 % 34 % 1016,9 hPa 0,0 l/m 0,0 km/h (0 Bft) N-NO 22 1,3 C 17,3 C 0,0 km/h (0 Bft)
18.09.2019 15:36 19,2 C 17,3 C 21,8 C 46 % 34 % 1016,9 hPa 0,0 l/m 0,0 km/h (0 Bft) N-NO 22 1,3 C 17,3 C 0,0 km/h (0 Bft)
18.09.2019 15:35 19,2 C 17,2 C 21,4 C 49 % 34 % 1016,9 hPa 0,0 l/m 0,0 km/h (0 Bft) N-NO 22 1,2 C 17,2 C 0,0 km/h (0 Bft)
18.09.2019 15:34 19,2 C 17,2 C 21,4 C 49 % 34 % 1016,9 hPa 0,0 l/m 0,0 km/h (0 Bft) N-NO 22 1,2 C 17,2 C 0,0 km/h (0 Bft)
18.09.2019 15:33 19,2 C 17,5 C 22,2 C 49 % 35 % 1016,9 hPa 0,0 l/m 0,0 km/h (0 Bft) N-NO 22 1,9 C 17,5 C 0,0 km/h (0 Bft)
18.09.2019 15:32 19,2 C 17,5 C 22,2 C 49 % 35 % 1016,9 hPa 0,0 l/m 0,0 km/h (0 Bft) N-NO 22 1,9 C 17,5 C 0,0 km/h (0 Bft)
18.09.2019 15:31 19,2 C 17,3 C 21,4 C 49 % 34 % 1016,9 hPa 0,0 l/m 0,0 km/h (0 Bft) N-NO 22 1,3 C 17,3 C 0,0 km/h (0 Bft)
18.09.2019 15:30 19,2 C 17,3 C 21,4 C 49 % 34 % 1016,9 hPa 0,0 l/m 0,0 km/h (0 Bft) N-NO 22 1,3 C 17,3 C 0,0 km/h (0 Bft)
18.09.2019 15:29 19,2 C 17,3 C 21,3 C 49 % 34 % 1016,9 hPa 0,0 l/m 0,0 km/h (0 Bft) N-NO 22 1,3 C 17,3 C 0,0 km/h (0 Bft)
18.09.2019 15:28 19,2 C 17,3 C 21,3 C 49 % 34 % 1016,9 hPa 0,0 l/m 0,0 km/h (0 Bft) N-NO 22 1,3 C 17,3 C 0,0 km/h (0 Bft)
18.09.2019 15:27 19,2 C 17,3 C 20,6 C 49 % 34 % 1016,9 hPa 0,0 l/m 0,0 km/h (0 Bft) N-NO 22 1,3 C 17,3 C 0,0 km/h (0 Bft)
18.09.2019 15:26 19,2 C 17,3 C 20,6 C 49 % 34 % 1016,9 hPa 0,0 l/m 0,0 km/h (0 Bft) N-NO 22 1,3 C 17,3 C 0,0 km/h (0 Bft)
18.09.2019 15:25 19,2 C 17,3 C 20,6 C 49 % 34 % 1016,7 hPa 0,0 l/m 0,0 km/h (0 Bft) N-NO 22 1,3 C 17,3 C 0,0 km/h (0 Bft)
18.09.2019 15:24 19,2 C 17,3 C 20,6 C 49 % 34 % 1016,7 hPa 0,0 l/m 0,0 km/h (0 Bft) N-NO 22 1,3 C 17,3 C 0,0 km/h (0 Bft)
18.09.2019 15:23 19,2 C 17,5 C 22,5 C 49 % 35 % 1016,7 hPa 0,0 l/m 0,0 km/h (0 Bft) N-NO 22 1,9 C 17,5 C 0,0 km/h (0 Bft)
18.09.2019 15:22 19,2 C 17,5 C 22,5 C 49 % 35 % 1016,7 hPa 0,0 l/m 0,0 km/h (0 Bft) N-NO 22 1,9 C 17,5 C 0,0 km/h (0 Bft)
18.09.2019 15:21 19,2 C 17,4 C 23,2 C 49 % 36 % 1016,7 hPa 0,0 l/m 0,0 km/h (0 Bft) N-NO 22 2,2 C 17,4 C 0,0 km/h (0 Bft)
18.09.2019 15:20 19,2 C 17,4 C 23,2 C 49 % 36 % 1016,7 hPa 0,0 l/m 0,0 km/h (0 Bft) N-NO 22 2,2 C 17,4 C 0,0 km/h (0 Bft)
18.09.2019 15:19 19,1 C 16,9 C 22,4 C 49 % 34 % 1016,7 hPa 0,0 l/m 0,0 km/h (0 Bft) N-NO 22 0,9 C 16,9 C 0,0 km/h (0 Bft)
18.09.2019 15:18 19,1 C 16,9 C 22,4 C 49 % 34 % 1016,7 hPa 0,0 l/m 0,0 km/h (0 Bft) N-NO 22 0,9 C 16,9 C 0,0 km/h (0 Bft)
18.09.2019 15:17 19,1 C 17,2 C 22,4 C 50 % 34 % 1016,7 hPa 0,0 l/m 0,0 km/h (0 Bft) N-NO 22 1,2 C 17,2 C 0,0 km/h (0 Bft)
18.09.2019 15:16 19,1 C 17,2 C 22,4 C 50 % 34 % 1016,7 hPa 0,0 l/m 0,0 km/h (0 Bft) N-NO 22 1,2 C 17,2 C 0,0 km/h (0 Bft)
18.09.2019 15:15 19,2 C 17,2 C 22,8 C 50 % 34 % 1016,7 hPa 0,0 l/m 0,0 km/h (0 Bft) N-NO 22 1,2 C 17,2 C 0,0 km/h (0 Bft)
18.09.2019 15:14 19,2 C 17,2 C 22,8 C 50 % 34 % 1016,7 hPa 0,0 l/m 0,0 km/h (0 Bft) N-NO 22 1,2 C 17,2 C 0,0 km/h (0 Bft)
18.09.2019 15:13 19,2 C 16,9 C 21,9 C 50 % 36 % 1016,7 hPa 0,0 l/m 0,0 km/h (0 Bft) N-NO 22 1,7 C 16,9 C 0,0 km/h (0 Bft)
18.09.2019 15:12 19,2 C 16,9 C 21,9 C 50 % 36 % 1016,7 hPa 0,0 l/m 0,0 km/h (0 Bft) N-NO 22 1,7 C 16,9 C 0,0 km/h (0 Bft)
18.09.2019 15:11 19,2 C 17,2 C 22,4 C 50 % 36 % 1016,7 hPa 0,0 l/m 0,0 km/h (0 Bft) N-NO 22 2,0 C 17,2 C 0,0 km/h (0 Bft)
18.09.2019 15:10 19,2 C 17,2 C 22,4 C 50 % 36 % 1016,7 hPa 0,0 l/m 0,0 km/h (0 Bft) N-NO 22 2,0 C 17,2 C 0,0 km/h (0 Bft)
18.09.2019 15:09 19,2 C 16,8 C 21,1 C 50 % 35 % 1016,7 hPa 0,0 l/m 0,0 km/h (0 Bft) N-NO 22 1,3 C 16,8 C 0,0 km/h (0 Bft)
18.09.2019 15:08 19,2 C 16,8 C 21,1 C 50 % 35 % 1016,7 hPa 0,0 l/m 0,0 km/h (0 Bft) N-NO 22 1,3 C 16,8 C 0,0 km/h (0 Bft)
18.09.2019 15:07 19,2 C 17,0 C 22,5 C 50 % 36 % 1016,7 hPa 0,0 l/m 0,0 km/h (0 Bft) N-NO 22 1,8 C 17,0 C 0,0 km/h (0 Bft)
18.09.2019 15:06 19,2 C 17,0 C 22,5 C 50 % 36 % 1016,7 hPa 0,0 l/m 0,0 km/h (0 Bft) N-NO 22 1,8 C 17,0 C 0,0 km/h (0 Bft)
18.09.2019 15:05 19,2 C 17,0 C 22,5 C 50 % 36 % 1016,8 hPa 0,0 l/m 0,0 km/h (0 Bft) N-NO 22 1,8 C 17,0 C 0,0 km/h (0 Bft)
18.09.2019 15:04 19,2 C 17,0 C 22,5 C 50 % 36 % 1016,8 hPa 0,0 l/m 0,0 km/h (0 Bft) N-NO 22 1,8 C 17,0 C 0,0 km/h (0 Bft)
18.09.2019 15:03 19,1 C 17,3 C 22,2 C 50 % 36 % 1016,8 hPa 0,0 l/m 0,0 km/h (0 Bft) N-NO 22 2,1 C 17,3 C 0,0 km/h (0 Bft)
18.09.2019 15:02 19,1 C 17,3 C 22,2 C 50 % 36 % 1016,8 hPa 0,0 l/m 0,0 km/h (0 Bft) N-NO 22 2,1 C 17,3 C 0,0 km/h (0 Bft)
18.09.2019 15:01 19,2 C 17,4 C 23,6 C 50 % 38 % 1016,8 hPa 0,0 l/m 0,0 km/h (0 Bft) N-NO 22 2,9 C 17,4 C 0,0 km/h (0 Bft)
18.09.2019 15:00 19,2 C 17,4 C 23,6 C 50 % 38 % 1016,8 hPa 0,0 l/m 0,0 km/h (0 Bft) N-NO 22 2,9 C 17,4 C 0,0 km/h (0 Bft)
18.09.2019 14:59 19,2 C 17,3 C 22,9 C 50 % 40 % 1016,8 hPa 0,0 l/m 0,0 km/h (0 Bft) N-NO 22 3,6 C 17,3 C 0,0 km/h (0 Bft)
18.09.2019 14:58 19,2 C 17,3 C 22,9 C 50 % 40 % 1016,8 hPa 0,0 l/m 0,0 km/h (0 Bft) N-NO 22 3,6 C 17,3 C 0,0 km/h (0 Bft)
18.09.2019 14:57 19,1 C 17,2 C 22,1 C 50 % 40 % 1016,8 hPa 0,0 l/m 0,0 km/h (0 Bft) N-NO 22 3,5 C 17,2 C 0,0 km/h (0 Bft)
18.09.2019 14:56 19,1 C 17,2 C 22,1 C 50 % 40 % 1016,8 hPa 0,0 l/m 0,0 km/h (0 Bft) N-NO 22 3,5 C 17,2 C 0,0 km/h (0 Bft)
18.09.2019 14:55 19,2 C 17,0 C 21,4 C 50 % 37 % 1016,8 hPa 0,0 l/m 0,0 km/h (0 Bft) N-NO 22 2,2 C 17,0 C 0,0 km/h (0 Bft)
18.09.2019 14:54 19,2 C 17,0 C 21,4 C 50 % 37 % 1016,8 hPa 0,0 l/m 0,0 km/h (0 Bft) N-NO 22 2,2 C 17,0 C 0,0 km/h (0 Bft)
18.09.2019 14:53 19,2 C 17,2 C 22,0 C 50 % 37 % 1016,8 hPa 0,0 l/m 0,0 km/h (0 Bft) N-NO 22 2,4 C 17,2 C 0,0 km/h (0 Bft)
18.09.2019 14:52 19,2 C 17,2 C 22,0 C 50 % 37 % 1016,8 hPa 0,0 l/m 0,0 km/h (0 Bft) N-NO 22 2,4 C 17,2 C 0,0 km/h (0 Bft)
18.09.2019 14:51 19,2 C 17,0 C 22,2 C 51 % 37 % 1016,8 hPa 0,0 l/m 0,0 km/h (0 Bft) N-NO 22 2,2 C 17,0 C 0,0 km/h (0 Bft)
18.09.2019 14:50 19,2 C 17,0 C 22,2 C 51 % 37 % 1016,8 hPa 0,0 l/m 0,0 km/h (0 Bft) N-NO 22 2,2 C 17,0 C 0,0 km/h (0 Bft)
18.09.2019 14:49 19,1 C 17,1 C 21,0 C 51 % 37 % 1016,8 hPa 0,0 l/m 0,0 km/h (0 Bft) N-NO 22 2,3 C 17,1 C 0,0 km/h (0 Bft)
18.09.2019 14:48 19,1 C 17,1 C 21,0 C 51 % 37 % 1016,8 hPa 0,0 l/m 0,0 km/h (0 Bft) N-NO 22 2,3 C 17,1 C 0,0 km/h (0 Bft)
18.09.2019 14:47 19,2 C 17,3 C 21,8 C 51 % 41 % 1016,8 hPa 0,0 l/m 0,0 km/h (0 Bft) N-NO 22 3,9 C 17,3 C 0,0 km/h (0 Bft)
18.09.2019 14:46 19,2 C 17,3 C 21,8 C 51 % 41 % 1016,8 hPa 0,0 l/m 0,0 km/h (0 Bft) N-NO 22 3,9 C 17,3 C 0,0 km/h (0 Bft)
18.09.2019 14:45 19,2 C 17,3 C 21,8 C 51 % 41 % 1017,1 hPa 0,0 l/m 0,0 km/h (0 Bft) N-NO 22 3,9 C 17,3 C 0,0 km/h (0 Bft)
18.09.2019 14:44 19,2 C 17,3 C 21,8 C 51 % 41 % 1017,1 hPa 0,0 l/m 0,0 km/h (0 Bft) N-NO 22 3,9 C 17,3 C 0,0 km/h (0 Bft)
18.09.2019 14:43 19,2 C 17,0 C 21,3 C 51 % 40 % 1017,1 hPa 0,0 l/m 0,0 km/h (0 Bft) N-NO 22 3,3 C 17,0 C 0,0 km/h (0 Bft)
18.09.2019 14:42 19,2 C 17,0 C 21,3 C 51 % 40 % 1017,1 hPa 0,0 l/m 0,0 km/h (0 Bft) N-NO 22 3,3 C 17,0 C 0,0 km/h (0 Bft)
18.09.2019 14:41 19,2 C 16,9 C 22,2 C 51 % 40 % 1017,1 hPa 0,0 l/m 0,0 km/h (0 Bft) N-NO 22 3,2 C 16,9 C 0,0 km/h (0 Bft)
18.09.2019 14:40 19,2 C 16,9 C 22,2 C 51 % 40 % 1017,1 hPa 0,0 l/m 0,0 km/h (0 Bft) N-NO 22 3,2 C 16,9 C 0,0 km/h (0 Bft)
18.09.2019 14:39 19,2 C 16,6 C 21,2 C 51 % 37 % 1017,1 hPa 0,0 l/m 0,0 km/h (0 Bft) N-NO 22 1,9 C 16,6 C 0,0 km/h (0 Bft)
18.09.2019 14:38 19,2 C 16,6 C 21,2 C 51 % 37 % 1017,1 hPa 0,0 l/m 0,0 km/h (0 Bft) N-NO 22 1,9 C 16,6 C 0,0 km/h (0 Bft)
18.09.2019 14:37 19,2 C 16,8 C 21,4 C 51 % 38 % 1017,1 hPa 0,0 l/m 0,0 km/h (0 Bft) N-NO 22 2,4 C 16,8 C 0,0 km/h (0 Bft)
18.09.2019 14:36 19,2 C 16,8 C 21,4 C 51 % 38 % 1017,1 hPa 0,0 l/m 0,0 km/h (0 Bft) N-NO 22 2,4 C 16,8 C 0,0 km/h (0 Bft)
18.09.2019 14:35 19,1 C 17,1 C 23,4 C 51 % 39 % 1017,1 hPa 0,0 l/m 0,0 km/h (0 Bft) N-NO 22 3,0 C 17,1 C 0,0 km/h (0 Bft)
18.09.2019 14:34 19,1 C 17,1 C 23,4 C 51 % 39 % 1017,1 hPa 0,0 l/m 0,0 km/h (0 Bft) N-NO 22 3,0 C 17,1 C 0,0 km/h (0 Bft)
18.09.2019 14:33 19,1 C 16,8 C 22,9 C 51 % 40 % 1017,1 hPa 0,0 l/m 0,0 km/h (0 Bft) N-NO 22 3,1 C 16,8 C 0,0 km/h (0 Bft)
18.09.2019 14:32 19,1 C 16,8 C 22,9 C 51 % 40 % 1017,1 hPa 0,0 l/m 0,0 km/h (0 Bft) N-NO 22 3,1 C 16,8 C 0,0 km/h (0 Bft)
18.09.2019 14:31 19,2 C 16,5 C 21,9 C 51 % 39 % 1017,1 hPa 0,0 l/m 0,0 km/h (0 Bft) N-NO 22 2,5 C 16,5 C 0,0 km/h (0 Bft)
18.09.2019 14:30 19,2 C 16,5 C 21,9 C 51 % 39 % 1017,1 hPa 0,0 l/m 0,0 km/h (0 Bft) N-NO 22 2,5 C 16,5 C 0,0 km/h (0 Bft)
18.09.2019 14:29 19,2 C 16,5 C 21,4 C 51 % 40 % 1017,1 hPa 0,0 l/m 0,0 km/h (0 Bft) N-NO 22 2,9 C 16,5 C 0,0 km/h (0 Bft)
18.09.2019 14:28 19,2 C 16,5 C 21,4 C 51 % 40 % 1017,1 hPa 0,0 l/m 0,0 km/h (0 Bft) N-NO 22 2,9 C 16,5 C 0,0 km/h (0 Bft)
18.09.2019 14:27 19,2 C 16,8 C 21,2 C 51 % 39 % 1017,1 hPa 0,0 l/m 0,0 km/h (0 Bft) N-NO 22 2,8 C 16,8 C 0,0 km/h (0 Bft)
18.09.2019 14:26 19,2 C 16,8 C 21,2 C 51 % 39 % 1017,1 hPa 0,0 l/m 0,0 km/h (0 Bft) N-NO 22 2,8 C 16,8 C 0,0 km/h (0 Bft)
18.09.2019 14:25 19,2 C 16,8 C 21,2 C 51 % 39 % 1017,3 hPa 0,0 l/m 0,0 km/h (0 Bft) N-NO 22 2,8 C 16,8 C 0,0 km/h (0 Bft)
18.09.2019 14:24 19,2 C 16,8 C 21,2 C 51 % 39 % 1017,3 hPa 0,0 l/m 0,0 km/h (0 Bft) N-NO 22 2,8 C 16,8 C 0,0 km/h (0 Bft)
18.09.2019 14:23 19,2 C 16,8 C 22,2 C 51 % 39 % 1017,3 hPa 0,0 l/m 0,0 km/h (0 Bft) N-NO 22 2,8 C 16,8 C 0,0 km/h (0 Bft)
18.09.2019 14:22 19,2 C 16,8 C 22,2 C 51 % 39 % 1017,3 hPa 0,0 l/m 0,0 km/h (0 Bft) N-NO 22 2,8 C 16,8 C 0,0 km/h (0 Bft)
18.09.2019 14:21 19,2 C 16,7 C 21,6 C 51 % 38 % 1017,3 hPa 0,0 l/m 0,0 km/h (0 Bft) N-NO 22 2,3 C 16,7 C 0,0 km/h (0 Bft)
18.09.2019 14:20 19,2 C 16,7 C 21,6 C 51 % 38 % 1017,3 hPa 0,0 l/m 0,0 km/h (0 Bft) N-NO 22 2,3 C 16,7 C 0,0 km/h (0 Bft)
18.09.2019 14:19 19,2 C 16,5 C 21,0 C 51 % 39 % 1017,3 hPa 0,0 l/m 0,0 km/h (0 Bft) N-NO 22 2,5 C 16,5 C 0,0 km/h (0 Bft)
18.09.2019 14:18 19,2 C 16,5 C 21,0 C 51 % 39 % 1017,3 hPa 0,0 l/m 0,0 km/h (0 Bft) N-NO 22 2,5 C 16,5 C 0,0 km/h (0 Bft)
18.09.2019 14:17 19,2 C 16,9 C 21,6 C 51 % 40 % 1017,3 hPa 0,0 l/m 0,0 km/h (0 Bft) N-NO 22 3,2 C 16,9 C 0,0 km/h (0 Bft)
18.09.2019 14:16 19,2 C 16,9 C 21,6 C 51 % 40 % 1017,3 hPa 0,0 l/m 0,0 km/h (0 Bft) N-NO 22 3,2 C 16,9 C 0,0 km/h (0 Bft)
18.09.2019 14:15 19,2 C 17,3 C 21,8 C 51 % 40 % 1017,3 hPa 0,0 l/m 0,0 km/h (0 Bft) N-NO 22 3,6 C 17,3 C 0,0 km/h (0 Bft)
18.09.2019 14:14 19,2 C 17,3 C 21,8 C 51 % 40 % 1017,3 hPa 0,0 l/m 0,0 km/h (0 Bft) N-NO 22 3,6 C 17,3 C 0,0 km/h (0 Bft)
18.09.2019 14:13 19,2 C 17,2 C 21,8 C 51 % 41 % 1017,3 hPa 0,0 l/m 0,0 km/h (0 Bft) N-NO 22 3,8 C 17,2 C 0,0 km/h (0 Bft)
18.09.2019 14:12 19,2 C 17,2 C 21,8 C 51 % 41 % 1017,3 hPa 0,0 l/m 0,0 km/h (0 Bft) N-NO 22 3,8 C 17,2 C 0,0 km/h (0 Bft)
18.09.2019 14:11 19,2 C 16,9 C 20,9 C 51 % 43 % 1017,3 hPa 0,0 l/m 0,0 km/h (0 Bft) N-NO 22 4,2 C 16,9 C 0,0 km/h (0 Bft)
18.09.2019 14:10 19,2 C 16,9 C 20,9 C 51 % 43 % 1017,3 hPa 0,0 l/m 0,0 km/h (0 Bft) N-NO 22 4,2 C 16,9 C 0,0 km/h (0 Bft)
18.09.2019 14:09 19,2 C 17,3 C 21,2 C 51 % 43 % 1017,3 hPa 0,0 l/m 0,0 km/h (0 Bft) N-NO 22 4,6 C 17,3 C 0,0 km/h (0 Bft)
18.09.2019 14:08 19,2 C 17,3 C 21,2 C 51 % 43 % 1017,3 hPa 0,0 l/m 0,0 km/h (0 Bft) N-NO 22 4,6 C 17,3 C 0,0 km/h (0 Bft)
18.09.2019 14:07 19,2 C 16,2 C 20,6 C 51 % 42 % 1017,3 hPa 0,0 l/m 0,0 km/h (0 Bft) N-NO 22 3,3 C 16,2 C 0,0 km/h (0 Bft)
18.09.2019 14:06 19,2 C 16,2 C 20,6 C 51 % 42 % 1017,3 hPa 0,0 l/m 0,0 km/h (0 Bft) N-NO 22 3,3 C 16,2 C 0,0 km/h (0 Bft)
18.09.2019 14:05 19,2 C 16,2 C 20,6 C 51 % 42 % 1017,3 hPa 0,0 l/m 0,0 km/h (0 Bft) N-NO 22 3,3 C 16,2 C 0,0 km/h (0 Bft)
18.09.2019 14:04 19,2 C 16,2 C 20,6 C 51 % 42 % 1017,3 hPa 0,0 l/m 0,0 km/h (0 Bft) N-NO 22 3,3 C 16,2 C 0,0 km/h (0 Bft)
18.09.2019 14:03 19,2 C 16,3 C 20,1 C 51 % 42 % 1017,3 hPa 0,0 l/m 0,0 km/h (0 Bft) N-NO 22 3,4 C 16,3 C 0,0 km/h (0 Bft)
18.09.2019 14:02 19,2 C 16,3 C 20,1 C 51 % 42 % 1017,3 hPa 0,0 l/m 0,0 km/h (0 Bft) N-NO 22 3,4 C 16,3 C 0,0 km/h (0 Bft)
18.09.2019 14:01 19,2 C 16,3 C 20,1 C 51 % 42 % 1017,3 hPa 0,0 l/m 0,0 km/h (0 Bft) N-NO 22 3,4 C 16,3 C 0,0 km/h (0 Bft)
18.09.2019 13:58 19,2 C 16,5 C 20,7 C 51 % 43 % 1017,3 hPa 0,0 l/m 0,0 km/h (0 Bft) N-NO 22 3,9 C 16,5 C 0,0 km/h (0 Bft)
18.09.2019 13:55 19,2 C 16,1 C 19,9 C 51 % 43 % 1017,3 hPa 0,0 l/m 0,0 km/h (0 Bft) N-NO 22 3,5 C 16,1 C 0,0 km/h (0 Bft)
18.09.2019 13:54 19,2 C 16,1 C 19,9 C 51 % 43 % 1017,3 hPa 0,0 l/m 0,0 km/h (0 Bft) N-NO 22 3,5 C 16,1 C 0,0 km/h (0 Bft)
18.09.2019 13:53 19,2 C 16,1 C 20,0 C 51 % 41 % 1017,3 hPa 0,0 l/m 0,0 km/h (0 Bft) N-NO 22 2,8 C 16,1 C 0,0 km/h (0 Bft)
18.09.2019 13:52 19,2 C 16,1 C 20,0 C 51 % 41 % 1017,3 hPa 0,0 l/m 0,0 km/h (0 Bft) N-NO 22 2,8 C 16,1 C 0,0 km/h (0 Bft)
18.09.2019 13:51 19,1 C 16,6 C 20,0 C 51 % 43 % 1017,3 hPa 0,0 l/m 0,0 km/h (0 Bft) N-NO 22 4,0 C 16,6 C 0,0 km/h (0 Bft)
18.09.2019 13:50 19,1 C 16,6 C 20,0 C 51 % 43 % 1017,3 hPa 0,0 l/m 0,0 km/h (0 Bft) N-NO 22 4,0 C 16,6 C 0,0 km/h (0 Bft)
18.09.2019 13:49 19,2 C 16,2 C 19,9 C 51 % 41 % 1017,3 hPa 0,0 l/m 0,0 km/h (0 Bft) N-NO 22 2,9 C 16,2 C 0,0 km/h (0 Bft)
18.09.2019 13:48 19,2 C 16,2 C 19,9 C 51 % 41 % 1017,3 hPa 0,0 l/m 0,0 km/h (0 Bft) N-NO 22 2,9 C 16,2 C 0,0 km/h (0 Bft)
18.09.2019 13:47 19,2 C 15,9 C 19,8 C 51 % 42 % 1017,3 hPa 0,0 l/m 0,0 km/h (0 Bft) N-NO 22 3,0 C 15,9 C 0,0 km/h (0 Bft)
18.09.2019 13:46 19,2 C 15,9 C 19,8 C 51 % 42 % 1017,3 hPa 0,0 l/m 0,0 km/h (0 Bft) N-NO 22 3,0 C 15,9 C 0,0 km/h (0 Bft)
18.09.2019 13:45 19,2 C 15,9 C 19,8 C 51 % 42 % 1017,4 hPa 0,0 l/m 0,0 km/h (0 Bft) N-NO 22 3,0 C 15,9 C 0,0 km/h (0 Bft)
18.09.2019 13:44 19,2 C 15,9 C 19,8 C 51 % 42 % 1017,4 hPa 0,0 l/m 0,0 km/h (0 Bft) N-NO 22 3,0 C 15,9 C 0,0 km/h (0 Bft)
18.09.2019 13:43 19,2 C 15,9 C 18,8 C 52 % 42 % 1017,4 hPa 0,0 l/m 0,0 km/h (0 Bft) N-NO 22 3,0 C 15,9 C 0,0 km/h (0 Bft)
18.09.2019 13:42 19,2 C 15,9 C 18,8 C 52 % 42 % 1017,4 hPa 0,0 l/m 0,0 km/h (0 Bft) N-NO 22 3,0 C 15,9 C 0,0 km/h (0 Bft)
18.09.2019 13:41 19,2 C 16,3 C 19,4 C 52 % 44 % 1017,4 hPa 0,0 l/m 0,0 km/h (0 Bft) N-NO 22 4,0 C 16,3 C 0,0 km/h (0 Bft)
18.09.2019 13:40 19,2 C 16,3 C 19,4 C 52 % 44 % 1017,4 hPa 0,0 l/m 0,0 km/h (0 Bft) N-NO 22 4,0 C 16,3 C 0,0 km/h (0 Bft)
18.09.2019 13:39 19,2 C 16,1 C 19,5 C 52 % 44 % 1017,4 hPa 0,0 l/m 0,0 km/h (0 Bft) N-NO 22 3,8 C 16,1 C 0,0 km/h (0 Bft)
18.09.2019 13:38 19,2 C 16,1 C 19,5 C 52 % 44 % 1017,4 hPa 0,0 l/m 0,0 km/h (0 Bft) N-NO 22 3,8 C 16,1 C 0,0 km/h (0 Bft)
18.09.2019 13:37 19,2 C 15,6 C 19,4 C 52 % 39 % 1017,4 hPa 0,0 l/m 0,0 km/h (0 Bft) N-NO 22 1,7 C 15,6 C 0,0 km/h (0 Bft)
18.09.2019 13:36 19,2 C 15,6 C 19,4 C 52 % 39 % 1017,4 hPa 0,0 l/m 0,0 km/h (0 Bft) N-NO 22 1,7 C 15,6 C 0,0 km/h (0 Bft)
18.09.2019 13:35 19,2 C 16,1 C 18,6 C 52 % 43 % 1017,4 hPa 0,0 l/m 0,0 km/h (0 Bft) N-NO 22 3,5 C 16,1 C 0,0 km/h (0 Bft)
18.09.2019 13:34 19,2 C 16,1 C 18,6 C 52 % 43 % 1017,4 hPa 0,0 l/m 0,0 km/h (0 Bft) N-NO 22 3,5 C 16,1 C 0,0 km/h (0 Bft)
18.09.2019 13:33 19,2 C 16,0 C 18,9 C 52 % 41 % 1017,4 hPa 0,0 l/m 0,0 km/h (0 Bft) N-NO 22 2,8 C 16,0 C 0,0 km/h (0 Bft)
18.09.2019 13:32 19,2 C 16,0 C 18,9 C 52 % 41 % 1017,4 hPa 0,0 l/m 0,0 km/h (0 Bft) N-NO 22 2,8 C 16,0 C 0,0 km/h (0 Bft)
18.09.2019 13:31 19,1 C 16,1 C 19,3 C 52 % 42 % 1017,4 hPa 0,0 l/m 0,0 km/h (0 Bft) N-NO 22 3,2 C 16,1 C 0,0 km/h (0 Bft)
18.09.2019 13:30 19,1 C 16,1 C 19,3 C 52 % 42 % 1017,4 hPa 0,0 l/m 0,0 km/h (0 Bft) N-NO 22 3,2 C 16,1 C 0,0 km/h (0 Bft)
18.09.2019 13:29 19,2 C 16,4 C 19,6 C 52 % 44 % 1017,4 hPa 0,0 l/m 0,0 km/h (0 Bft) N-NO 22 4,1 C 16,4 C 0,0 km/h (0 Bft)
18.09.2019 13:28 19,2 C 16,4 C 19,6 C 52 % 44 % 1017,4 hPa 0,0 l/m 0,0 km/h (0 Bft) N-NO 22 4,1 C 16,4 C 0,0 km/h (0 Bft)
18.09.2019 13:27 19,1 C 16,1 C 19,1 C 52 % 44 % 1017,4 hPa 0,0 l/m 0,0 km/h (0 Bft) N-NO 22 3,8 C 16,1 C 0,0 km/h (0 Bft)
18.09.2019 13:26 19,1 C 16,1 C 19,1 C 52 % 44 % 1017,4 hPa 0,0 l/m 0,0 km/h (0 Bft) N-NO 22 3,8 C 16,1 C 0,0 km/h (0 Bft)
18.09.2019 13:25 19,1 C 16,1 C 19,1 C 52 % 44 % 1017,7 hPa 0,0 l/m 0,0 km/h (0 Bft) N-NO 22 3,8 C 16,1 C 0,0 km/h (0 Bft)
18.09.2019 13:24 19,1 C 16,1 C 19,1 C 52 % 44 % 1017,7 hPa 0,0 l/m 0,0 km/h (0 Bft) N-NO 22 3,8 C 16,1 C 0,0 km/h (0 Bft)
18.09.2019 13:23 19,1 C 16,0 C 18,7 C 52 % 44 % 1017,7 hPa 0,0 l/m 0,0 km/h (0 Bft) N-NO 22 3,8 C 16,0 C 0,0 km/h (0 Bft)
18.09.2019 13:21 19,1 C 16,0 C 19,4 C 52 % 43 % 1017,7 hPa 0,0 l/m 0,0 km/h (0 Bft) N-NO 22 3,4 C 16,0 C 0,0 km/h (0 Bft)
18.09.2019 13:19 19,1 C 15,9 C 19,9 C 52 % 44 % 1017,7 hPa 0,0 l/m 0,0 km/h (0 Bft) N-NO 22 3,7 C 15,9 C 0,0 km/h (0 Bft)
18.09.2019 13:18 19,1 C 15,9 C 19,9 C 52 % 44 % 1017,7 hPa 0,0 l/m 0,0 km/h (0 Bft) N-NO 22 3,7 C 15,9 C 0,0 km/h (0 Bft)
18.09.2019 13:17 19,1 C 15,7 C 19,5 C 52 % 42 % 1017,7 hPa 0,0 l/m 0,0 km/h (0 Bft) N-NO 22 2,8 C 15,7 C 0,0 km/h (0 Bft)
18.09.2019 13:16 19,1 C 15,7 C 19,5 C 52 % 42 % 1017,7 hPa 0,0 l/m 0,0 km/h (0 Bft) N-NO 22 2,8 C 15,7 C 0,0 km/h (0 Bft)
18.09.2019 13:15 19,1 C 15,7 C 19,2 C 52 % 43 % 1017,7 hPa 0,0 l/m 0,0 km/h (0 Bft) N-NO 22 3,2 C 15,7 C 0,0 km/h (0 Bft)
18.09.2019 13:14 19,1 C 15,7 C 19,2 C 52 % 43 % 1017,7 hPa 0,0 l/m 0,0 km/h (0 Bft) N-NO 22 3,2 C 15,7 C 0,0 km/h (0 Bft)
18.09.2019 13:13 19,1 C 16,0 C 19,7 C 52 % 44 % 1017,7 hPa 0,0 l/m 0,0 km/h (0 Bft) N-NO 22 3,8 C 16,0 C 0,0 km/h (0 Bft)
18.09.2019 13:12 19,1 C 16,0 C 19,7 C 52 % 44 % 1017,7 hPa 0,0 l/m 0,0 km/h (0 Bft) N-NO 22 3,8 C 16,0 C 0,0 km/h (0 Bft)
18.09.2019 13:11 19,1 C 15,7 C 19,6 C 52 % 46 % 1017,7 hPa 0,0 l/m 0,0 km/h (0 Bft) N-NO 22 4,1 C 15,7 C 0,0 km/h (0 Bft)
18.09.2019 13:10 19,1 C 15,7 C 19,6 C 52 % 46 % 1017,7 hPa 0,0 l/m 0,0 km/h (0 Bft) N-NO 22 4,1 C 15,7 C 0,0 km/h (0 Bft)
18.09.2019 13:09 19,2 C 15,6 C 20,0 C 52 % 46 % 1017,7 hPa 0,0 l/m 0,0 km/h (0 Bft) N-NO 22 4,0 C 15,6 C 0,0 km/h (0 Bft)
18.09.2019 13:08 19,2 C 15,6 C 20,0 C 52 % 46 % 1017,7 hPa 0,0 l/m 0,0 km/h (0 Bft) N-NO 22 4,0 C 15,6 C 0,0 km/h (0 Bft)
18.09.2019 13:07 19,1 C 15,5 C 19,6 C 52 % 44 % 1017,7 hPa 0,0 l/m 0,0 km/h (0 Bft) N-NO 22 3,3 C 15,5 C 0,0 km/h (0 Bft)
18.09.2019 13:06 19,1 C 15,5 C 19,6 C 52 % 44 % 1017,7 hPa 0,0 l/m 0,0 km/h (0 Bft) N-NO 22 3,3 C 15,5 C 0,0 km/h (0 Bft)
18.09.2019 13:05 19,1 C 15,5 C 19,6 C 52 % 44 % 1017,9 hPa 0,0 l/m 0,0 km/h (0 Bft) N-NO 22 3,3 C 15,5 C 0,0 km/h (0 Bft)
18.09.2019 13:04 19,1 C 15,5 C 19,6 C 52 % 44 % 1017,9 hPa 0,0 l/m 0,0 km/h (0 Bft) N-NO 22 3,3 C 15,5 C 0,0 km/h (0 Bft)
18.09.2019 13:03 19,1 C 15,9 C 19,5 C 52 % 44 % 1017,9 hPa 0,0 l/m 0,0 km/h (0 Bft) N-NO 22 3,7 C 15,9 C 0,0 km/h (0 Bft)
18.09.2019 13:02 19,1 C 15,9 C 19,5 C 52 % 44 % 1017,9 hPa 0,0 l/m 0,0 km/h (0 Bft) N-NO 22 3,7 C 15,9 C 0,0 km/h (0 Bft)
18.09.2019 13:01 19,1 C 15,9 C 20,1 C 52 % 43 % 1017,9 hPa 0,0 l/m 0,0 km/h (0 Bft) N-NO 22 3,3 C 15,9 C 0,0 km/h (0 Bft)
18.09.2019 13:00 19,1 C 15,9 C 20,1 C 52 % 43 % 1017,9 hPa 0,0 l/m 0,0 km/h (0 Bft) N-NO 22 3,3 C 15,9 C 0,0 km/h (0 Bft)
18.09.2019 12:59 19,1 C 15,7 C 19,6 C 52 % 45 % 1017,9 hPa 0,0 l/m 0,0 km/h (0 Bft) N-NO 22 3,8 C 15,7 C 0,0 km/h (0 Bft)
18.09.2019 12:58 19,1 C 15,7 C 19,6 C 52 % 45 % 1017,9 hPa 0,0 l/m 0,0 km/h (0 Bft) N-NO 22 3,8 C 15,7 C 0,0 km/h (0 Bft)
18.09.2019 12:57 19,1 C 15,7 C 19,9 C 52 % 45 % 1017,9 hPa 0,0 l/m 0,0 km/h (0 Bft) N-NO 22 3,8 C 15,7 C 0,0 km/h (0 Bft)
18.09.2019 12:56 19,1 C 15,7 C 19,9 C 52 % 45 % 1017,9 hPa 0,0 l/m 0,0 km/h (0 Bft) N-NO 22 3,8 C 15,7 C 0,0 km/h (0 Bft)
18.09.2019 12:55 19,1 C 15,4 C 19,0 C 52 % 44 % 1017,9 hPa 0,0 l/m 0,0 km/h (0 Bft) N-NO 22 3,2 C 15,4 C 0,0 km/h (0 Bft)
18.09.2019 12:54 19,1 C 15,4 C 19,0 C 52 % 44 % 1017,9 hPa 0,0 l/m 0,0 km/h (0 Bft) N-NO 22 3,2 C 15,4 C 0,0 km/h (0 Bft)
18.09.2019 12:53 19,1 C 15,9 C 19,2 C 52 % 44 % 1017,9 hPa 0,0 l/m 0,0 km/h (0 Bft) N-NO 22 3,7 C 15,9 C 0,0 km/h (0 Bft)
18.09.2019 12:52 19,1 C 15,9 C 19,2 C 52 % 44 % 1017,9 hPa 0,0 l/m 0,0 km/h (0 Bft) N-NO 22 3,7 C 15,9 C 0,0 km/h (0 Bft)
18.09.2019 12:51 19,1 C 15,4 C 19,0 C 52 % 42 % 1017,9 hPa 0,0 l/m 0,0 km/h (0 Bft) N-NO 22 2,6 C 15,4 C 0,0 km/h (0 Bft)
18.09.2019 12:50 19,1 C 15,4 C 19,0 C 52 % 42 % 1017,9 hPa 0,0 l/m 0,0 km/h (0 Bft) N-NO 22 2,6 C 15,4 C 0,0 km/h (0 Bft)
18.09.2019 12:49 19,1 C 15,4 C 18,1 C 52 % 45 % 1017,9 hPa 0,0 l/m 0,0 km/h (0 Bft) N-NO 22 3,5 C 15,4 C 0,0 km/h (0 Bft)
18.09.2019 12:48 19,1 C 15,4 C 18,1 C 52 % 45 % 1017,9 hPa 0,0 l/m 0,0 km/h (0 Bft) N-NO 22 3,5 C 15,4 C 0,0 km/h (0 Bft)
18.09.2019 12:47 19,1 C 15,0 C 17,6 C 52 % 42 % 1017,9 hPa 0,0 l/m 0,0 km/h (0 Bft) N-NO 22 2,2 C 15,0 C 0,0 km/h (0 Bft)
18.09.2019 12:46 19,1 C 15,0 C 17,6 C 52 % 42 % 1017,9 hPa 0,0 l/m 0,0 km/h (0 Bft) N-NO 22 2,2 C 15,0 C 0,0 km/h (0 Bft)
18.09.2019 12:45 19,1 C 15,0 C 17,6 C 52 % 42 % 1018,1 hPa 0,0 l/m 0,0 km/h (0 Bft) N-NO 22 2,2 C 15,0 C 0,0 km/h (0 Bft)
18.09.2019 12:44 19,1 C 15,0 C 17,6 C 52 % 42 % 1018,1 hPa 0,0 l/m 0,0 km/h (0 Bft) N-NO 22 2,2 C 15,0 C 0,0 km/h (0 Bft)
18.09.2019 12:43 19,1 C 14,7 C 17,8 C 52 % 43 % 1018,1 hPa 0,0 l/m 0,0 km/h (0 Bft) N-NO 22 2,3 C 14,7 C 0,0 km/h (0 Bft)
18.09.2019 12:42 19,1 C 14,7 C 17,8 C 52 % 43 % 1018,1 hPa 0,0 l/m 0,0 km/h (0 Bft) N-NO 22 2,3 C 14,7 C 0,0 km/h (0 Bft)
18.09.2019 12:41 19,1 C 14,5 C 17,2 C 52 % 40 % 1018,1 hPa 0,0 l/m 0,0 km/h (0 Bft) N-NO 22 1,1 C 14,5 C 0,0 km/h (0 Bft)
18.09.2019 12:40 19,1 C 14,5 C 17,2 C 52 % 40 % 1018,1 hPa 0,0 l/m 0,0 km/h (0 Bft) N-NO 22 1,1 C 14,5 C 0,0 km/h (0 Bft)
18.09.2019 12:39 19,1 C 15,4 C 17,3 C 52 % 45 % 1018,1 hPa 0,0 l/m 0,0 km/h (0 Bft) N-NO 22 3,5 C 15,4 C 0,0 km/h (0 Bft)
18.09.2019 12:38 19,1 C 15,4 C 17,3 C 52 % 45 % 1018,1 hPa 0,0 l/m 0,0 km/h (0 Bft) N-NO 22 3,5 C 15,4 C 0,0 km/h (0 Bft)
18.09.2019 12:37 19,1 C 15,3 C 17,3 C 52 % 41 % 1018,1 hPa 0,0 l/m 0,0 km/h (0 Bft) N-NO 22 2,1 C 15,3 C 0,0 km/h (0 Bft)
18.09.2019 12:36 19,1 C 15,3 C 17,3 C 52 % 41 % 1018,1 hPa 0,0 l/m 0,0 km/h (0 Bft) N-NO 22 2,1 C 15,3 C 0,0 km/h (0 Bft)
18.09.2019 12:35 19,1 C 15,2 C 17,0 C 52 % 42 % 1018,1 hPa 0,0 l/m 0,0 km/h (0 Bft) N-NO 22 2,4 C 15,2 C 0,0 km/h (0 Bft)
18.09.2019 12:34 19,1 C 15,2 C 17,0 C 52 % 42 % 1018,1 hPa 0,0 l/m 0,0 km/h (0 Bft) N-NO 22 2,4 C 15,2 C 0,0 km/h (0 Bft)
18.09.2019 12:33 19,1 C 15,2 C 17,4 C 52 % 42 % 1018,1 hPa 0,0 l/m 0,0 km/h (0 Bft) N-NO 22 2,4 C 15,2 C 0,0 km/h (0 Bft)
18.09.2019 12:32 19,1 C 15,2 C 17,4 C 52 % 42 % 1018,1 hPa 0,0 l/m 0,0 km/h (0 Bft) N-NO 22 2,4 C 15,2 C 0,0 km/h (0 Bft)
18.09.2019 12:31 19,1 C 15,1 C 17,0 C 52 % 42 % 1018,1 hPa 0,0 l/m 0,0 km/h (0 Bft) N-NO 22 2,3 C 15,1 C 0,0 km/h (0 Bft)
18.09.2019 12:30 19,1 C 15,1 C 17,0 C 52 % 42 % 1018,1 hPa 0,0 l/m 0,0 km/h (0 Bft) N-NO 22 2,3 C 15,1 C 0,0 km/h (0 Bft)
18.09.2019 12:29 19,1 C 15,3 C 16,8 C 52 % 42 % 1018,1 hPa 0,0 l/m 0,0 km/h (0 Bft) N-NO 22 2,5 C 15,3 C 0,0 km/h (0 Bft)
18.09.2019 12:28 19,1 C 15,3 C 16,8 C 52 % 42 % 1018,1 hPa 0,0 l/m 0,0 km/h (0 Bft) N-NO 22 2,5 C 15,3 C 0,0 km/h (0 Bft)
18.09.2019 12:27 19,1 C 14,9 C 16,2 C 52 % 46 % 1018,1 hPa 0,0 l/m 0,0 km/h (0 Bft) N-NO 22 3,4 C 14,9 C 0,0 km/h (0 Bft)
18.09.2019 12:26 19,1 C 14,9 C 16,2 C 52 % 46 % 1018,1 hPa 0,0 l/m 0,0 km/h (0 Bft) N-NO 22 3,4 C 14,9 C 0,0 km/h (0 Bft)
18.09.2019 12:25 19,1 C 14,9 C 16,2 C 52 % 46 % 1018,2 hPa 0,0 l/m 0,0 km/h (0 Bft) N-NO 22 3,4 C 14,9 C 0,0 km/h (0 Bft)
18.09.2019 12:24 19,1 C 14,9 C 16,2 C 52 % 46 % 1018,2 hPa 0,0 l/m 0,0 km/h (0 Bft) N-NO 22 3,4 C 14,9 C 0,0 km/h (0 Bft)
18.09.2019 12:23 19,1 C 14,6 C 15,8 C 52 % 44 % 1018,2 hPa 0,0 l/m 0,0 km/h (0 Bft) N-NO 22 2,5 C 14,6 C 0,0 km/h (0 Bft)
18.09.2019 12:22 19,1 C 14,6 C 15,8 C 52 % 44 % 1018,2 hPa 0,0 l/m 0,0 km/h (0 Bft) N-NO 22 2,5 C 14,6 C 0,0 km/h (0 Bft)
18.09.2019 12:21 19,1 C 14,6 C 15,9 C 52 % 43 % 1018,2 hPa 0,0 l/m 0,0 km/h (0 Bft) N-NO 22 2,2 C 14,6 C 0,0 km/h (0 Bft)
18.09.2019 12:20 19,1 C 14,6 C 15,9 C 52 % 43 % 1018,2 hPa 0,0 l/m 0,0 km/h (0 Bft) N-NO 22 2,2 C 14,6 C 0,0 km/h (0 Bft)
18.09.2019 12:19 19,1 C 14,9 C 15,9 C 52 % 44 % 1018,2 hPa 0,0 l/m 0,0 km/h (0 Bft) N-NO 22 2,8 C 14,9 C 0,0 km/h (0 Bft)
18.09.2019 12:18 19,1 C 14,9 C 15,9 C 52 % 44 % 1018,2 hPa 0,0 l/m 0,0 km/h (0 Bft) N-NO 22 2,8 C 14,9 C 0,0 km/h (0 Bft)
18.09.2019 12:17 19,1 C 14,8 C 15,6 C 52 % 43 % 1018,2 hPa 0,0 l/m 0,0 km/h (0 Bft) N-NO 22 2,3 C 14,8 C 0,0 km/h (0 Bft)
18.09.2019 12:16 19,1 C 14,8 C 15,6 C 52 % 43 % 1018,2 hPa 0,0 l/m 0,0 km/h (0 Bft) N-NO 22 2,3 C 14,8 C 0,0 km/h (0 Bft)
18.09.2019 12:15 19,1 C 15,0 C 15,4 C 52 % 43 % 1018,2 hPa 0,0 l/m 0,0 km/h (0 Bft) N-NO 22 2,5 C 15,0 C 0,0 km/h (0 Bft)
18.09.2019 12:14 19,1 C 15,0 C 15,4 C 52 % 43 % 1018,2 hPa 0,0 l/m 0,0 km/h (0 Bft) N-NO 22 2,5 C 15,0 C 0,0 km/h (0 Bft)
18.09.2019 12:13 19,1 C 14,4 C 14,6 C 53 % 44 % 1018,2 hPa 0,0 l/m 0,0 km/h (0 Bft) N-NO 22 2,3 C 14,4 C 0,0 km/h (0 Bft)
18.09.2019 12:12 19,1 C 14,4 C 14,6 C 53 % 44 % 1018,2 hPa 0,0 l/m 0,0 km/h (0 Bft) N-NO 22 2,3 C 14,4 C 0,0 km/h (0 Bft)
18.09.2019 12:11 19,1 C 14,2 C 14,2 C 52 % 44 % 1018,2 hPa 0,0 l/m 0,0 km/h (0 Bft) N-NO 22 2,1 C 14,2 C 0,0 km/h (0 Bft)
18.09.2019 12:10 19,1 C 14,2 C 14,2 C 52 % 44 % 1018,2 hPa 0,0 l/m 0,0 km/h (0 Bft) N-NO 22 2,1 C 14,2 C 0,0 km/h (0 Bft)
18.09.2019 12:09 19,1 C 14,4 C 14,6 C 52 % 46 % 1018,2 hPa 0,0 l/m 0,0 km/h (0 Bft) N-NO 22 2,9 C 14,4 C 0,0 km/h (0 Bft)
18.09.2019 12:08 19,1 C 14,4 C 14,6 C 52 % 46 % 1018,2 hPa 0,0 l/m 0,0 km/h (0 Bft) N-NO 22 2,9 C 14,4 C 0,0 km/h (0 Bft)
18.09.2019 12:07 19,1 C 14,5 C 14,5 C 53 % 45 % 1018,2 hPa 0,0 l/m 0,0 km/h (0 Bft) N-NO 22 2,7 C 14,5 C 0,0 km/h (0 Bft)
18.09.2019 12:06 19,1 C 14,5 C 14,5 C 53 % 45 % 1018,2 hPa 0,0 l/m 0,0 km/h (0 Bft) N-NO 22 2,7 C 14,5 C 0,0 km/h (0 Bft)
18.09.2019 12:05 19,1 C 14,5 C 14,5 C 53 % 45 % 1018,2 hPa 0,0 l/m 0,0 km/h (0 Bft) N-NO 22 2,7 C 14,5 C 0,0 km/h (0 Bft)
18.09.2019 12:04 19,1 C 14,5 C 14,5 C 53 % 45 % 1018,2 hPa 0,0 l/m 0,0 km/h (0 Bft) N-NO 22 2,7 C 14,5 C 0,0 km/h (0 Bft)
18.09.2019 12:03 19,1 C 14,4 C 14,1 C 53 % 47 % 1018,2 hPa 0,0 l/m 0,0 km/h (0 Bft) N-NO 22 3,2 C 14,4 C 0,0 km/h (0 Bft)
18.09.2019 12:02 19,1 C 14,4 C 14,1 C 53 % 47 % 1018,2 hPa 0,0 l/m 0,0 km/h (0 Bft) N-NO 22 3,2 C 14,4 C 0,0 km/h (0 Bft)
18.09.2019 12:01 19,1 C 14,6 C 14,2 C 53 % 47 % 1018,2 hPa 0,0 l/m 0,0 km/h (0 Bft) N-NO 22 3,4 C 14,6 C 0,0 km/h (0 Bft)
18.09.2019 12:00 19,1 C 14,6 C 14,2 C 53 % 47 % 1018,2 hPa 0,0 l/m 0,0 km/h (0 Bft) N-NO 22 3,4 C 14,6 C 0,0 km/h (0 Bft)
18.09.2019 11:59 19,1 C 14,5 C 13,8 C 53 % 47 % 1018,2 hPa 0,0 l/m 0,0 km/h (0 Bft) N-NO 22 3,3 C 14,5 C 0,0 km/h (0 Bft)
18.09.2019 11:58 19,1 C 14,5 C 13,8 C 53 % 47 % 1018,2 hPa 0,0 l/m 0,0 km/h (0 Bft) N-NO 22 3,3 C 14,5 C 0,0 km/h (0 Bft)
18.09.2019 11:57 19,1 C 14,7 C 13,7 C 52 % 47 % 1018,2 hPa 0,0 l/m 0,0 km/h (0 Bft) N-NO 22 3,5 C 14,7 C 0,0 km/h (0 Bft)
18.09.2019 11:56 19,1 C 14,7 C 13,7 C 52 % 47 % 1018,2 hPa 0,0 l/m 0,0 km/h (0 Bft) N-NO 22 3,5 C 14,7 C 0,0 km/h (0 Bft)
18.09.2019 11:55 19,1 C 14,4 C 12,9 C 53 % 48 % 1018,2 hPa 0,0 l/m 0,0 km/h (0 Bft) N-NO 22 3,5 C 14,4 C 0,0 km/h (0 Bft)
18.09.2019 11:54 19,1 C 14,4 C 12,9 C 53 % 48 % 1018,2 hPa 0,0 l/m 0,0 km/h (0 Bft) N-NO 22 3,5 C 14,4 C 0,0 km/h (0 Bft)
18.09.2019 11:53 19,1 C 14,0 C 12,5 C 53 % 45 % 1018,2 hPa 0,0 l/m 0,0 km/h (0 Bft) N-NO 22 2,3 C 14,0 C 0,0 km/h (0 Bft)
18.09.2019 11:52 19,1 C 14,0 C 12,5 C 53 % 45 % 1018,2 hPa 0,0 l/m 0,0 km/h (0 Bft) N-NO 22 2,3 C 14,0 C 0,0 km/h (0 Bft)
18.09.2019 11:51 19,1 C 14,1 C 12,4 C 53 % 44 % 1018,2 hPa 0,0 l/m 0,0 km/h (0 Bft) N-NO 22 2,0 C 14,1 C 0,0 km/h (0 Bft)
18.09.2019 11:50 19,1 C 14,1 C 12,4 C 53 % 44 % 1018,2 hPa 0,0 l/m 0,0 km/h (0 Bft) N-NO 22 2,0 C 14,1 C 0,0 km/h (0 Bft)
18.09.2019 11:49 19,1 C 14,2 C 12,5 C 53 % 48 % 1018,2 hPa 0,0 l/m 0,0 km/h (0 Bft) N-NO 22 3,4 C 14,2 C 0,0 km/h (0 Bft)
18.09.2019 11:48 19,1 C 14,2 C 12,5 C 53 % 48 % 1018,2 hPa 0,0 l/m 0,0 km/h (0 Bft) N-NO 22 3,4 C 14,2 C 0,0 km/h (0 Bft)
18.09.2019 11:47 19,1 C 14,0 C 12,2 C 53 % 48 % 1018,2 hPa 0,0 l/m 0,0 km/h (0 Bft) N-NO 22 3,2 C 14,0 C 0,0 km/h (0 Bft)
18.09.2019 11:46 19,1 C 14,0 C 12,2 C 53 % 48 % 1018,2 hPa 0,0 l/m 0,0 km/h (0 Bft) N-NO 22 3,2 C 14,0 C 0,0 km/h (0 Bft)
18.09.2019 11:45 19,1 C 14,0 C 12,2 C 53 % 48 % 1018,2 hPa 0,0 l/m 0,0 km/h (0 Bft) N-NO 22 3,2 C 14,0 C 0,0 km/h (0 Bft)
18.09.2019 11:44 19,1 C 14,0 C 12,2 C 53 % 48 % 1018,2 hPa 0,0 l/m 0,0 km/h (0 Bft) N-NO 22 3,2 C 14,0 C 0,0 km/h (0 Bft)
18.09.2019 11:43 19,1 C 14,3 C 12,2 C 53 % 48 % 1018,2 hPa 0,0 l/m 0,0 km/h (0 Bft) N-NO 22 3,4 C 14,3 C 0,0 km/h (0 Bft)
18.09.2019 11:42 19,1 C 14,3 C 12,2 C 53 % 48 % 1018,2 hPa 0,0 l/m 0,0 km/h (0 Bft) N-NO 22 3,4 C 14,3 C 0,0 km/h (0 Bft)
18.09.2019 11:41 19,2 C 14,1 C 12,1 C 54 % 49 % 1018,2 hPa 0,0 l/m 0,0 km/h (0 Bft) N-NO 22 3,6 C 14,1 C 0,0 km/h (0 Bft)
18.09.2019 11:40 19,2 C 14,1 C 12,1 C 54 % 49 % 1018,2 hPa 0,0 l/m 0,0 km/h (0 Bft) N-NO 22 3,6 C 14,1 C 0,0 km/h (0 Bft)
18.09.2019 11:39 19,1 C 14,2 C 12,0 C 54 % 50 % 1018,2 hPa 0,0 l/m 0,0 km/h (0 Bft) N-NO 22 3,9 C 14,2 C 0,0 km/h (0 Bft)
18.09.2019 11:38 19,1 C 14,2 C 12,0 C 54 % 50 % 1018,2 hPa 0,0 l/m 0,0 km/h (0 Bft) N-NO 22 3,9 C 14,2 C 0,0 km/h (0 Bft)
18.09.2019 11:37 19,1 C 14,2 C 11,6 C 53 % 51 % 1018,2 hPa 0,0 l/m 0,0 km/h (0 Bft) N-NO 22 4,2 C 14,2 C 0,0 km/h (0 Bft)
18.09.2019 11:36 19,1 C 14,2 C 11,6 C 53 % 51 % 1018,2 hPa 0,0 l/m 0,0 km/h (0 Bft) N-NO 22 4,2 C 14,2 C 0,0 km/h (0 Bft)
18.09.2019 11:35 19,1 C 14,1 C 11,6 C 53 % 51 % 1018,2 hPa 0,0 l/m 0,0 km/h (0 Bft) N-NO 22 4,1 C 14,1 C 0,0 km/h (0 Bft)
18.09.2019 11:34 19,1 C 14,1 C 11,6 C 53 % 51 % 1018,2 hPa 0,0 l/m 0,0 km/h (0 Bft) N-NO 22 4,1 C 14,1 C 0,0 km/h (0 Bft)
18.09.2019 11:33 19,1 C 13,7 C 11,7 C 53 % 50 % 1018,2 hPa 0,0 l/m 0,0 km/h (0 Bft) N-NO 22 3,5 C 13,7 C 0,0 km/h (0 Bft)
18.09.2019 11:32 19,1 C 13,7 C 11,7 C 53 % 50 % 1018,2 hPa 0,0 l/m 0,0 km/h (0 Bft) N-NO 22 3,5 C 13,7 C 0,0 km/h (0 Bft)
18.09.2019 11:31 19,1 C 13,4 C 11,6 C 54 % 50 % 1018,2 hPa 0,0 l/m 0,0 km/h (0 Bft) N-NO 22 3,2 C 13,4 C 0,0 km/h (0 Bft)
18.09.2019 11:30 19,1 C 13,4 C 11,6 C 54 % 50 % 1018,2 hPa 0,0 l/m 0,0 km/h (0 Bft) N-NO 22 3,2 C 13,4 C 0,0 km/h (0 Bft)
18.09.2019 11:29 19,2 C 13,5 C 11,6 C 54 % 50 % 1018,2 hPa 0,0 l/m 0,0 km/h (0 Bft) N-NO 22 3,3 C 13,5 C 0,0 km/h (0 Bft)
18.09.2019 11:28 19,2 C 13,5 C 11,6 C 54 % 50 % 1018,2 hPa 0,0 l/m 0,0 km/h (0 Bft) N-NO 22 3,3 C 13,5 C 0,0 km/h (0 Bft)
18.09.2019 11:27 19,1 C 13,3 C 11,4 C 54 % 54 % 1018,2 hPa 0,0 l/m 0,0 km/h (0 Bft) N-NO 22 4,2 C 13,3 C 0,0 km/h (0 Bft)
18.09.2019 11:26 19,1 C 13,3 C 11,4 C 54 % 54 % 1018,2 hPa 0,0 l/m 0,0 km/h (0 Bft) N-NO 22 4,2 C 13,3 C 0,0 km/h (0 Bft)
18.09.2019 11:25 19,1 C 13,3 C 11,4 C 54 % 54 % 1018,3 hPa 0,0 l/m 0,0 km/h (0 Bft) N-NO 22 4,2 C 13,3 C 0,0 km/h (0 Bft)
18.09.2019 11:24 19,1 C 13,3 C 11,4 C 54 % 54 % 1018,3 hPa 0,0 l/m 0,0 km/h (0 Bft) N-NO 22 4,2 C 13,3 C 0,0 km/h (0 Bft)
18.09.2019 11:23 19,2 C 12,9 C 11,1 C 54 % 57 % 1018,3 hPa 0,0 l/m 0,0 km/h (0 Bft) N-NO 22 4,6 C 12,9 C 0,0 km/h (0 Bft)
18.09.2019 11:22 19,2 C 12,9 C 11,1 C 54 % 57 % 1018,3 hPa 0,0 l/m 0,0 km/h (0 Bft) N-NO 22 4,6 C 12,9 C 0,0 km/h (0 Bft)
18.09.2019 11:21 19,2 C 12,9 C 11,2 C 54 % 58 % 1018,3 hPa 0,0 l/m 0,0 km/h (0 Bft) N-NO 22 4,8 C 12,9 C 0,0 km/h (0 Bft)
18.09.2019 11:20 19,2 C 12,9 C 11,2 C 54 % 58 % 1018,3 hPa 0,0 l/m 0,0 km/h (0 Bft) N-NO 22 4,8 C 12,9 C 0,0 km/h (0 Bft)
18.09.2019 11:19 19,2 C 13,2 C 11,1 C 54 % 58 % 1018,3 hPa 0,0 l/m 0,0 km/h (0 Bft) N-NO 22 5,1 C 13,2 C 0,0 km/h (0 Bft)
18.09.2019 11:18 19,2 C 13,2 C 11,1 C 54 % 58 % 1018,3 hPa 0,0 l/m 0,0 km/h (0 Bft) N-NO 22 5,1 C 13,2 C 0,0 km/h (0 Bft)
18.09.2019 11:17 19,2 C 13,3 C 11,1 C 54 % 58 % 1018,3 hPa 0,0 l/m 0,0 km/h (0 Bft) N-NO 22 5,2 C 13,3 C 0,0 km/h (0 Bft)
18.09.2019 11:16 19,2 C 13,3 C 11,1 C 54 % 58 % 1018,3 hPa 0,0 l/m 0,0 km/h (0 Bft) N-NO 22 5,2 C 13,3 C 0,0 km/h (0 Bft)
18.09.2019 11:15 19,2 C 13,2 C 11,2 C 54 % 58 % 1018,3 hPa 0,0 l/m 0,0 km/h (0 Bft) N-NO 22 5,1 C 13,2 C 0,0 km/h (0 Bft)
18.09.2019 11:14 19,2 C 13,2 C 11,2 C 54 % 58 % 1018,3 hPa 0,0 l/m 0,0 km/h (0 Bft) N-NO 22 5,1 C 13,2 C 0,0 km/h (0 Bft)
18.09.2019 11:13 19,2 C 13,2 C 11,3 C 54 % 58 % 1018,3 hPa 0,0 l/m 0,0 km/h (0 Bft) N-NO 22 5,1 C 13,2 C 0,0 km/h (0 Bft)
18.09.2019 11:12 19,2 C 13,2 C 11,3 C 54 % 58 % 1018,3 hPa 0,0 l/m 0,0 km/h (0 Bft) N-NO 22 5,1 C 13,2 C 0,0 km/h (0 Bft)
18.09.2019 11:11 19,2 C 13,3 C 11,3 C 54 % 58 % 1018,3 hPa 0,0 l/m 0,0 km/h (0 Bft) N-NO 22 5,2 C 13,3 C 0,0 km/h (0 Bft)
18.09.2019 11:10 19,2 C 13,3 C 11,3 C 54 % 58 % 1018,3 hPa 0,0 l/m 0,0 km/h (0 Bft) N-NO 22 5,2 C 13,3 C 0,0 km/h (0 Bft)
18.09.2019 11:09 19,2 C 13,3 C 11,1 C 54 % 59 % 1018,3 hPa 0,0 l/m 0,0 km/h (0 Bft) N-NO 22 5,5 C 13,3 C 0,0 km/h (0 Bft)
18.09.2019 11:08 19,2 C 13,3 C 11,1 C 54 % 59 % 1018,3 hPa 0,0 l/m 0,0 km/h (0 Bft) N-NO 22 5,5 C 13,3 C 0,0 km/h (0 Bft)
18.09.2019 11:07 19,2 C 13,0 C 11,1 C 53 % 59 % 1018,3 hPa 0,0 l/m 0,0 km/h (0 Bft) N-NO 22 5,2 C 13,0 C 0,0 km/h (0 Bft)
18.09.2019 11:06 19,2 C 13,0 C 11,1 C 53 % 59 % 1018,3 hPa 0,0 l/m 0,0 km/h (0 Bft) N-NO 22 5,2 C 13,0 C 0,0 km/h (0 Bft)
18.09.2019 11:05 19,2 C 13,0 C 11,1 C 53 % 59 % 1018,4 hPa 0,0 l/m 0,0 km/h (0 Bft) N-NO 22 5,2 C 13,0 C 0,0 km/h (0 Bft)
18.09.2019 11:04 19,2 C 13,0 C 11,1 C 53 % 59 % 1018,4 hPa 0,0 l/m 0,0 km/h (0 Bft) N-NO 22 5,2 C 13,0 C 0,0 km/h (0 Bft)
18.09.2019 11:03 19,2 C 12,8 C 11,2 C 53 % 60 % 1018,4 hPa 0,0 l/m 0,0 km/h (0 Bft) N-NO 22 5,2 C 12,8 C 0,0 km/h (0 Bft)
18.09.2019 11:02 19,2 C 12,8 C 11,2 C 53 % 60 % 1018,4 hPa 0,0 l/m 0,0 km/h (0 Bft) N-NO 22 5,2 C 12,8 C 0,0 km/h (0 Bft)
18.09.2019 11:01 19,2 C 12,7 C 11,1 C 53 % 60 % 1018,4 hPa 0,0 l/m 0,0 km/h (0 Bft) N-NO 22 5,1 C 12,7 C 0,0 km/h (0 Bft)
18.09.2019 11:00 19,2 C 12,7 C 11,1 C 53 % 60 % 1018,4 hPa 0,0 l/m 0,0 km/h (0 Bft) N-NO 22 5,1 C 12,7 C 0,0 km/h (0 Bft)
18.09.2019 10:59 19,2 C 12,7 C 10,6 C 53 % 60 % 1018,4 hPa 0,0 l/m 0,0 km/h (0 Bft) N-NO 22 5,1 C 12,7 C 0,0 km/h (0 Bft)
18.09.2019 10:58 19,2 C 12,7 C 10,6 C 53 % 60 % 1018,4 hPa 0,0 l/m 0,0 km/h (0 Bft) N-NO 22 5,1 C 12,7 C 0,0 km/h (0 Bft)
18.09.2019 10:57 19,2 C 12,7 C 10,8 C 53 % 59 % 1018,4 hPa 0,0 l/m 0,0 km/h (0 Bft) N-NO 22 4,9 C 12,7 C 0,0 km/h (0 Bft)
18.09.2019 10:56 19,2 C 12,7 C 10,8 C 53 % 59 % 1018,4 hPa 0,0 l/m 0,0 km/h (0 Bft) N-NO 22 4,9 C 12,7 C 0,0 km/h (0 Bft)
18.09.2019 10:55 19,2 C 12,7 C 10,6 C 53 % 60 % 1018,4 hPa 0,0 l/m 0,0 km/h (0 Bft) N-NO 22 5,1 C 12,7 C 0,0 km/h (0 Bft)
18.09.2019 10:54 19,2 C 12,7 C 10,6 C 53 % 60 % 1018,4 hPa 0,0 l/m 0,0 km/h (0 Bft) N-NO 22 5,1 C 12,7 C 0,0 km/h (0 Bft)
18.09.2019 10:53 19,2 C 12,7 C 10,8 C 54 % 60 % 1018,4 hPa 0,0 l/m 0,0 km/h (0 Bft) N-NO 22 5,1 C 12,7 C 0,0 km/h (0 Bft)
18.09.2019 10:52 19,2 C 12,7 C 10,8 C 54 % 60 % 1018,4 hPa 0,0 l/m 0,0 km/h (0 Bft) N-NO 22 5,1 C 12,7 C 0,0 km/h (0 Bft)
18.09.2019 10:51 19,2 C 12,7 C 10,8 C 54 % 60 % 1018,4 hPa 0,0 l/m 0,0 km/h (0 Bft) N-NO 22 5,1 C 12,7 C 0,0 km/h (0 Bft)
18.09.2019 10:50 19,2 C 12,7 C 10,8 C 54 % 60 % 1018,4 hPa 0,0 l/m 0,0 km/h (0 Bft) N-NO 22 5,1 C 12,7 C 0,0 km/h (0 Bft)
18.09.2019 10:49 19,2 C 12,7 C 10,9 C 54 % 60 % 1018,4 hPa 0,0 l/m 0,0 km/h (0 Bft) N-NO 22 5,1 C 12,7 C 0,0 km/h (0 Bft)
18.09.2019 10:48 19,2 C 12,7 C 10,9 C 54 % 60 % 1018,4 hPa 0,0 l/m 0,0 km/h (0 Bft) N-NO 22 5,1 C 12,7 C 0,0 km/h (0 Bft)
18.09.2019 10:47 19,2 C 12,8 C 10,8 C 54 % 60 % 1018,4 hPa 0,0 l/m 0,0 km/h (0 Bft) N-NO 22 5,2 C 12,8 C 0,0 km/h (0 Bft)
18.09.2019 10:46 19,2 C 12,8 C 10,8 C 54 % 60 % 1018,4 hPa 0,0 l/m 0,0 km/h (0 Bft) N-NO 22 5,2 C 12,8 C 0,0 km/h (0 Bft)
18.09.2019 10:45 19,2 C 12,8 C 10,8 C 54 % 60 % 1018,7 hPa 0,0 l/m 0,0 km/h (0 Bft) N-NO 22 5,2 C 12,8 C 0,0 km/h (0 Bft)
18.09.2019 10:44 19,2 C 12,8 C 10,8 C 54 % 60 % 1018,7 hPa 0,0 l/m 0,0 km/h (0 Bft) N-NO 22 5,2 C 12,8 C 0,0 km/h (0 Bft)
18.09.2019 10:43 19,2 C 12,7 C 10,8 C 54 % 60 % 1018,7 hPa 0,0 l/m 0,0 km/h (0 Bft) N-NO 22 5,1 C 12,7 C 0,0 km/h (0 Bft)
18.09.2019 10:42 19,2 C 12,7 C 10,8 C 54 % 60 % 1018,7 hPa 0,0 l/m 0,0 km/h (0 Bft) N-NO 22 5,1 C 12,7 C 0,0 km/h (0 Bft)
18.09.2019 10:41 19,2 C 12,8 C 10,9 C 54 % 60 % 1018,7 hPa 0,0 l/m 0,0 km/h (0 Bft) N-NO 22 5,2 C 12,8 C 0,0 km/h (0 Bft)
18.09.2019 10:40 19,2 C 12,8 C 10,9 C 54 % 60 % 1018,7 hPa 0,0 l/m 0,0 km/h (0 Bft) N-NO 22 5,2 C 12,8 C 0,0 km/h (0 Bft)
18.09.2019 10:39 19,2 C 12,6 C 10,6 C 54 % 60 % 1018,7 hPa 0,0 l/m 0,0 km/h (0 Bft) N-NO 22 5,0 C 12,6 C 0,0 km/h (0 Bft)
18.09.2019 10:38 19,2 C 12,6 C 10,6 C 54 % 60 % 1018,7 hPa 0,0 l/m 0,0 km/h (0 Bft) N-NO 22 5,0 C 12,6 C 0,0 km/h (0 Bft)
18.09.2019 10:37 19,2 C 12,8 C 10,9 C 54 % 60 % 1018,7 hPa 0,0 l/m 0,0 km/h (0 Bft) N-NO 22 5,2 C 12,8 C 0,0 km/h (0 Bft)
18.09.2019 10:36 19,2 C 12,8 C 10,9 C 54 % 60 % 1018,7 hPa 0,0 l/m 0,0 km/h (0 Bft) N-NO 22 5,2 C 12,8 C 0,0 km/h (0 Bft)
18.09.2019 10:35 19,2 C 12,7 C 10,6 C 54 % 59 % 1018,7 hPa 0,0 l/m 0,0 km/h (0 Bft) N-NO 22 4,9 C 12,7 C 0,0 km/h (0 Bft)
18.09.2019 10:34 19,2 C 12,7 C 10,6 C 54 % 59 % 1018,7 hPa 0,0 l/m 0,0 km/h (0 Bft) N-NO 22 4,9 C 12,7 C 0,0 km/h (0 Bft)
18.09.2019 10:33 19,2 C 12,6 C 10,4 C 54 % 60 % 1018,7 hPa 0,0 l/m 0,0 km/h (0 Bft) N-NO 22 5,0 C 12,6 C 0,0 km/h (0 Bft)
18.09.2019 10:32 19,2 C 12,6 C 10,4 C 54 % 60 % 1018,7 hPa 0,0 l/m 0,0 km/h (0 Bft) N-NO 22 5,0 C 12,6 C 0,0 km/h (0 Bft)
18.09.2019 10:31 19,2 C 12,5 C 10,3 C 54 % 61 % 1018,7 hPa 0,0 l/m 0,0 km/h (0 Bft) N-NO 22 5,2 C 12,5 C 0,0 km/h (0 Bft)
18.09.2019 10:30 19,2 C 12,5 C 10,3 C 54 % 61 % 1018,7 hPa 0,0 l/m 0,0 km/h (0 Bft) N-NO 22 5,2 C 12,5 C 0,0 km/h (0 Bft)
18.09.2019 10:29 19,2 C 12,0 C 10,2 C 54 % 60 % 1018,7 hPa 0,0 l/m 0,0 km/h (0 Bft) N-NO 22 4,5 C 12,0 C 0,0 km/h (0 Bft)
18.09.2019 10:28 19,2 C 12,0 C 10,2 C 54 % 60 % 1018,7 hPa 0,0 l/m 0,0 km/h (0 Bft) N-NO 22 4,5 C 12,0 C 0,0 km/h (0 Bft)
18.09.2019 10:27 19,2 C 11,9 C 10,1 C 54 % 60 % 1018,7 hPa 0,0 l/m 0,0 km/h (0 Bft) N-NO 22 4,4 C 11,9 C 0,0 km/h (0 Bft)
18.09.2019 10:26 19,2 C 11,9 C 10,1 C 54 % 60 % 1018,7 hPa 0,0 l/m 0,0 km/h (0 Bft) N-NO 22 4,4 C 11,9 C 0,0 km/h (0 Bft)
18.09.2019 10:25 19,2 C 11,9 C 10,1 C 54 % 60 % 1018,8 hPa 0,0 l/m 0,0 km/h (0 Bft) N-NO 22 4,4 C 11,9 C 0,0 km/h (0 Bft)
18.09.2019 10:24 19,2 C 11,9 C 10,1 C 54 % 60 % 1018,8 hPa 0,0 l/m 0,0 km/h (0 Bft) N-NO 22 4,4 C 11,9 C 0,0 km/h (0 Bft)
18.09.2019 10:23 19,2 C 11,9 C 10,3 C 54 % 61 % 1018,8 hPa 0,0 l/m 0,0 km/h (0 Bft) N-NO 22 4,6 C 11,9 C 0,0 km/h (0 Bft)
18.09.2019 10:22 19,2 C 11,9 C 10,3 C 54 % 61 % 1018,8 hPa 0,0 l/m 0,0 km/h (0 Bft) N-NO 22 4,6 C 11,9 C 0,0 km/h (0 Bft)
18.09.2019 10:21 19,2 C 12,0 C 10,5 C 54 % 60 % 1018,8 hPa 0,0 l/m 0,0 km/h (0 Bft) N-NO 22 4,5 C 12,0 C 0,0 km/h (0 Bft)
18.09.2019 10:20 19,2 C 12,0 C 10,5 C 54 % 60 % 1018,8 hPa 0,0 l/m 0,0 km/h (0 Bft) N-NO 22 4,5 C 12,0 C 0,0 km/h (0 Bft)
18.09.2019 10:19 19,2 C 12,0 C 10,3 C 54 % 60 % 1018,8 hPa 0,0 l/m 0,0 km/h (0 Bft) N-NO 22 4,5 C 12,0 C 0,0 km/h (0 Bft)
18.09.2019 10:18 19,2 C 12,0 C 10,3 C 54 % 60 % 1018,8 hPa 0,0 l/m 0,0 km/h (0 Bft) N-NO 22 4,5 C 12,0 C 0,0 km/h (0 Bft)
18.09.2019 10:17 19,2 C 11,9 C 10,2 C 54 % 61 % 1018,8 hPa 0,0 l/m 0,0 km/h (0 Bft) N-NO 22 4,6 C 11,9 C 0,0 km/h (0 Bft)
18.09.2019 10:16 19,2 C 11,9 C 10,2 C 54 % 61 % 1018,8 hPa 0,0 l/m 0,0 km/h (0 Bft) N-NO 22 4,6 C 11,9 C 0,0 km/h (0 Bft)
18.09.2019 10:15 19,2 C 12,1 C 10,2 C 54 % 61 % 1018,8 hPa 0,0 l/m 0,0 km/h (0 Bft) N-NO 22 4,8 C 12,1 C 0,0 km/h (0 Bft)
18.09.2019 10:14 19,2 C 12,1 C 10,2 C 54 % 61 % 1018,8 hPa 0,0 l/m 0,0 km/h (0 Bft) N-NO 22 4,8 C 12,1 C 0,0 km/h (0 Bft)
18.09.2019 10:13 19,2 C 12,0 C 10,2 C 55 % 61 % 1018,8 hPa 0,0 l/m 0,0 km/h (0 Bft) N-NO 22 4,7 C 12,0 C 0,0 km/h (0 Bft)
18.09.2019 10:12 19,2 C 12,0 C 10,2 C 55 % 61 % 1018,8 hPa 0,0 l/m 0,0 km/h (0 Bft) N-NO 22 4,7 C 12,0 C 0,0 km/h (0 Bft)
18.09.2019 10:11 19,2 C 12,0 C 10,3 C 55 % 61 % 1018,8 hPa 0,0 l/m 0,0 km/h (0 Bft) N-NO 22 4,7 C 12,0 C 0,0 km/h (0 Bft)
18.09.2019 10:10 19,2 C 12,0 C 10,3 C 55 % 61 % 1018,8 hPa 0,0 l/m 0,0 km/h (0 Bft) N-NO 22 4,7 C 12,0 C 0,0 km/h (0 Bft)
18.09.2019 10:09 19,2 C 12,5 C 10,5 C 55 % 61 % 1018,8 hPa 0,0 l/m 0,0 km/h (0 Bft) N-NO 22 5,2 C 12,5 C 0,0 km/h (0 Bft)
18.09.2019 10:08 19,2 C 12,5 C 10,5 C 55 % 61 % 1018,8 hPa 0,0 l/m 0,0 km/h (0 Bft) N-NO 22 5,2 C 12,5 C 0,0 km/h (0 Bft)
18.09.2019 10:07 19,2 C 12,2 C 10,3 C 55 % 61 % 1018,8 hPa 0,0 l/m 0,0 km/h (0 Bft) N-NO 22 4,9 C 12,2 C 0,0 km/h (0 Bft)
18.09.2019 10:06 19,2 C 12,2 C 10,3 C 55 % 61 % 1018,8 hPa 0,0 l/m 0,0 km/h (0 Bft) N-NO 22 4,9 C 12,2 C 0,0 km/h (0 Bft)
18.09.2019 10:05 19,2 C 12,2 C 10,3 C 55 % 61 % 1018,8 hPa 0,0 l/m 0,0 km/h (0 Bft) N-NO 22 4,9 C 12,2 C 0,0 km/h (0 Bft)
18.09.2019 10:04 19,2 C 12,2 C 10,3 C 55 % 61 % 1018,8 hPa 0,0 l/m 0,0 km/h (0 Bft) N-NO 22 4,9 C 12,2 C 0,0 km/h (0 Bft)
18.09.2019 10:03 19,2 C 12,3 C 10,2 C 55 % 62 % 1018,8 hPa 0,0 l/m 0,0 km/h (0 Bft) N-NO 22 5,2 C 12,3 C 0,0 km/h (0 Bft)
18.09.2019 10:02 19,2 C 12,3 C 10,2 C 55 % 62 % 1018,8 hPa 0,0 l/m 0,0 km/h (0 Bft) N-NO 22 5,2 C 12,3 C 0,0 km/h (0 Bft)
18.09.2019 10:01 19,2 C 12,2 C 9,8 C 55 % 62 % 1018,8 hPa 0,0 l/m 0,0 km/h (0 Bft) N-NO 22 5,1 C 12,2 C 0,0 km/h (0 Bft)
18.09.2019 10:00 19,2 C 12,2 C 9,8 C 55 % 62 % 1018,8 hPa 0,0 l/m 0,0 km/h (0 Bft) N-NO 22 5,1 C 12,2 C 0,0 km/h (0 Bft)
18.09.2019 09:59 19,4 C 12,1 C 9,9 C 55 % 62 % 1018,8 hPa 0,0 l/m 0,0 km/h (0 Bft) N-NO 22 5,0 C 12,1 C 0,0 km/h (0 Bft)
18.09.2019 09:58 19,4 C 12,1 C 9,9 C 55 % 62 % 1018,8 hPa 0,0 l/m 0,0 km/h (0 Bft) N-NO 22 5,0 C 12,1 C 0,0 km/h (0 Bft)
18.09.2019 09:57 19,4 C 12,1 C 10,0 C 55 % 63 % 1018,8 hPa 0,0 l/m 0,0 km/h (0 Bft) N-NO 22 5,3 C 12,1 C 0,0 km/h (0 Bft)
18.09.2019 09:56 19,4 C 12,1 C 10,0 C 55 % 63 % 1018,8 hPa 0,0 l/m 0,0 km/h (0 Bft) N-NO 22 5,3 C 12,1 C 0,0 km/h (0 Bft)
18.09.2019 09:55 19,4 C 12,1 C 10,0 C 54 % 63 % 1018,8 hPa 0,0 l/m 0,0 km/h (0 Bft) N-NO 22 5,3 C 12,1 C 0,0 km/h (0 Bft)
18.09.2019 09:54 19,4 C 12,1 C 10,0 C 54 % 63 % 1018,8 hPa 0,0 l/m 0,0 km/h (0 Bft) N-NO 22 5,3 C 12,1 C 0,0 km/h (0 Bft)
18.09.2019 09:53 19,2 C 12,0 C 10,1 C 54 % 63 % 1018,8 hPa 0,0 l/m 0,0 km/h (0 Bft) N-NO 22 5,2 C 12,0 C 0,0 km/h (0 Bft)
18.09.2019 09:52 19,2 C 12,0 C 10,1 C 54 % 63 % 1018,8 hPa 0,0 l/m 0,0 km/h (0 Bft) N-NO 22 5,2 C 12,0 C 0,0 km/h (0 Bft)
18.09.2019 09:51 19,4 C 11,7 C 10,1 C 54 % 63 % 1018,8 hPa 0,0 l/m 0,0 km/h (0 Bft) N-NO 22 4,9 C 11,7 C 0,0 km/h (0 Bft)
18.09.2019 09:50 19,4 C 11,7 C 10,1 C 54 % 63 % 1018,8 hPa 0,0 l/m 0,0 km/h (0 Bft) N-NO 22 4,9 C 11,7 C 0,0 km/h (0 Bft)
18.09.2019 09:49 19,4 C 11,5 C 9,7 C 54 % 63 % 1018,8 hPa 0,0 l/m 0,0 km/h (0 Bft) N-NO 22 4,7 C 11,5 C 0,0 km/h (0 Bft)
18.09.2019 09:48 19,4 C 11,5 C 9,7 C 54 % 63 % 1018,8 hPa 0,0 l/m 0,0 km/h (0 Bft) N-NO 22 4,7 C 11,5 C 0,0 km/h (0 Bft)
18.09.2019 09:47 19,4 C 11,7 C 10,0 C 54 % 63 % 1018,8 hPa 0,0 l/m 0,0 km/h (0 Bft) N-NO 22 4,9 C 11,7 C 0,0 km/h (0 Bft)
18.09.2019 09:46 19,4 C 11,7 C 10,0 C 54 % 63 % 1018,8 hPa 0,0 l/m 0,0 km/h (0 Bft) N-NO 22 4,9 C 11,7 C 0,0 km/h (0 Bft)
18.09.2019 09:45 19,4 C 11,7 C 10,0 C 54 % 63 % 1018,6 hPa 0,0 l/m 0,0 km/h (0 Bft) N-NO 22 4,9 C 11,7 C 0,0 km/h (0 Bft)
18.09.2019 09:44 19,4 C 11,7 C 10,0 C 54 % 63 % 1018,6 hPa 0,0 l/m 0,0 km/h (0 Bft) N-NO 22 4,9 C 11,7 C 0,0 km/h (0 Bft)
18.09.2019 09:43 19,4 C 11,4 C 9,9 C 54 % 63 % 1018,6 hPa 0,0 l/m 0,0 km/h (0 Bft) N-NO 22 4,6 C 11,4 C 0,0 km/h (0 Bft)
18.09.2019 09:42 19,4 C 11,4 C 9,9 C 54 % 63 % 1018,6 hPa 0,0 l/m 0,0 km/h (0 Bft) N-NO 22 4,6 C 11,4 C 0,0 km/h (0 Bft)
18.09.2019 09:41 19,4 C 11,6 C 9,9 C 55 % 68 % 1018,6 hPa 0,0 l/m 0,0 km/h (0 Bft) N-NO 22 5,9 C 11,6 C 0,0 km/h (0 Bft)
18.09.2019 09:38 19,4 C 11,6 C 10,0 C 55 % 68 % 1018,6 hPa 0,0 l/m 0,0 km/h (0 Bft) N-NO 22 5,9 C 11,6 C 0,0 km/h (0 Bft)
18.09.2019 09:33 19,4 C 11,7 C 9,9 C 55 % 68 % 1018,6 hPa 0,0 l/m 0,0 km/h (0 Bft) N-NO 22 6,0 C 11,7 C 0,0 km/h (0 Bft)
18.09.2019 09:28 19,4 C 11,6 C 9,9 C 55 % 70 % 1018,6 hPa 0,0 l/m 0,0 km/h (0 Bft) N-NO 22 6,3 C 11,6 C 0,0 km/h (0 Bft)
18.09.2019 09:26 19,4 C 11,5 C 9,7 C 55 % 71 % 1018,6 hPa 0,0 l/m 0,0 km/h (0 Bft) N-NO 22 6,4 C 11,5 C 0,0 km/h (0 Bft)
18.09.2019 09:25 19,4 C 11,5 C 9,7 C 55 % 71 % 1018,7 hPa 0,0 l/m 0,0 km/h (0 Bft) N-NO 22 6,4 C 11,5 C 0,0 km/h (0 Bft)
18.09.2019 09:24 19,4 C 11,5 C 9,7 C 55 % 71 % 1018,7 hPa 0,0 l/m 0,0 km/h (0 Bft) N-NO 22 6,4 C 11,5 C 0,0 km/h (0 Bft)
18.09.2019 09:23 19,5 C 11,4 C 9,6 C 55 % 71 % 1018,7 hPa 0,0 l/m 0,0 km/h (0 Bft) N-NO 22 6,3 C 11,4 C 0,0 km/h (0 Bft)
18.09.2019 09:22 19,5 C 11,4 C 9,6 C 55 % 71 % 1018,7 hPa 0,0 l/m 0,0 km/h (0 Bft) N-NO 22 6,3 C 11,4 C 0,0 km/h (0 Bft)
18.09.2019 09:21 19,5 C 11,3 C 9,5 C 55 % 72 % 1018,7 hPa 0,0 l/m 0,0 km/h (0 Bft) N-NO 22 6,4 C 11,3 C 0,0 km/h (0 Bft)
18.09.2019 09:20 19,5 C 11,3 C 9,5 C 55 % 72 % 1018,7 hPa 0,0 l/m 0,0 km/h (0 Bft) N-NO 22 6,4 C 11,3 C 0,0 km/h (0 Bft)
18.09.2019 09:19 19,5 C 11,4 C 9,4 C 55 % 72 % 1018,7 hPa 0,0 l/m 0,0 km/h (0 Bft) N-NO 22 6,5 C 11,4 C 0,0 km/h (0 Bft)
18.09.2019 09:18 19,5 C 11,4 C 9,4 C 55 % 72 % 1018,7 hPa 0,0 l/m 0,0 km/h (0 Bft) N-NO 22 6,5 C 11,4 C 0,0 km/h (0 Bft)
18.09.2019 09:17 19,5 C 11,4 C 9,6 C 55 % 72 % 1018,7 hPa 0,0 l/m 0,0 km/h (0 Bft) N-NO 22 6,5 C 11,4 C 0,0 km/h (0 Bft)
18.09.2019 09:16 19,5 C 11,4 C 9,6 C 55 % 72 % 1018,7 hPa 0,0 l/m 0,0 km/h (0 Bft) N-NO 22 6,5 C 11,4 C 0,0 km/h (0 Bft)
18.09.2019 09:15 19,5 C 11,4 C 9,5 C 55 % 72 % 1018,7 hPa 0,0 l/m 0,0 km/h (0 Bft) N-NO 22 6,5 C 11,4 C 0,0 km/h (0 Bft)
18.09.2019 09:14 19,5 C 11,4 C 9,5 C 55 % 72 % 1018,7 hPa 0,0 l/m 0,0 km/h (0 Bft) N-NO 22 6,5 C 11,4 C 0,0 km/h (0 Bft)
18.09.2019 09:13 19,5 C 11,3 C 9,5 C 55 % 72 % 1018,7 hPa 0,0 l/m 0,0 km/h (0 Bft) N-NO 22 6,4 C 11,3 C 0,0 km/h (0 Bft)
18.09.2019 09:12 19,5 C 11,3 C 9,5 C 55 % 72 % 1018,7 hPa 0,0 l/m 0,0 km/h (0 Bft) N-NO 22 6,4 C 11,3 C 0,0 km/h (0 Bft)
18.09.2019 09:11 19,6 C 11,1 C 9,5 C 55 % 72 % 1018,7 hPa 0,0 l/m 0,0 km/h (0 Bft) N-NO 22 6,2 C 11,1 C 0,0 km/h (0 Bft)
18.09.2019 09:10 19,6 C 11,1 C 9,5 C 55 % 72 % 1018,7 hPa 0,0 l/m 0,0 km/h (0 Bft) N-NO 22 6,2 C 11,1 C 0,0 km/h (0 Bft)
18.09.2019 09:09 19,5 C 11,0 C 9,5 C 55 % 72 % 1018,7 hPa 0,0 l/m 0,0 km/h (0 Bft) N-NO 22 6,2 C 11,0 C 0,0 km/h (0 Bft)
18.09.2019 09:08 19,5 C 11,0 C 9,5 C 55 % 72 % 1018,7 hPa 0,0 l/m 0,0 km/h (0 Bft) N-NO 22 6,2 C 11,0 C 0,0 km/h (0 Bft)
18.09.2019 09:07 19,6 C 10,9 C 9,5 C 55 % 74 % 1018,7 hPa 0,0 l/m 0,0 km/h (0 Bft) N-NO 22 6,5 C 10,9 C 0,0 km/h (0 Bft)
18.09.2019 09:06 19,6 C 10,9 C 9,5 C 55 % 74 % 1018,7 hPa 0,0 l/m 0,0 km/h (0 Bft) N-NO 22 6,5 C 10,9 C 0,0 km/h (0 Bft)
18.09.2019 09:05 19,6 C 10,9 C 9,5 C 55 % 74 % 1018,3 hPa 0,0 l/m 0,0 km/h (0 Bft) N-NO 22 6,5 C 10,9 C 0,0 km/h (0 Bft)
18.09.2019 09:04 19,6 C 10,9 C 9,5 C 55 % 74 % 1018,3 hPa 0,0 l/m 0,0 km/h (0 Bft) N-NO 22 6,5 C 10,9 C 0,0 km/h (0 Bft)
18.09.2019 09:03 19,6 C 11,0 C 9,4 C 55 % 76 % 1018,3 hPa 0,0 l/m 0,0 km/h (0 Bft) N-NO 22 6,9 C 11,0 C 0,0 km/h (0 Bft)
18.09.2019 09:02 19,6 C 11,0 C 9,4 C 55 % 76 % 1018,3 hPa 0,0 l/m 0,0 km/h (0 Bft) N-NO 22 6,9 C 11,0 C 0,0 km/h (0 Bft)
18.09.2019 09:01 19,6 C 11,0 C 9,5 C 55 % 77 % 1018,3 hPa 0,0 l/m 0,0 km/h (0 Bft) N-NO 22 7,1 C 11,0 C 0,0 km/h (0 Bft)
18.09.2019 09:00 19,6 C 11,0 C 9,5 C 55 % 77 % 1018,3 hPa 0,0 l/m 0,0 km/h (0 Bft) N-NO 22 7,1 C 11,0 C 0,0 km/h (0 Bft)
18.09.2019 08:59 19,6 C 11,0 C 9,3 C 55 % 77 % 1018,3 hPa 0,0 l/m 0,0 km/h (0 Bft) N-NO 22 7,1 C 11,0 C 0,0 km/h (0 Bft)
18.09.2019 08:58 19,6 C 11,0 C 9,3 C 55 % 77 % 1018,3 hPa 0,0 l/m 0,0 km/h (0 Bft) N-NO 22 7,1 C 11,0 C 0,0 km/h (0 Bft)
18.09.2019 08:57 19,6 C 10,9 C 9,2 C 55 % 78 % 1018,3 hPa 0,0 l/m 0,0 km/h (0 Bft) N-NO 22 7,2 C 10,9 C 0,0 km/h (0 Bft)
18.09.2019 08:56 19,6 C 10,9 C 9,2 C 55 % 78 % 1018,3 hPa 0,0 l/m 0,0 km/h (0 Bft) N-NO 22 7,2 C 10,9 C 0,0 km/h (0 Bft)
18.09.2019 08:55 19,6 C 10,7 C 9,2 C 55 % 78 % 1018,3 hPa 0,0 l/m 0,0 km/h (0 Bft) N-NO 22 7,0 C 10,7 C 0,0 km/h (0 Bft)
18.09.2019 08:54 19,6 C 10,7 C 9,2 C 55 % 78 % 1018,3 hPa 0,0 l/m 0,0 km/h (0 Bft) N-NO 22 7,0 C 10,7 C 0,0 km/h (0 Bft)
18.09.2019 08:53 19,6 C 10,7 C 9,2 C 55 % 79 % 1018,3 hPa 0,0 l/m 0,0 km/h (0 Bft) N-NO 22 7,2 C 10,7 C 0,0 km/h (0 Bft)
18.09.2019 08:52 19,6 C 10,7 C 9,2 C 55 % 79 % 1018,3 hPa 0,0 l/m 0,0 km/h (0 Bft) N-NO 22 7,2 C 10,7 C 0,0 km/h (0 Bft)
18.09.2019 08:51 19,6 C 10,5 C 9,2 C 55 % 79 % 1018,3 hPa 0,0 l/m 0,0 km/h (0 Bft) N-NO 22 7,0 C 10,5 C 0,0 km/h (0 Bft)
18.09.2019 08:50 19,6 C 10,5 C 9,2 C 55 % 79 % 1018,3 hPa 0,0 l/m 0,0 km/h (0 Bft) N-NO 22 7,0 C 10,5 C 0,0 km/h (0 Bft)
18.09.2019 08:49 19,6 C 10,4 C 9,1 C 55 % 80 % 1018,3 hPa 0,0 l/m 0,0 km/h (0 Bft) N-NO 22 7,1 C 10,4 C 0,0 km/h (0 Bft)
18.09.2019 08:48 19,6 C 10,4 C 9,1 C 55 % 80 % 1018,3 hPa 0,0 l/m 0,0 km/h (0 Bft) N-NO 22 7,1 C 10,4 C 0,0 km/h (0 Bft)
18.09.2019 08:47 19,6 C 10,2 C 8,9 C 55 % 80 % 1018,3 hPa 0,0 l/m 0,0 km/h (0 Bft) N-NO 22 6,9 C 10,2 C 0,0 km/h (0 Bft)
18.09.2019 08:46 19,6 C 10,2 C 8,9 C 55 % 80 % 1018,3 hPa 0,0 l/m 0,0 km/h (0 Bft) N-NO 22 6,9 C 10,2 C 0,0 km/h (0 Bft)
18.09.2019 08:45 19,6 C 10,2 C 8,9 C 55 % 80 % 1018,5 hPa 0,0 l/m 0,0 km/h (0 Bft) N-NO 22 6,9 C 10,2 C 0,0 km/h (0 Bft)
18.09.2019 08:44 19,6 C 10,2 C 8,9 C 55 % 80 % 1018,5 hPa 0,0 l/m 0,0 km/h (0 Bft) N-NO 22 6,9 C 10,2 C 0,0 km/h (0 Bft)
18.09.2019 08:43 19,7 C 10,0 C 8,8 C 56 % 81 % 1018,5 hPa 0,0 l/m 0,0 km/h (0 Bft) N-NO 22 6,9 C 10,0 C 0,0 km/h (0 Bft)
18.09.2019 08:42 19,7 C 10,0 C 8,8 C 56 % 81 % 1018,5 hPa 0,0 l/m 0,0 km/h (0 Bft) N-NO 22 6,9 C 10,0 C 0,0 km/h (0 Bft)
18.09.2019 08:41 19,7 C 9,9 C 8,8 C 56 % 82 % 1018,5 hPa 0,0 l/m 0,0 km/h (0 Bft) N-NO 22 7,0 C 9,9 C 0,0 km/h (0 Bft)
18.09.2019 08:40 19,7 C 9,9 C 8,8 C 56 % 82 % 1018,5 hPa 0,0 l/m 0,0 km/h (0 Bft) N-NO 22 7,0 C 9,9 C 0,0 km/h (0 Bft)
18.09.2019 08:39 19,7 C 9,8 C 8,7 C 56 % 82 % 1018,5 hPa 0,0 l/m 0,0 km/h (0 Bft) N-NO 22 6,9 C 9,8 C 0,0 km/h (0 Bft)
18.09.2019 08:38 19,7 C 9,8 C 8,7 C 56 % 82 % 1018,5 hPa 0,0 l/m 0,0 km/h (0 Bft) N-NO 22 6,9 C 9,8 C 0,0 km/h (0 Bft)
18.09.2019 08:37 19,7 C 9,7 C 8,8 C 56 % 82 % 1018,5 hPa 0,0 l/m 0,0 km/h (0 Bft) N-NO 22 6,8 C 9,7 C 0,0 km/h (0 Bft)
18.09.2019 08:36 19,7 C 9,7 C 8,8 C 56 % 82 % 1018,5 hPa 0,0 l/m 0,0 km/h (0 Bft) N-NO 22 6,8 C 9,7 C 0,0 km/h (0 Bft)
18.09.2019 08:35 19,8 C 9,6 C 8,8 C 56 % 82 % 1018,5 hPa 0,0 l/m 0,0 km/h (0 Bft) N-NO 22 6,7 C 9,6 C 0,0 km/h (0 Bft)
18.09.2019 08:34 19,8 C 9,6 C 8,8 C 56 % 82 % 1018,5 hPa 0,0 l/m 0,0 km/h (0 Bft) N-NO 22 6,7 C 9,6 C 0,0 km/h (0 Bft)
18.09.2019 08:33 19,8 C 9,4 C 8,7 C 56 % 82 % 1018,5 hPa 0,0 l/m 0,0 km/h (0 Bft) N-NO 22 6,5 C 9,4 C 0,0 km/h (0 Bft)
18.09.2019 08:32 19,8 C 9,4 C 8,7 C 56 % 82 % 1018,5 hPa 0,0 l/m 0,0 km/h (0 Bft) N-NO 22 6,5 C 9,4 C 0,0 km/h (0 Bft)
18.09.2019 08:31 19,8 C 9,2 C 8,6 C 56 % 82 % 1018,5 hPa 0,0 l/m 0,0 km/h (0 Bft) N-NO 22 6,3 C 9,2 C 0,0 km/h (0 Bft)
18.09.2019 08:30 19,8 C 9,2 C 8,6 C 56 % 82 % 1018,5 hPa 0,0 l/m 0,0 km/h (0 Bft) N-NO 22 6,3 C 9,2 C 0,0 km/h (0 Bft)
18.09.2019 08:29 19,8 C 9,1 C 8,2 C 56 % 82 % 1018,5 hPa 0,0 l/m 0,0 km/h (0 Bft) N-NO 22 6,2 C 9,1 C 0,0 km/h (0 Bft)
18.09.2019 08:28 19,8 C 9,1 C 8,2 C 56 % 82 % 1018,5 hPa 0,0 l/m 0,0 km/h (0 Bft) N-NO 22 6,2 C 9,1 C 0,0 km/h (0 Bft)
18.09.2019 08:27 19,8 C 8,7 C 7,9 C 56 % 83 % 1018,5 hPa 0,0 l/m 0,0 km/h (0 Bft) N-NO 22 6,0 C 8,7 C 0,0 km/h (0 Bft)
18.09.2019 08:26 19,8 C 8,7 C 7,9 C 56 % 83 % 1018,5 hPa 0,0 l/m 0,0 km/h (0 Bft) N-NO 22 6,0 C 8,7 C 0,0 km/h (0 Bft)
18.09.2019 08:25 19,8 C 8,7 C 7,9 C 56 % 83 % 1018,4 hPa 0,0 l/m 0,0 km/h (0 Bft) N-NO 22 6,0 C 8,7 C 0,0 km/h (0 Bft)
18.09.2019 08:24 19,8 C 8,7 C 7,9 C 56 % 83 % 1018,4 hPa 0,0 l/m 0,0 km/h (0 Bft) N-NO 22 6,0 C 8,7 C 0,0 km/h (0 Bft)
18.09.2019 08:23 19,8 C 8,6 C 7,8 C 56 % 83 % 1018,4 hPa 0,0 l/m 0,0 km/h (0 Bft) N-NO 22 5,9 C 8,6 C 0,0 km/h (0 Bft)
18.09.2019 08:22 19,8 C 8,6 C 7,8 C 56 % 83 % 1018,4 hPa 0,0 l/m 0,0 km/h (0 Bft) N-NO 22 5,9 C 8,6 C 0,0 km/h (0 Bft)
18.09.2019 08:21 19,8 C 8,5 C 7,8 C 56 % 83 % 1018,4 hPa 0,0 l/m 0,0 km/h (0 Bft) N-NO 22 5,8 C 8,5 C 0,0 km/h (0 Bft)
18.09.2019 08:20 19,8 C 8,5 C 7,8 C 56 % 83 % 1018,4 hPa 0,0 l/m 0,0 km/h (0 Bft) N-NO 22 5,8 C 8,5 C 0,0 km/h (0 Bft)
18.09.2019 08:19 19,8 C 8,4 C 7,9 C 56 % 83 % 1018,4 hPa 0,0 l/m 0,0 km/h (0 Bft) N-NO 22 5,7 C 8,4 C 0,0 km/h (0 Bft)
18.09.2019 08:18 19,8 C 8,4 C 7,9 C 56 % 83 % 1018,4 hPa 0,0 l/m 0,0 km/h (0 Bft) N-NO 22 5,7 C 8,4 C 0,0 km/h (0 Bft)
18.09.2019 08:17 19,8 C 8,3 C 7,6 C 56 % 83 % 1018,4 hPa 0,0 l/m 0,0 km/h (0 Bft) N-NO 22 5,6 C 8,3 C 0,0 km/h (0 Bft)
18.09.2019 08:16 19,8 C 8,3 C 7,6 C 56 % 83 % 1018,4 hPa 0,0 l/m 0,0 km/h (0 Bft) N-NO 22 5,6 C 8,3 C 0,0 km/h (0 Bft)
18.09.2019 08:15 19,9 C 8,2 C 7,4 C 56 % 83 % 1018,4 hPa 0,0 l/m 0,0 km/h (0 Bft) N-NO 22 5,5 C 8,2 C 0,0 km/h (0 Bft)
18.09.2019 08:14 19,9 C 8,2 C 7,4 C 56 % 83 % 1018,4 hPa 0,0 l/m 0,0 km/h (0 Bft) N-NO 22 5,5 C 8,2 C 0,0 km/h (0 Bft)
18.09.2019 08:13 19,9 C 8,1 C 7,3 C 56 % 83 % 1018,4 hPa 0,0 l/m 0,0 km/h (0 Bft) N-NO 22 5,4 C 8,1 C 0,0 km/h (0 Bft)
18.09.2019 08:12 19,9 C 8,1 C 7,3 C 56 % 83 % 1018,4 hPa 0,0 l/m 0,0 km/h (0 Bft) N-NO 22 5,4 C 8,1 C 0,0 km/h (0 Bft)
18.09.2019 08:11 19,9 C 8,0 C 7,3 C 56 % 83 % 1018,4 hPa 0,0 l/m 0,0 km/h (0 Bft) N-NO 22 5,3 C 8,0 C 0,0 km/h (0 Bft)
18.09.2019 08:10 19,9 C 8,0 C 7,3 C 56 % 83 % 1018,4 hPa 0,0 l/m 0,0 km/h (0 Bft) N-NO 22 5,3 C 8,0 C 0,0 km/h (0 Bft)
18.09.2019 08:09 19,9 C 7,9 C 7,3 C 56 % 83 % 1018,4 hPa 0,0 l/m 0,0 km/h (0 Bft) N-NO 22 5,2 C 7,9 C 0,0 km/h (0 Bft)
18.09.2019 08:08 19,9 C 7,9 C 7,3 C 56 % 83 % 1018,4 hPa 0,0 l/m 0,0 km/h (0 Bft) N-NO 22 5,2 C 7,9 C 0,0 km/h (0 Bft)
18.09.2019 08:07 19,9 C 7,8 C 7,1 C 56 % 83 % 1018,4 hPa 0,0 l/m 0,0 km/h (0 Bft) N-NO 22 5,1 C 7,8 C 0,0 km/h (0 Bft)
18.09.2019 08:06 19,9 C 7,8 C 7,1 C 56 % 83 % 1018,4 hPa 0,0 l/m 0,0 km/h (0 Bft) N-NO 22 5,1 C 7,8 C 0,0 km/h (0 Bft)
18.09.2019 08:05 19,9 C 7,8 C 7,1 C 56 % 83 % 1018,3 hPa 0,0 l/m 0,0 km/h (0 Bft) N-NO 22 5,1 C 7,8 C 0,0 km/h (0 Bft)
18.09.2019 08:04 19,9 C 7,8 C 7,1 C 56 % 83 % 1018,3 hPa 0,0 l/m 0,0 km/h (0 Bft) N-NO 22 5,1 C 7,8 C 0,0 km/h (0 Bft)
18.09.2019 08:03 20,0 C 7,7 C 7,1 C 56 % 83 % 1018,3 hPa 0,0 l/m 0,0 km/h (0 Bft) N-NO 22 5,0 C 7,7 C 0,0 km/h (0 Bft)
18.09.2019 08:02 20,0 C 7,7 C 7,1 C 56 % 83 % 1018,3 hPa 0,0 l/m 0,0 km/h (0 Bft) N-NO 22 5,0 C 7,7 C 0,0 km/h (0 Bft)
18.09.2019 08:01 20,0 C 7,6 C 6,7 C 56 % 83 % 1018,3 hPa 0,0 l/m 0,0 km/h (0 Bft) N-NO 22 4,9 C 7,6 C 0,0 km/h (0 Bft)
18.09.2019 08:00 20,0 C 7,6 C 6,7 C 56 % 83 % 1018,3 hPa 0,0 l/m 0,0 km/h (0 Bft) N-NO 22 4,9 C 7,6 C 0,0 km/h (0 Bft)
18.09.2019 07:59 20,0 C 7,6 C 6,7 C 56 % 83 % 1018,3 hPa 0,0 l/m 0,0 km/h (0 Bft) N-NO 22 4,9 C 7,6 C 0,0 km/h (0 Bft)
18.09.2019 07:58 20,0 C 7,6 C 6,7 C 56 % 83 % 1018,3 hPa 0,0 l/m 0,0 km/h (0 Bft) N-NO 22 4,9 C 7,6 C 0,0 km/h (0 Bft)
18.09.2019 07:57 20,0 C 7,6 C 6,8 C 56 % 83 % 1018,3 hPa 0,0 l/m 0,0 km/h (0 Bft) N-NO 22 4,9 C 7,6 C 0,0 km/h (0 Bft)
18.09.2019 07:56 20,0 C 7,6 C 6,8 C 56 % 83 % 1018,3 hPa 0,0 l/m 0,0 km/h (0 Bft) N-NO 22 4,9 C 7,6 C 0,0 km/h (0 Bft)
18.09.2019 07:55 20,0 C 7,5 C 6,7 C 56 % 83 % 1018,3 hPa 0,0 l/m 0,0 km/h (0 Bft) N-NO 22 4,8 C 7,5 C 0,0 km/h (0 Bft)
18.09.2019 07:54 20,0 C 7,5 C 6,7 C 56 % 83 % 1018,3 hPa 0,0 l/m 0,0 km/h (0 Bft) N-NO 22 4,8 C 7,5 C 0,0 km/h (0 Bft)
18.09.2019 07:53 20,1 C 7,4 C 6,5 C 56 % 82 % 1018,3 hPa 0,0 l/m 0,0 km/h (0 Bft) N-NO 22 4,5 C 7,4 C 0,0 km/h (0 Bft)
18.09.2019 07:52 20,1 C 7,4 C 6,5 C 56 % 82 % 1018,3 hPa 0,0 l/m 0,0 km/h (0 Bft) N-NO 22 4,5 C 7,4 C 0,0 km/h (0 Bft)
18.09.2019 07:51 20,1 C 7,2 C 6,5 C 57 % 82 % 1018,3 hPa 0,0 l/m 0,0 km/h (0 Bft) N-NO 22 4,3 C 7,2 C 0,0 km/h (0 Bft)
18.09.2019 07:50 20,1 C 7,2 C 6,5 C 57 % 82 % 1018,3 hPa 0,0 l/m 0,0 km/h (0 Bft) N-NO 22 4,3 C 7,2 C 0,0 km/h (0 Bft)
18.09.2019 07:49 20,1 C 7,2 C 6,5 C 57 % 82 % 1018,3 hPa 0,0 l/m 0,0 km/h (0 Bft) N-NO 22 4,3 C 7,2 C 0,0 km/h (0 Bft)
18.09.2019 07:48 20,1 C 7,2 C 6,5 C 57 % 82 % 1018,3 hPa 0,0 l/m 0,0 km/h (0 Bft) N-NO 22 4,3 C 7,2 C 0,0 km/h (0 Bft)
18.09.2019 07:47 20,1 C 7,2 C 6,4 C 57 % 82 % 1018,3 hPa 0,0 l/m 0,0 km/h (0 Bft) N-NO 22 4,3 C 7,2 C 0,0 km/h (0 Bft)
18.09.2019 07:46 20,1 C 7,2 C 6,4 C 57 % 82 % 1018,3 hPa 0,0 l/m 0,0 km/h (0 Bft) N-NO 22 4,3 C 7,2 C 0,0 km/h (0 Bft)
18.09.2019 07:45 20,1 C 7,2 C 6,4 C 57 % 82 % 1018,4 hPa 0,0 l/m 0,0 km/h (0 Bft) N-NO 22 4,3 C 7,2 C 0,0 km/h (0 Bft)
18.09.2019 07:44 20,1 C 7,2 C 6,4 C 57 % 82 % 1018,4 hPa 0,0 l/m 0,0 km/h (0 Bft) N-NO 22 4,3 C 7,2 C 0,0 km/h (0 Bft)
18.09.2019 07:43 20,2 C 7,4 C 6,5 C 57 % 82 % 1018,4 hPa 0,0 l/m 0,0 km/h (0 Bft) N-NO 22 4,5 C 7,4 C 0,0 km/h (0 Bft)
18.09.2019 07:42 20,2 C 7,4 C 6,5 C 57 % 82 % 1018,4 hPa 0,0 l/m 0,0 km/h (0 Bft) N-NO 22 4,5 C 7,4 C 0,0 km/h (0 Bft)
18.09.2019 07:41 20,2 C 7,4 C 6,5 C 57 % 82 % 1018,4 hPa 0,0 l/m 0,0 km/h (0 Bft) N-NO 22 4,5 C 7,4 C 0,0 km/h (0 Bft)
18.09.2019 07:40 20,2 C 7,4 C 6,5 C 57 % 82 % 1018,4 hPa 0,0 l/m 0,0 km/h (0 Bft) N-NO 22 4,5 C 7,4 C 0,0 km/h (0 Bft)
18.09.2019 07:39 20,2 C 7,4 C 6,5 C 57 % 82 % 1018,4 hPa 0,0 l/m 0,0 km/h (0 Bft) N-NO 22 4,5 C 7,4 C 0,0 km/h (0 Bft)
18.09.2019 07:38 20,2 C 7,4 C 6,5 C 57 % 82 % 1018,4 hPa 0,0 l/m 0,0 km/h (0 Bft) N-NO 22 4,5 C 7,4 C 0,0 km/h (0 Bft)
18.09.2019 07:37 20,2 C 7,4 C 6,6 C 57 % 82 % 1018,4 hPa 0,0 l/m 0,0 km/h (0 Bft) N-NO 22 4,5 C 7,4 C 0,0 km/h (0 Bft)
18.09.2019 07:36 20,2 C 7,4 C 6,6 C 57 % 82 % 1018,4 hPa 0,0 l/m 0,0 km/h (0 Bft) N-NO 22 4,5 C 7,4 C 0,0 km/h (0 Bft)
18.09.2019 07:35 20,2 C 7,2 C 6,5 C 57 % 82 % 1018,4 hPa 0,0 l/m 0,0 km/h (0 Bft) N-NO 22 4,3 C 7,2 C 0,0 km/h (0 Bft)
18.09.2019 07:34 20,2 C 7,2 C 6,5 C 57 % 82 % 1018,4 hPa 0,0 l/m 0,0 km/h (0 Bft) N-NO 22 4,3 C 7,2 C 0,0 km/h (0 Bft)
18.09.2019 07:33 20,2 C 7,2 C 6,6 C 57 % 82 % 1018,4 hPa 0,0 l/m 0,0 km/h (0 Bft) N-NO 22 4,3 C 7,2 C 0,0 km/h (0 Bft)
18.09.2019 07:32 20,2 C 7,2 C 6,6 C 57 % 82 % 1018,4 hPa 0,0 l/m 0,0 km/h (0 Bft) N-NO 22 4,3 C 7,2 C 0,0 km/h (0 Bft)
18.09.2019 07:31 20,3 C 7,2 C 6,5 C 57 % 82 % 1018,4 hPa 0,0 l/m 0,0 km/h (0 Bft) N-NO 22 4,3 C 7,2 C 0,0 km/h (0 Bft)
18.09.2019 07:30 20,3 C 7,2 C 6,5 C 57 % 82 % 1018,4 hPa 0,0 l/m 0,0 km/h (0 Bft) N-NO 22 4,3 C 7,2 C 0,0 km/h (0 Bft)
18.09.2019 07:29 20,3 C 7,1 C 6,4 C 57 % 82 % 1018,4 hPa 0,0 l/m 0,0 km/h (0 Bft) N-NO 22 4,2 C 7,1 C 0,0 km/h (0 Bft)
18.09.2019 07:28 20,3 C 7,1 C 6,4 C 57 % 82 % 1018,4 hPa 0,0 l/m 0,0 km/h (0 Bft) N-NO 22 4,2 C 7,1 C 0,0 km/h (0 Bft)
18.09.2019 07:27 20,2 C 7,0 C 6,5 C 57 % 82 % 1018,4 hPa 0,0 l/m 0,0 km/h (0 Bft) N-NO 22 4,1 C 7,0 C 0,0 km/h (0 Bft)
18.09.2019 07:26 20,2 C 7,0 C 6,5 C 57 % 82 % 1018,4 hPa 0,0 l/m 0,0 km/h (0 Bft) N-NO 22 4,1 C 7,0 C 0,0 km/h (0 Bft)
18.09.2019 07:25 20,2 C 7,0 C 6,5 C 57 % 82 % 1018,5 hPa 0,0 l/m 0,0 km/h (0 Bft) N-NO 22 4,1 C 7,0 C 0,0 km/h (0 Bft)
18.09.2019 07:24 20,2 C 7,0 C 6,5 C 57 % 82 % 1018,5 hPa 0,0 l/m 0,0 km/h (0 Bft) N-NO 22 4,1 C 7,0 C 0,0 km/h (0 Bft)
18.09.2019 07:23 20,4 C 6,9 C 6,2 C 57 % 82 % 1018,5 hPa 0,0 l/m 0,0 km/h (0 Bft) N-NO 22 4,0 C 6,9 C 0,0 km/h (0 Bft)
18.09.2019 07:22 20,4 C 6,9 C 6,2 C 57 % 82 % 1018,5 hPa 0,0 l/m 0,0 km/h (0 Bft) N-NO 22 4,0 C 6,9 C 0,0 km/h (0 Bft)
18.09.2019 07:21 20,4 C 6,8 C 6,2 C 57 % 82 % 1018,5 hPa 0,0 l/m 0,0 km/h (0 Bft) N-NO 22 3,9 C 6,8 C 0,0 km/h (0 Bft)
18.09.2019 07:20 20,4 C 6,8 C 6,2 C 57 % 82 % 1018,5 hPa 0,0 l/m 0,0 km/h (0 Bft) N-NO 22 3,9 C 6,8 C 0,0 km/h (0 Bft)
18.09.2019 07:19 20,4 C 6,9 C 6,2 C 57 % 82 % 1018,5 hPa 0,0 l/m 0,0 km/h (0 Bft) N-NO 22 4,0 C 6,9 C 0,0 km/h (0 Bft)
18.09.2019 07:18 20,4 C 6,9 C 6,2 C 57 % 82 % 1018,5 hPa 0,0 l/m 0,0 km/h (0 Bft) N-NO 22 4,0 C 6,9 C 0,0 km/h (0 Bft)
18.09.2019 07:17 20,4 C 6,9 C 6,3 C 57 % 82 % 1018,5 hPa 0,0 l/m 0,0 km/h (0 Bft) N-NO 22 4,0 C 6,9 C 0,0 km/h (0 Bft)
18.09.2019 07:16 20,4 C 6,9 C 6,3 C 57 % 82 % 1018,5 hPa 0,0 l/m 0,0 km/h (0 Bft) N-NO 22 4,0 C 6,9 C 0,0 km/h (0 Bft)
18.09.2019 07:15 20,4 C 6,9 C 6,3 C 57 % 82 % 1018,5 hPa 0,0 l/m 0,0 km/h (0 Bft) N-NO 22 4,0 C 6,9 C 0,0 km/h (0 Bft)
18.09.2019 07:14 20,4 C 6,9 C 6,3 C 57 % 82 % 1018,5 hPa 0,0 l/m 0,0 km/h (0 Bft) N-NO 22 4,0 C 6,9 C 0,0 km/h (0 Bft)
18.09.2019 07:13 20,4 C 6,8 C 6,2 C 57 % 82 % 1018,5 hPa 0,0 l/m 0,0 km/h (0 Bft) N-NO 22 3,9 C 6,8 C 0,0 km/h (0 Bft)
18.09.2019 07:12 20,4 C 6,8 C 6,2 C 57 % 82 % 1018,5 hPa 0,0 l/m 0,0 km/h (0 Bft) N-NO 22 3,9 C 6,8 C 0,0 km/h (0 Bft)
18.09.2019 07:11 20,4 C 6,7 C 6,1 C 57 % 82 % 1018,5 hPa 0,0 l/m 0,0 km/h (0 Bft) N-NO 22 3,8 C 6,7 C 0,0 km/h (0 Bft)
18.09.2019 07:10 20,4 C 6,7 C 6,1 C 57 % 82 % 1018,5 hPa 0,0 l/m 0,0 km/h (0 Bft) N-NO 22 3,8 C 6,7 C 0,0 km/h (0 Bft)
18.09.2019 07:09 20,5 C 6,8 C 6,1 C 57 % 82 % 1018,5 hPa 0,0 l/m 0,0 km/h (0 Bft) N-NO 22 3,9 C 6,8 C 0,0 km/h (0 Bft)
18.09.2019 07:08 20,5 C 6,8 C 6,1 C 57 % 82 % 1018,5 hPa 0,0 l/m 0,0 km/h (0 Bft) N-NO 22 3,9 C 6,8 C 0,0 km/h (0 Bft)
18.09.2019 07:07 20,5 C 6,9 C 6,1 C 58 % 82 % 1018,5 hPa 0,0 l/m 0,0 km/h (0 Bft) N-NO 22 4,0 C 6,9 C 0,0 km/h (0 Bft)
18.09.2019 07:06 20,5 C 6,9 C 6,1 C 58 % 82 % 1018,5 hPa 0,0 l/m 0,0 km/h (0 Bft) N-NO 22 4,0 C 6,9 C 0,0 km/h (0 Bft)
18.09.2019 07:05 20,5 C 6,9 C 6,1 C 58 % 82 % 1018,8 hPa 0,0 l/m 0,0 km/h (0 Bft) N-NO 22 4,0 C 6,9 C 0,0 km/h (0 Bft)
18.09.2019 07:04 20,5 C 6,9 C 6,1 C 58 % 82 % 1018,8 hPa 0,0 l/m 0,0 km/h (0 Bft) N-NO 22 4,0 C 6,9 C 0,0 km/h (0 Bft)
18.09.2019 07:03 20,6 C 6,9 C 6,1 C 58 % 82 % 1018,8 hPa 0,0 l/m 0,0 km/h (0 Bft) N-NO 22 4,0 C 6,9 C 0,0 km/h (0 Bft)
18.09.2019 07:02 20,6 C 6,9 C 6,1 C 58 % 82 % 1018,8 hPa 0,0 l/m 0,0 km/h (0 Bft) N-NO 22 4,0 C 6,9 C 0,0 km/h (0 Bft)
18.09.2019 07:01 20,6 C 6,9 C 6,2 C 59 % 82 % 1018,8 hPa 0,0 l/m 0,0 km/h (0 Bft) N-NO 22 4,0 C 6,9 C 0,0 km/h (0 Bft)
18.09.2019 07:00 20,6 C 6,9 C 6,2 C 59 % 82 % 1018,8 hPa 0,0 l/m 0,0 km/h (0 Bft) N-NO 22 4,0 C 6,9 C 0,0 km/h (0 Bft)
18.09.2019 06:59 20,6 C 6,8 C 5,9 C 59 % 82 % 1018,8 hPa 0,0 l/m 0,0 km/h (0 Bft) N-NO 22 3,9 C 6,8 C 0,0 km/h (0 Bft)
18.09.2019 06:58 20,6 C 6,8 C 5,9 C 59 % 82 % 1018,8 hPa 0,0 l/m 0,0 km/h (0 Bft) N-NO 22 3,9 C 6,8 C 0,0 km/h (0 Bft)
18.09.2019 06:57 20,6 C 6,8 C 6,1 C 60 % 82 % 1018,8 hPa 0,0 l/m 0,0 km/h (0 Bft) N-NO 22 3,9 C 6,8 C 0,0 km/h (0 Bft)
18.09.2019 06:56 20,6 C 6,8 C 6,1 C 60 % 82 % 1018,8 hPa 0,0 l/m 0,0 km/h (0 Bft) N-NO 22 3,9 C 6,8 C 0,0 km/h (0 Bft)
18.09.2019 06:55 20,7 C 6,9 C 5,9 C 60 % 82 % 1018,8 hPa 0,0 l/m 0,0 km/h (0 Bft) N-NO 22 4,0 C 6,9 C 0,0 km/h (0 Bft)
18.09.2019 06:54 20,7 C 6,9 C 5,9 C 60 % 82 % 1018,8 hPa 0,0 l/m 0,0 km/h (0 Bft) N-NO 22 4,0 C 6,9 C 0,0 km/h (0 Bft)
18.09.2019 06:53 20,7 C 6,9 C 6,1 C 61 % 82 % 1018,8 hPa 0,0 l/m 0,0 km/h (0 Bft) N-NO 22 4,0 C 6,9 C 0,0 km/h (0 Bft)
18.09.2019 06:52 20,7 C 6,9 C 6,1 C 61 % 82 % 1018,8 hPa 0,0 l/m 0,0 km/h (0 Bft) N-NO 22 4,0 C 6,9 C 0,0 km/h (0 Bft)
18.09.2019 06:51 20,7 C 7,1 C 6,2 C 61 % 81 % 1018,8 hPa 0,0 l/m 0,0 km/h (0 Bft) N-NO 22 4,1 C 7,1 C 0,0 km/h (0 Bft)
18.09.2019 06:50 20,7 C 7,1 C 6,2 C 61 % 81 % 1018,8 hPa 0,0 l/m 0,0 km/h (0 Bft) N-NO 22 4,1 C 7,1 C 0,0 km/h (0 Bft)
18.09.2019 06:49 20,8 C 7,1 C 6,3 C 62 % 81 % 1018,8 hPa 0,0 l/m 0,0 km/h (0 Bft) N-NO 22 4,1 C 7,1 C 0,0 km/h (0 Bft)
18.09.2019 06:48 20,8 C 7,1 C 6,3 C 62 % 81 % 1018,8 hPa 0,0 l/m 0,0 km/h (0 Bft) N-NO 22 4,1 C 7,1 C 0,0 km/h (0 Bft)
18.09.2019 06:47 20,8 C 7,0 C 6,4 C 64 % 81 % 1018,8 hPa 0,0 l/m 0,0 km/h (0 Bft) N-NO 22 4,0 C 7,0 C 0,0 km/h (0 Bft)
18.09.2019 06:46 20,8 C 7,0 C 6,4 C 64 % 81 % 1018,8 hPa 0,0 l/m 0,0 km/h (0 Bft) N-NO 22 4,0 C 7,0 C 0,0 km/h (0 Bft)
18.09.2019 06:45 20,8 C 7,0 C 6,4 C 64 % 81 % 1018,7 hPa 0,0 l/m 0,0 km/h (0 Bft) N-NO 22 4,0 C 7,0 C 0,0 km/h (0 Bft)
18.09.2019 06:44 20,8 C 7,0 C 6,4 C 64 % 81 % 1018,7 hPa 0,0 l/m 0,0 km/h (0 Bft) N-NO 22 4,0 C 7,0 C 0,0 km/h (0 Bft)
18.09.2019 06:43 20,9 C 7,0 C 6,4 C 66 % 81 % 1018,7 hPa 0,0 l/m 0,0 km/h (0 Bft) N-NO 22 4,0 C 7,0 C 0,0 km/h (0 Bft)
18.09.2019 06:42 20,9 C 7,0 C 6,4 C 66 % 81 % 1018,7 hPa 0,0 l/m 0,0 km/h (0 Bft) N-NO 22 4,0 C 7,0 C 0,0 km/h (0 Bft)
18.09.2019 06:41 20,9 C 6,8 C 6,3 C 70 % 81 % 1018,7 hPa 0,0 l/m 0,0 km/h (0 Bft) N-NO 22 3,8 C 6,8 C 0,0 km/h (0 Bft)
18.09.2019 06:40 20,9 C 6,8 C 6,3 C 70 % 81 % 1018,7 hPa 0,0 l/m 0,0 km/h (0 Bft) N-NO 22 3,8 C 6,8 C 0,0 km/h (0 Bft)
18.09.2019 06:39 20,9 C 6,7 C 6,3 C 70 % 81 % 1018,7 hPa 0,0 l/m 0,0 km/h (0 Bft) N-NO 22 3,7 C 6,7 C 0,0 km/h (0 Bft)
18.09.2019 06:38 20,9 C 6,7 C 6,3 C 70 % 81 % 1018,7 hPa 0,0 l/m 0,0 km/h (0 Bft) N-NO 22 3,7 C 6,7 C 0,0 km/h (0 Bft)
18.09.2019 06:37 20,9 C 6,7 C 6,1 C 70 % 81 % 1018,7 hPa 0,0 l/m 0,0 km/h (0 Bft) N-NO 22 3,7 C 6,7 C 0,0 km/h (0 Bft)
18.09.2019 06:36 20,9 C 6,7 C 6,1 C 70 % 81 % 1018,7 hPa 0,0 l/m 0,0 km/h (0 Bft) N-NO 22 3,7 C 6,7 C 0,0 km/h (0 Bft)
18.09.2019 06:35 20,9 C 6,7 C 6,1 C 70 % 81 % 1018,7 hPa 0,0 l/m 0,0 km/h (0 Bft) N-NO 22 3,7 C 6,7 C 0,0 km/h (0 Bft)
18.09.2019 06:34 20,9 C 6,7 C 6,1 C 70 % 81 % 1018,7 hPa 0,0 l/m 0,0 km/h (0 Bft) N-NO 22 3,7 C 6,7 C 0,0 km/h (0 Bft)
18.09.2019 06:33 20,9 C 6,8 C 6,1 C 70 % 81 % 1018,7 hPa 0,0 l/m 0,0 km/h (0 Bft) N-NO 22 3,8 C 6,8 C 0,0 km/h (0 Bft)
18.09.2019 06:32 20,9 C 6,8 C 6,1 C 70 % 81 % 1018,7 hPa 0,0 l/m 0,0 km/h (0 Bft) N-NO 22 3,8 C 6,8 C 0,0 km/h (0 Bft)
18.09.2019 06:31 20,9 C 6,9 C 6,1 C 70 % 81 % 1018,7 hPa 0,0 l/m 0,0 km/h (0 Bft) N-NO 22 3,9 C 6,9 C 0,0 km/h (0 Bft)
18.09.2019 06:30 20,9 C 6,9 C 6,1 C 70 % 81 % 1018,7 hPa 0,0 l/m 0,0 km/h (0 Bft) N-NO 22 3,9 C 6,9 C 0,0 km/h (0 Bft)
18.09.2019 06:29 20,9 C 6,7 C 6,2 C 70 % 81 % 1018,7 hPa 0,0 l/m 0,0 km/h (0 Bft) N-NO 22 3,7 C 6,7 C 0,0 km/h (0 Bft)
18.09.2019 06:28 20,9 C 6,7 C 6,2 C 70 % 81 % 1018,7 hPa 0,0 l/m 0,0 km/h (0 Bft) N-NO 22 3,7 C 6,7 C 0,0 km/h (0 Bft)
18.09.2019 06:27 20,9 C 6,7 C 6,2 C 70 % 81 % 1018,7 hPa 0,0 l/m 0,0 km/h (0 Bft) N-NO 22 3,7 C 6,7 C 0,0 km/h (0 Bft)
18.09.2019 06:26 20,9 C 6,7 C 6,2 C 70 % 81 % 1018,7 hPa 0,0 l/m 0,0 km/h (0 Bft) N-NO 22 3,7 C 6,7 C 0,0 km/h (0 Bft)
18.09.2019 06:25 20,9 C 6,7 C 6,2 C 70 % 81 % 1018,6 hPa 0,0 l/m 0,0 km/h (0 Bft) N-NO 22 3,7 C 6,7 C 0,0 km/h (0 Bft)
18.09.2019 06:24 20,9 C 6,7 C 6,2 C 70 % 81 % 1018,6 hPa 0,0 l/m 0,0 km/h (0 Bft) N-NO 22 3,7 C 6,7 C 0,0 km/h (0 Bft)
18.09.2019 06:23 20,9 C 6,8 C 6,2 C 70 % 81 % 1018,6 hPa 0,0 l/m 0,0 km/h (0 Bft) N-NO 22 3,8 C 6,8 C 0,0 km/h (0 Bft)
18.09.2019 06:22 20,9 C 6,8 C 6,2 C 70 % 81 % 1018,6 hPa 0,0 l/m 0,0 km/h (0 Bft) N-NO 22 3,8 C 6,8 C 0,0 km/h (0 Bft)
18.09.2019 06:21 20,9 C 6,9 C 6,3 C 70 % 81 % 1018,6 hPa 0,0 l/m 0,0 km/h (0 Bft) N-NO 22 3,9 C 6,9 C 0,0 km/h (0 Bft)
18.09.2019 06:20 20,9 C 6,9 C 6,3 C 70 % 81 % 1018,6 hPa 0,0 l/m 0,0 km/h (0 Bft) N-NO 22 3,9 C 6,9 C 0,0 km/h (0 Bft)
18.09.2019 06:19 21,0 C 6,8 C 6,4 C 70 % 81 % 1018,6 hPa 0,0 l/m 0,0 km/h (0 Bft) N-NO 22 3,8 C 6,8 C 0,0 km/h (0 Bft)
18.09.2019 06:18 21,0 C 6,8 C 6,4 C 70 % 81 % 1018,6 hPa 0,0 l/m 0,0 km/h (0 Bft) N-NO 22 3,8 C 6,8 C 0,0 km/h (0 Bft)
18.09.2019 06:17 20,9 C 6,8 C 6,4 C 70 % 81 % 1018,6 hPa 0,0 l/m 0,0 km/h (0 Bft) N-NO 22 3,8 C 6,8 C 0,0 km/h (0 Bft)
18.09.2019 06:16 20,9 C 6,8 C 6,4 C 70 % 81 % 1018,6 hPa 0,0 l/m 0,0 km/h (0 Bft) N-NO 22 3,8 C 6,8 C 0,0 km/h (0 Bft)
18.09.2019 06:15 21,0 C 6,8 C 6,4 C 70 % 81 % 1018,6 hPa 0,0 l/m 0,0 km/h (0 Bft) N-NO 22 3,8 C 6,8 C 0,0 km/h (0 Bft)
18.09.2019 06:14 21,0 C 6,8 C 6,4 C 70 % 81 % 1018,6 hPa 0,0 l/m 0,0 km/h (0 Bft) N-NO 22 3,8 C 6,8 C 0,0 km/h (0 Bft)
18.09.2019 06:13 21,0 C 6,9 C 6,4 C 70 % 81 % 1018,6 hPa 0,0 l/m 0,0 km/h (0 Bft) N-NO 22 3,9 C 6,9 C 0,0 km/h (0 Bft)
18.09.2019 06:12 21,0 C 6,9 C 6,4 C 70 % 81 % 1018,6 hPa 0,0 l/m 0,0 km/h (0 Bft) N-NO 22 3,9 C 6,9 C 0,0 km/h (0 Bft)
18.09.2019 06:11 21,0 C 7,0 C 6,5 C 70 % 81 % 1018,6 hPa 0,0 l/m 0,0 km/h (0 Bft) N-NO 22 4,0 C 7,0 C 0,0 km/h (0 Bft)
18.09.2019 06:10 21,0 C 7,0 C 6,5 C 70 % 81 % 1018,6 hPa 0,0 l/m 0,0 km/h (0 Bft) N-NO 22 4,0 C 7,0 C 0,0 km/h (0 Bft)
18.09.2019 06:09 21,0 C 7,0 C 6,6 C 70 % 81 % 1018,6 hPa 0,0 l/m 0,0 km/h (0 Bft) N-NO 22 4,0 C 7,0 C 0,0 km/h (0 Bft)
18.09.2019 06:08 21,0 C 7,0 C 6,6 C 70 % 81 % 1018,6 hPa 0,0 l/m 0,0 km/h (0 Bft) N-NO 22 4,0 C 7,0 C 0,0 km/h (0 Bft)
18.09.2019 06:07 21,0 C 7,1 C 6,5 C 70 % 81 % 1018,6 hPa 0,0 l/m 0,0 km/h (0 Bft) N-NO 22 4,1 C 7,1 C 0,0 km/h (0 Bft)
18.09.2019 06:06 21,0 C 7,1 C 6,5 C 70 % 81 % 1018,6 hPa 0,0 l/m 0,0 km/h (0 Bft) N-NO 22 4,1 C 7,1 C 0,0 km/h (0 Bft)
18.09.2019 06:05 21,0 C 7,1 C 6,5 C 70 % 81 % 1018,3 hPa 0,0 l/m 0,0 km/h (0 Bft) N-NO 22 4,1 C 7,1 C 0,0 km/h (0 Bft)
18.09.2019 06:04 21,0 C 7,1 C 6,5 C 70 % 81 % 1018,3 hPa 0,0 l/m 0,0 km/h (0 Bft) N-NO 22 4,1 C 7,1 C 0,0 km/h (0 Bft)
18.09.2019 06:03 21,0 C 7,2 C 6,7 C 70 % 81 % 1018,3 hPa 0,0 l/m 0,0 km/h (0 Bft) N-NO 22 4,2 C 7,2 C 0,0 km/h (0 Bft)
18.09.2019 06:02 21,0 C 7,2 C 6,7 C 70 % 81 % 1018,3 hPa 0,0 l/m 0,0 km/h (0 Bft) N-NO 22 4,2 C 7,2 C 0,0 km/h (0 Bft)
18.09.2019 06:01 21,0 C 7,2 C 6,7 C 70 % 81 % 1018,3 hPa 0,0 l/m 0,0 km/h (0 Bft) N-NO 22 4,2 C 7,2 C 0,0 km/h (0 Bft)
18.09.2019 06:00 21,0 C 7,2 C 6,7 C 70 % 81 % 1018,3 hPa 0,0 l/m 0,0 km/h (0 Bft) N-NO 22 4,2 C 7,2 C 0,0 km/h (0 Bft)
18.09.2019 05:59 21,0 C 7,3 C 6,8 C 70 % 81 % 1018,3 hPa 0,0 l/m 0,0 km/h (0 Bft) N-NO 22 4,3 C 7,3 C 0,0 km/h (0 Bft)
18.09.2019 05:58 21,0 C 7,3 C 6,8 C 70 % 81 % 1018,3 hPa 0,0 l/m 0,0 km/h (0 Bft) N-NO 22 4,3 C 7,3 C 0,0 km/h (0 Bft)
18.09.2019 05:57 21,0 C 7,4 C 6,8 C 70 % 81 % 1018,3 hPa 0,0 l/m 0,0 km/h (0 Bft) N-NO 22 4,4 C 7,4 C 0,0 km/h (0 Bft)
18.09.2019 05:56 21,0 C 7,4 C 6,8 C 70 % 81 % 1018,3 hPa 0,0 l/m 0,0 km/h (0 Bft) N-NO 22 4,4 C 7,4 C 0,0 km/h (0 Bft)
18.09.2019 05:55 21,0 C 7,4 C 6,8 C 70 % 81 % 1018,3 hPa 0,0 l/m 0,0 km/h (0 Bft) N-NO 22 4,4 C 7,4 C 0,0 km/h (0 Bft)
18.09.2019 05:54 21,0 C 7,4 C 6,8 C 70 % 81 % 1018,3 hPa 0,0 l/m 0,0 km/h (0 Bft) N-NO 22 4,4 C 7,4 C 0,0 km/h (0 Bft)
18.09.2019 05:53 21,0 C 7,5 C 6,9 C 70 % 81 % 1018,3 hPa 0,0 l/m 0,0 km/h (0 Bft) N-NO 22 4,5 C 7,5 C 0,0 km/h (0 Bft)
18.09.2019 05:52 21,0 C 7,5 C 6,9 C 70 % 81 % 1018,3 hPa 0,0 l/m 0,0 km/h (0 Bft) N-NO 22 4,5 C 7,5 C 0,0 km/h (0 Bft)
18.09.2019 05:51 21,0 C 7,8 C 6,9 C 70 % 81 % 1018,3 hPa 0,0 l/m 0,0 km/h (0 Bft) N-NO 22 4,7 C 7,8 C 0,0 km/h (0 Bft)
18.09.2019 05:50 21,0 C 7,8 C 6,9 C 70 % 81 % 1018,3 hPa 0,0 l/m 0,0 km/h (0 Bft) N-NO 22 4,7 C 7,8 C 0,0 km/h (0 Bft)
18.09.2019 05:49 21,0 C 7,9 C 7,0 C 70 % 81 % 1018,3 hPa 0,0 l/m 0,0 km/h (0 Bft) N-NO 22 4,8 C 7,9 C 0,0 km/h (0 Bft)
18.09.2019 05:48 21,0 C 7,9 C 7,0 C 70 % 81 % 1018,3 hPa 0,0 l/m 0,0 km/h (0 Bft) N-NO 22 4,8 C 7,9 C 0,0 km/h (0 Bft)
18.09.2019 05:47 21,0 C 8,0 C 7,2 C 70 % 80 % 1018,3 hPa 0,0 l/m 0,0 km/h (0 Bft) N-NO 22 4,8 C 8,0 C 0,0 km/h (0 Bft)
18.09.2019 05:46 21,0 C 8,0 C 7,2 C 70 % 80 % 1018,3 hPa 0,0 l/m 0,0 km/h (0 Bft) N-NO 22 4,8 C 8,0 C 0,0 km/h (0 Bft)
18.09.2019 05:45 21,0 C 8,0 C 7,2 C 70 % 80 % 1018,2 hPa 0,0 l/m 0,0 km/h (0 Bft) N-NO 22 4,8 C 8,0 C 0,0 km/h (0 Bft)
18.09.2019 05:44 21,0 C 8,0 C 7,2 C 70 % 80 % 1018,2 hPa 0,0 l/m 0,0 km/h (0 Bft) N-NO 22 4,8 C 8,0 C 0,0 km/h (0 Bft)
18.09.2019 05:43 21,0 C 8,0 C 7,4 C 70 % 80 % 1018,2 hPa 0,0 l/m 0,0 km/h (0 Bft) N-NO 22 4,8 C 8,0 C 0,0 km/h (0 Bft)
18.09.2019 05:42 21,0 C 8,0 C 7,4 C 70 % 80 % 1018,2 hPa 0,0 l/m 0,0 km/h (0 Bft) N-NO 22 4,8 C 8,0 C 0,0 km/h (0 Bft)
18.09.2019 05:41 21,0 C 8,1 C 7,4 C 70 % 80 % 1018,2 hPa 0,0 l/m 0,0 km/h (0 Bft) N-NO 22 4,9 C 8,1 C 0,0 km/h (0 Bft)
18.09.2019 05:40 21,0 C 8,1 C 7,4 C 70 % 80 % 1018,2 hPa 0,0 l/m 0,0 km/h (0 Bft) N-NO 22 4,9 C 8,1 C 0,0 km/h (0 Bft)
18.09.2019 05:39 21,0 C 8,2 C 7,4 C 70 % 80 % 1018,2 hPa 0,0 l/m 0,0 km/h (0 Bft) N-NO 22 5,0 C 8,2 C 0,0 km/h (0 Bft)
18.09.2019 05:38 21,0 C 8,2 C 7,4 C 70 % 80 % 1018,2 hPa 0,0 l/m 0,0 km/h (0 Bft) N-NO 22 5,0 C 8,2 C 0,0 km/h (0 Bft)
18.09.2019 05:37 21,0 C 8,3 C 7,6 C 70 % 80 % 1018,2 hPa 0,0 l/m 0,0 km/h (0 Bft) N-NO 22 5,1 C 8,3 C 0,0 km/h (0 Bft)
18.09.2019 05:36 21,0 C 8,3 C 7,6 C 70 % 80 % 1018,2 hPa 0,0 l/m 0,0 km/h (0 Bft) N-NO 22 5,1 C 8,3 C 0,0 km/h (0 Bft)
18.09.2019 05:35 21,0 C 8,4 C 7,6 C 70 % 80 % 1018,2 hPa 0,0 l/m 0,0 km/h (0 Bft) N-NO 22 5,2 C 8,4 C 0,0 km/h (0 Bft)
18.09.2019 05:34 21,0 C 8,4 C 7,6 C 70 % 80 % 1018,2 hPa 0,0 l/m 0,0 km/h (0 Bft) N-NO 22 5,2 C 8,4 C 0,0 km/h (0 Bft)
18.09.2019 05:33 21,0 C 8,5 C 7,7 C 70 % 80 % 1018,2 hPa 0,0 l/m 0,0 km/h (0 Bft) N-NO 22 5,3 C 8,5 C 0,0 km/h (0 Bft)
18.09.2019 05:32 21,0 C 8,5 C 7,7 C 70 % 80 % 1018,2 hPa 0,0 l/m 0,0 km/h (0 Bft) N-NO 22 5,3 C 8,5 C 0,0 km/h (0 Bft)
18.09.2019 05:31 21,0 C 8,6 C 7,9 C 70 % 80 % 1018,2 hPa 0,0 l/m 0,0 km/h (0 Bft) N-NO 22 5,3 C 8,6 C 0,0 km/h (0 Bft)
18.09.2019 05:30 21,0 C 8,6 C 7,9 C 70 % 80 % 1018,2 hPa 0,0 l/m 0,0 km/h (0 Bft) N-NO 22 5,3 C 8,6 C 0,0 km/h (0 Bft)
18.09.2019 05:29 21,0 C 8,7 C 8,0 C 70 % 80 % 1018,2 hPa 0,0 l/m 0,0 km/h (0 Bft) N-NO 22 5,4 C 8,7 C 0,0 km/h (0 Bft)
18.09.2019 05:28 21,0 C 8,7 C 8,0 C 70 % 80 % 1018,2 hPa 0,0 l/m 0,0 km/h (0 Bft) N-NO 22 5,4 C 8,7 C 0,0 km/h (0 Bft)
18.09.2019 05:27 21,0 C 8,9 C 8,0 C 70 % 81 % 1018,2 hPa 0,0 l/m 0,0 km/h (0 Bft) N-NO 22 5,8 C 8,9 C 0,0 km/h (0 Bft)
18.09.2019 05:26 21,0 C 8,9 C 8,0 C 70 % 81 % 1018,2 hPa 0,0 l/m 0,0 km/h (0 Bft) N-NO 22 5,8 C 8,9 C 0,0 km/h (0 Bft)
18.09.2019 05:25 21,0 C 8,9 C 8,0 C 70 % 81 % 1018,0 hPa 0,0 l/m 0,0 km/h (0 Bft) N-NO 22 5,8 C 8,9 C 0,0 km/h (0 Bft)
18.09.2019 05:24 21,0 C 8,9 C 8,0 C 70 % 81 % 1018,0 hPa 0,0 l/m 0,0 km/h (0 Bft) N-NO 22 5,8 C 8,9 C 0,0 km/h (0 Bft)
18.09.2019 05:23 21,0 C 8,9 C 8,2 C 70 % 81 % 1018,0 hPa 0,0 l/m 0,0 km/h (0 Bft) N-NO 22 5,8 C 8,9 C 0,0 km/h (0 Bft)
18.09.2019 05:22 21,0 C 8,9 C 8,2 C 70 % 81 % 1018,0 hPa 0,0 l/m 0,0 km/h (0 Bft) N-NO 22 5,8 C 8,9 C 0,0 km/h (0 Bft)
18.09.2019 05:21 21,0 C 9,0 C 8,2 C 70 % 80 % 1018,0 hPa 0,0 l/m 0,0 km/h (0 Bft) N-NO 22 5,7 C 9,0 C 0,0 km/h (0 Bft)
18.09.2019 05:20 21,0 C 9,0 C 8,2 C 70 % 80 % 1018,0 hPa 0,0 l/m 0,0 km/h (0 Bft) N-NO 22 5,7 C 9,0 C 0,0 km/h (0 Bft)
18.09.2019 05:19 21,0 C 9,1 C 8,2 C 70 % 80 % 1018,0 hPa 0,0 l/m 0,0 km/h (0 Bft) N-NO 22 5,8 C 9,1 C 0,0 km/h (0 Bft)
18.09.2019 05:18 21,0 C 9,1 C 8,2 C 70 % 80 % 1018,0 hPa 0,0 l/m 0,0 km/h (0 Bft) N-NO 22 5,8 C 9,1 C 0,0 km/h (0 Bft)
18.09.2019 05:17 21,0 C 9,1 C 8,2 C 70 % 80 % 1018,0 hPa 0,0 l/m 0,0 km/h (0 Bft) N-NO 22 5,8 C 9,1 C 0,0 km/h (0 Bft)
18.09.2019 05:16 21,0 C 9,1 C 8,2 C 70 % 80 % 1018,0 hPa 0,0 l/m 0,0 km/h (0 Bft) N-NO 22 5,8 C 9,1 C 0,0 km/h (0 Bft)
18.09.2019 05:15 21,0 C 9,1 C 8,2 C 70 % 80 % 1018,0 hPa 0,0 l/m 0,0 km/h (0 Bft) N-NO 22 5,8 C 9,1 C 0,0 km/h (0 Bft)
18.09.2019 05:14 21,0 C 9,1 C 8,2 C 70 % 80 % 1018,0 hPa 0,0 l/m 0,0 km/h (0 Bft) N-NO 22 5,8 C 9,1 C 0,0 km/h (0 Bft)
18.09.2019 05:13 21,0 C 9,1 C 8,4 C 70 % 80 % 1018,0 hPa 0,0 l/m 0,0 km/h (0 Bft) N-NO 22 5,8 C 9,1 C 0,0 km/h (0 Bft)
18.09.2019 05:12 21,0 C 9,1 C 8,4 C 70 % 80 % 1018,0 hPa 0,0 l/m 0,0 km/h (0 Bft) N-NO 22 5,8 C 9,1 C 0,0 km/h (0 Bft)
18.09.2019 05:11 21,0 C 9,2 C 8,4 C 70 % 80 % 1018,0 hPa 0,0 l/m 0,0 km/h (0 Bft) N-NO 22 5,9 C 9,2 C 0,0 km/h (0 Bft)
18.09.2019 05:10 21,0 C 9,2 C 8,4 C 70 % 80 % 1018,0 hPa 0,0 l/m 0,0 km/h (0 Bft) N-NO 22 5,9 C 9,2 C 0,0 km/h (0 Bft)
18.09.2019 05:09 21,0 C 9,1 C 8,4 C 70 % 80 % 1018,0 hPa 0,0 l/m 0,0 km/h (0 Bft) N-NO 22 5,8 C 9,1 C 0,0 km/h (0 Bft)
18.09.2019 05:08 21,0 C 9,1 C 8,4 C 70 % 80 % 1018,0 hPa 0,0 l/m 0,0 km/h (0 Bft) N-NO 22 5,8 C 9,1 C 0,0 km/h (0 Bft)
18.09.2019 05:07 21,1 C 9,2 C 8,4 C 70 % 80 % 1018,0 hPa 0,0 l/m 0,0 km/h (0 Bft) N-NO 22 5,9 C 9,2 C 0,0 km/h (0 Bft)
18.09.2019 05:06 21,1 C 9,2 C 8,4 C 70 % 80 % 1018,0 hPa 0,0 l/m 0,0 km/h (0 Bft) N-NO 22 5,9 C 9,2 C 0,0 km/h (0 Bft)
18.09.2019 05:05 21,1 C 9,2 C 8,4 C 70 % 80 % 1017,6 hPa 0,0 l/m 0,0 km/h (0 Bft) N-NO 22 5,9 C 9,2 C 0,0 km/h (0 Bft)
18.09.2019 05:04 21,1 C 9,2 C 8,4 C 70 % 80 % 1017,6 hPa 0,0 l/m 0,0 km/h (0 Bft) N-NO 22 5,9 C 9,2 C 0,0 km/h (0 Bft)
18.09.2019 05:03 21,1 C 9,2 C 8,5 C 70 % 80 % 1017,6 hPa 0,0 l/m 0,0 km/h (0 Bft) N-NO 22 5,9 C 9,2 C 0,0 km/h (0 Bft)
18.09.2019 05:02 21,1 C 9,2 C 8,5 C 70 % 80 % 1017,6 hPa 0,0 l/m 0,0 km/h (0 Bft) N-NO 22 5,9 C 9,2 C 0,0 km/h (0 Bft)
18.09.2019 05:01 21,1 C 9,3 C 8,5 C 70 % 80 % 1017,6 hPa 0,0 l/m 0,0 km/h (0 Bft) N-NO 22 6,0 C 9,3 C 0,0 km/h (0 Bft)
18.09.2019 05:00 21,1 C 9,3 C 8,5 C 70 % 80 % 1017,6 hPa 0,0 l/m 0,0 km/h (0 Bft) N-NO 22 6,0 C 9,3 C 0,0 km/h (0 Bft)
18.09.2019 04:59 21,1 C 9,2 C 8,5 C 70 % 80 % 1017,6 hPa 0,0 l/m 0,0 km/h (0 Bft) N-NO 22 5,9 C 9,2 C 0,0 km/h (0 Bft)
18.09.2019 04:58 21,1 C 9,2 C 8,5 C 70 % 80 % 1017,6 hPa 0,0 l/m 0,0 km/h (0 Bft) N-NO 22 5,9 C 9,2 C 0,0 km/h (0 Bft)
18.09.2019 04:57 21,1 C 9,2 C 8,5 C 70 % 80 % 1017,6 hPa 0,0 l/m 0,0 km/h (0 Bft) N-NO 22 5,9 C 9,2 C 0,0 km/h (0 Bft)
18.09.2019 04:56 21,1 C 9,2 C 8,5 C 70 % 80 % 1017,6 hPa 0,0 l/m 0,0 km/h (0 Bft) N-NO 22 5,9 C 9,2 C 0,0 km/h (0 Bft)
18.09.2019 04:55 21,1 C 9,3 C 8,4 C 70 % 80 % 1017,6 hPa 0,0 l/m 0,0 km/h (0 Bft) N-NO 22 6,0 C 9,3 C 0,0 km/h (0 Bft)
18.09.2019 04:54 21,1 C 9,3 C 8,4 C 70 % 80 % 1017,6 hPa 0,0 l/m 0,0 km/h (0 Bft) N-NO 22 6,0 C 9,3 C 0,0 km/h (0 Bft)
18.09.2019 04:53 21,1 C 9,4 C 8,4 C 70 % 80 % 1017,6 hPa 0,0 l/m 0,0 km/h (0 Bft) N-NO 22 6,1 C 9,4 C 0,0 km/h (0 Bft)
18.09.2019 04:52 21,1 C 9,4 C 8,4 C 70 % 80 % 1017,6 hPa 0,0 l/m 0,0 km/h (0 Bft) N-NO 22 6,1 C 9,4 C 0,0 km/h (0 Bft)
18.09.2019 04:51 21,1 C 9,3 C 8,5 C 70 % 80 % 1017,6 hPa 0,0 l/m 0,0 km/h (0 Bft) N-NO 22 6,0 C 9,3 C 0,0 km/h (0 Bft)
18.09.2019 04:50 21,1 C 9,3 C 8,5 C 70 % 80 % 1017,6 hPa 0,0 l/m 0,0 km/h (0 Bft) N-NO 22 6,0 C 9,3 C 0,0 km/h (0 Bft)
18.09.2019 04:49 21,1 C 9,3 C 8,5 C 70 % 80 % 1017,6 hPa 0,0 l/m 0,0 km/h (0 Bft) N-NO 22 6,0 C 9,3 C 0,0 km/h (0 Bft)
18.09.2019 04:48 21,1 C 9,3 C 8,5 C 70 % 80 % 1017,6 hPa 0,0 l/m 0,0 km/h (0 Bft) N-NO 22 6,0 C 9,3 C 0,0 km/h (0 Bft)
18.09.2019 04:47 21,1 C 9,4 C 8,5 C 70 % 80 % 1017,6 hPa 0,0 l/m 0,0 km/h (0 Bft) N-NO 22 6,1 C 9,4 C 0,0 km/h (0 Bft)
18.09.2019 04:46 21,1 C 9,4 C 8,5 C 70 % 80 % 1017,6 hPa 0,0 l/m 0,0 km/h (0 Bft) N-NO 22 6,1 C 9,4 C 0,0 km/h (0 Bft)
18.09.2019 04:45 21,1 C 9,4 C 8,5 C 70 % 80 % 1017,6 hPa 0,0 l/m 0,0 km/h (0 Bft) N-NO 22 6,1 C 9,4 C 0,0 km/h (0 Bft)
18.09.2019 04:44 21,1 C 9,4 C 8,5 C 70 % 80 % 1017,6 hPa 0,0 l/m 0,0 km/h (0 Bft) N-NO 22 6,1 C 9,4 C 0,0 km/h (0 Bft)
18.09.2019 04:43 21,1 C 9,4 C 8,5 C 70 % 80 % 1017,6 hPa 0,0 l/m 0,0 km/h (0 Bft) N-NO 22 6,1 C 9,4 C 0,0 km/h (0 Bft)
18.09.2019 04:42 21,1 C 9,4 C 8,5 C 70 % 80 % 1017,6 hPa 0,0 l/m 0,0 km/h (0 Bft) N-NO 22 6,1 C 9,4 C 0,0 km/h (0 Bft)
18.09.2019 04:41 21,1 C 9,4 C 8,5 C 70 % 80 % 1017,6 hPa 0,0 l/m 0,0 km/h (0 Bft) N-NO 22 6,1 C 9,4 C 0,0 km/h (0 Bft)
18.09.2019 04:40 21,1 C 9,4 C 8,5 C 70 % 80 % 1017,6 hPa 0,0 l/m 0,0 km/h (0 Bft) N-NO 22 6,1 C 9,4 C 0,0 km/h (0 Bft)
18.09.2019 04:39 21,1 C 9,4 C 8,6 C 70 % 80 % 1017,6 hPa 0,0 l/m 0,0 km/h (0 Bft) N-NO 22 6,1 C 9,4 C 0,0 km/h (0 Bft)
18.09.2019 04:38 21,1 C 9,4 C 8,6 C 70 % 80 % 1017,6 hPa 0,0 l/m 0,0 km/h (0 Bft) N-NO 22 6,1 C 9,4 C 0,0 km/h (0 Bft)
18.09.2019 04:37 21,1 C 9,5 C 8,5 C 70 % 80 % 1017,6 hPa 0,0 l/m 0,0 km/h (0 Bft) N-NO 22 6,2 C 9,5 C 0,0 km/h (0 Bft)
18.09.2019 04:36 21,1 C 9,5 C 8,5 C 70 % 80 % 1017,6 hPa 0,0 l/m 0,0 km/h (0 Bft) N-NO 22 6,2 C 9,5 C 0,0 km/h (0 Bft)
18.09.2019 04:35 21,1 C 9,5 C 8,6 C 70 % 80 % 1017,6 hPa 0,0 l/m 0,0 km/h (0 Bft) N-NO 22 6,2 C 9,5 C 0,0 km/h (0 Bft)
18.09.2019 04:34 21,1 C 9,5 C 8,6 C 70 % 80 % 1017,6 hPa 0,0 l/m 0,0 km/h (0 Bft) N-NO 22 6,2 C 9,5 C 0,0 km/h (0 Bft)
18.09.2019 04:33 21,1 C 9,6 C 8,7 C 70 % 80 % 1017,6 hPa 0,0 l/m 0,0 km/h (0 Bft) N-NO 22 6,3 C 9,6 C 0,0 km/h (0 Bft)
18.09.2019 04:32 21,1 C 9,6 C 8,7 C 70 % 80 % 1017,6 hPa 0,0 l/m 0,0 km/h (0 Bft) N-NO 22 6,3 C 9,6 C 0,0 km/h (0 Bft)
18.09.2019 04:31 21,1 C 9,6 C 8,8 C 70 % 80 % 1017,6 hPa 0,0 l/m 0,0 km/h (0 Bft) N-NO 22 6,3 C 9,6 C 0,0 km/h (0 Bft)
18.09.2019 04:30 21,1 C 9,6 C 8,8 C 70 % 80 % 1017,6 hPa 0,0 l/m 0,0 km/h (0 Bft) N-NO 22 6,3 C 9,6 C 0,0 km/h (0 Bft)
18.09.2019 04:29 21,1 C 9,6 C 8,8 C 70 % 80 % 1017,6 hPa 0,0 l/m 0,0 km/h (0 Bft) N-NO 22 6,3 C 9,6 C 0,0 km/h (0 Bft)
18.09.2019 04:28 21,1 C 9,6 C 8,8 C 70 % 80 % 1017,6 hPa 0,0 l/m 0,0 km/h (0 Bft) N-NO 22 6,3 C 9,6 C 0,0 km/h (0 Bft)
18.09.2019 04:27 21,1 C 9,6 C 8,9 C 70 % 80 % 1017,6 hPa 0,0 l/m 0,0 km/h (0 Bft) N-NO 22 6,3 C 9,6 C 0,0 km/h (0 Bft)
18.09.2019 04:26 21,1 C 9,6 C 8,9 C 70 % 80 % 1017,6 hPa 0,0 l/m 0,0 km/h (0 Bft) N-NO 22 6,3 C 9,6 C 0,0 km/h (0 Bft)
18.09.2019 04:25 21,1 C 9,6 C 8,9 C 70 % 80 % 1017,4 hPa 0,0 l/m 0,0 km/h (0 Bft) N-NO 22 6,3 C 9,6 C 0,0 km/h (0 Bft)
18.09.2019 04:24 21,1 C 9,6 C 8,9 C 70 % 80 % 1017,4 hPa 0,0 l/m 0,0 km/h (0 Bft) N-NO 22 6,3 C 9,6 C 0,0 km/h (0 Bft)
18.09.2019 04:23 21,1 C 9,6 C 8,9 C 70 % 80 % 1017,4 hPa 0,0 l/m 0,0 km/h (0 Bft) N-NO 22 6,3 C 9,6 C 0,0 km/h (0 Bft)
18.09.2019 04:22 21,1 C 9,6 C 8,9 C 70 % 80 % 1017,4 hPa 0,0 l/m 0,0 km/h (0 Bft) N-NO 22 6,3 C 9,6 C 0,0 km/h (0 Bft)
18.09.2019 04:21 21,1 C 9,6 C 8,9 C 70 % 80 % 1017,4 hPa 0,0 l/m 0,0 km/h (0 Bft) N-NO 22 6,3 C 9,6 C 0,0 km/h (0 Bft)
18.09.2019 04:20 21,1 C 9,6 C 8,9 C 70 % 80 % 1017,4 hPa 0,0 l/m 0,0 km/h (0 Bft) N-NO 22 6,3 C 9,6 C 0,0 km/h (0 Bft)
18.09.2019 04:19 21,2 C 9,6 C 8,8 C 70 % 80 % 1017,4 hPa 0,0 l/m 0,0 km/h (0 Bft) N-NO 22 6,3 C 9,6 C 0,0 km/h (0 Bft)
18.09.2019 04:18 21,2 C 9,6 C 8,8 C 70 % 80 % 1017,4 hPa 0,0 l/m 0,0 km/h (0 Bft) N-NO 22 6,3 C 9,6 C 0,0 km/h (0 Bft)
18.09.2019 04:17 21,2 C 9,6 C 8,8 C 70 % 80 % 1017,4 hPa 0,0 l/m 0,0 km/h (0 Bft) N-NO 22 6,3 C 9,6 C 0,0 km/h (0 Bft)
18.09.2019 04:16 21,2 C 9,6 C 8,8 C 70 % 80 % 1017,4 hPa 0,0 l/m 0,0 km/h (0 Bft) N-NO 22 6,3 C 9,6 C 0,0 km/h (0 Bft)
18.09.2019 04:15 21,2 C 9,5 C 8,9 C 70 % 80 % 1017,4 hPa 0,0 l/m 0,0 km/h (0 Bft) N-NO 22 6,2 C 9,5 C 0,0 km/h (0 Bft)
18.09.2019 04:14 21,2 C 9,5 C 8,9 C 70 % 80 % 1017,4 hPa 0,0 l/m 0,0 km/h (0 Bft) N-NO 22 6,2 C 9,5 C 0,0 km/h (0 Bft)
18.09.2019 04:13 21,2 C 9,5 C 8,7 C 70 % 80 % 1017,4 hPa 0,0 l/m 0,0 km/h (0 Bft) N-NO 22 6,2 C 9,5 C 0,0 km/h (0 Bft)
18.09.2019 04:12 21,2 C 9,5 C 8,7 C 70 % 80 % 1017,4 hPa 0,0 l/m 0,0 km/h (0 Bft) N-NO 22 6,2 C 9,5 C 0,0 km/h (0 Bft)
18.09.2019 04:11 21,2 C 9,5 C 8,7 C 70 % 80 % 1017,4 hPa 0,0 l/m 0,0 km/h (0 Bft) N-NO 22 6,2 C 9,5 C 0,0 km/h (0 Bft)
18.09.2019 04:10 21,2 C 9,5 C 8,7 C 70 % 80 % 1017,4 hPa 0,0 l/m 0,0 km/h (0 Bft) N-NO 22 6,2 C 9,5 C 0,0 km/h (0 Bft)
18.09.2019 04:09 21,2 C 9,5 C 8,8 C 70 % 80 % 1017,4 hPa 0,0 l/m 0,0 km/h (0 Bft) N-NO 22 6,2 C 9,5 C 0,0 km/h (0 Bft)
18.09.2019 04:08 21,2 C 9,5 C 8,8 C 70 % 80 % 1017,4 hPa 0,0 l/m 0,0 km/h (0 Bft) N-NO 22 6,2 C 9,5 C 0,0 km/h (0 Bft)
18.09.2019 04:07 21,2 C 9,4 C 8,7 C 70 % 80 % 1017,4 hPa 0,0 l/m 0,0 km/h (0 Bft) N-NO 22 6,1 C 9,4 C 0,0 km/h (0 Bft)
18.09.2019 04:06 21,2 C 9,4 C 8,7 C 70 % 80 % 1017,4 hPa 0,0 l/m 0,0 km/h (0 Bft) N-NO 22 6,1 C 9,4 C 0,0 km/h (0 Bft)
18.09.2019 04:05 21,2 C 9,4 C 8,7 C 70 % 80 % 1017,1 hPa 0,0 l/m 0,0 km/h (0 Bft) N-NO 22 6,1 C 9,4 C 0,0 km/h (0 Bft)
18.09.2019 04:04 21,2 C 9,4 C 8,7 C 70 % 80 % 1017,1 hPa 0,0 l/m 0,0 km/h (0 Bft) N-NO 22 6,1 C 9,4 C 0,0 km/h (0 Bft)
18.09.2019 04:03 21,2 C 9,4 C 8,8 C 70 % 80 % 1017,1 hPa 0,0 l/m 0,0 km/h (0 Bft) N-NO 22 6,1 C 9,4 C 0,0 km/h (0 Bft)
18.09.2019 04:02 21,2 C 9,4 C 8,8 C 70 % 80 % 1017,1 hPa 0,0 l/m 0,0 km/h (0 Bft) N-NO 22 6,1 C 9,4 C 0,0 km/h (0 Bft)
18.09.2019 04:01 21,2 C 9,4 C 8,7 C 70 % 80 % 1017,1 hPa 0,0 l/m 0,0 km/h (0 Bft) N-NO 22 6,1 C 9,4 C 0,0 km/h (0 Bft)
18.09.2019 04:00 21,2 C 9,4 C 8,7 C 70 % 80 % 1017,1 hPa 0,0 l/m 0,0 km/h (0 Bft) N-NO 22 6,1 C 9,4 C 0,0 km/h (0 Bft)
18.09.2019 03:59 21,2 C 9,4 C 8,6 C 70 % 80 % 1017,1 hPa 0,0 l/m 0,0 km/h (0 Bft) N-NO 22 6,1 C 9,4 C 0,0 km/h (0 Bft)
18.09.2019 03:58 21,2 C 9,4 C 8,6 C 70 % 80 % 1017,1 hPa 0,0 l/m 0,0 km/h (0 Bft) N-NO 22 6,1 C 9,4 C 0,0 km/h (0 Bft)
18.09.2019 03:57 21,2 C 9,5 C 8,7 C 70 % 80 % 1017,1 hPa 0,0 l/m 0,0 km/h (0 Bft) N-NO 22 6,2 C 9,5 C 0,0 km/h (0 Bft)
18.09.2019 03:56 21,2 C 9,5 C 8,7 C 70 % 80 % 1017,1 hPa 0,0 l/m 0,0 km/h (0 Bft) N-NO 22 6,2 C 9,5 C 0,0 km/h (0 Bft)
18.09.2019 03:55 21,2 C 9,5 C 8,8 C 70 % 80 % 1017,1 hPa 0,0 l/m 0,0 km/h (0 Bft) N-NO 22 6,2 C 9,5 C 0,0 km/h (0 Bft)
18.09.2019 03:54 21,2 C 9,5 C 8,8 C 70 % 80 % 1017,1 hPa 0,0 l/m 0,0 km/h (0 Bft) N-NO 22 6,2 C 9,5 C 0,0 km/h (0 Bft)
18.09.2019 03:53 21,2 C 9,5 C 8,8 C 70 % 80 % 1017,1 hPa 0,0 l/m 0,0 km/h (0 Bft) N-NO 22 6,2 C 9,5 C 0,0 km/h (0 Bft)
18.09.2019 03:52 21,2 C 9,5 C 8,8 C 70 % 80 % 1017,1 hPa 0,0 l/m 0,0 km/h (0 Bft) N-NO 22 6,2 C 9,5 C 0,0 km/h (0 Bft)
18.09.2019 03:51 21,2 C 9,4 C 8,8 C 70 % 80 % 1017,1 hPa 0,0 l/m 0,0 km/h (0 Bft) N-NO 22 6,1 C 9,4 C 0,0 km/h (0 Bft)
18.09.2019 03:50 21,2 C 9,4 C 8,8 C 70 % 80 % 1017,1 hPa 0,0 l/m 0,0 km/h (0 Bft) N-NO 22 6,1 C 9,4 C 0,0 km/h (0 Bft)
18.09.2019 03:49 21,2 C 9,4 C 8,7 C 70 % 80 % 1017,1 hPa 0,0 l/m 0,0 km/h (0 Bft) N-NO 22 6,1 C 9,4 C 0,0 km/h (0 Bft)
18.09.2019 03:48 21,2 C 9,4 C 8,7 C 70 % 80 % 1017,1 hPa 0,0 l/m 0,0 km/h (0 Bft) N-NO 22 6,1 C 9,4 C 0,0 km/h (0 Bft)
18.09.2019 03:47 21,2 C 9,5 C 8,7 C 70 % 79 % 1017,1 hPa 0,0 l/m 0,0 km/h (0 Bft) N-NO 22 6,0 C 9,5 C 0,0 km/h (0 Bft)
18.09.2019 03:46 21,2 C 9,5 C 8,7 C 70 % 79 % 1017,1 hPa 0,0 l/m 0,0 km/h (0 Bft) N-NO 22 6,0 C 9,5 C 0,0 km/h (0 Bft)
18.09.2019 03:45 21,2 C 9,5 C 8,7 C 70 % 79 % 1016,8 hPa 0,0 l/m 0,0 km/h (0 Bft) N-NO 22 6,0 C 9,5 C 0,0 km/h (0 Bft)
18.09.2019 03:44 21,2 C 9,5 C 8,7 C 70 % 79 % 1016,8 hPa 0,0 l/m 0,0 km/h (0 Bft) N-NO 22 6,0 C 9,5 C 0,0 km/h (0 Bft)
18.09.2019 03:43 21,2 C 9,5 C 8,8 C 70 % 79 % 1016,8 hPa 0,0 l/m 0,0 km/h (0 Bft) N-NO 22 6,0 C 9,5 C 0,0 km/h (0 Bft)
18.09.2019 03:42 21,2 C 9,5 C 8,8 C 70 % 79 % 1016,8 hPa 0,0 l/m 0,0 km/h (0 Bft) N-NO 22 6,0 C 9,5 C 0,0 km/h (0 Bft)
18.09.2019 03:41 21,2 C 9,5 C 8,8 C 70 % 79 % 1016,8 hPa 0,0 l/m 0,0 km/h (0 Bft) N-NO 22 6,0 C 9,5 C 0,0 km/h (0 Bft)
18.09.2019 03:40 21,2 C 9,5 C 8,8 C 70 % 79 % 1016,8 hPa 0,0 l/m 0,0 km/h (0 Bft) N-NO 22 6,0 C 9,5 C 0,0 km/h (0 Bft)
18.09.2019 03:39 21,2 C 9,5 C 8,8 C 70 % 79 % 1016,8 hPa 0,0 l/m 0,0 km/h (0 Bft) N-NO 22 6,0 C 9,5 C 0,0 km/h (0 Bft)
18.09.2019 03:38 21,2 C 9,5 C 8,8 C 70 % 79 % 1016,8 hPa 0,0 l/m 0,0 km/h (0 Bft) N-NO 22 6,0 C 9,5 C 0,0 km/h (0 Bft)
18.09.2019 03:37 21,2 C 9,6 C 8,8 C 70 % 79 % 1016,8 hPa 0,0 l/m 0,0 km/h (0 Bft) N-NO 22 6,1 C 9,6 C 0,0 km/h (0 Bft)
18.09.2019 03:36 21,2 C 9,6 C 8,8 C 70 % 79 % 1016,8 hPa 0,0 l/m 0,0 km/h (0 Bft) N-NO 22 6,1 C 9,6 C 0,0 km/h (0 Bft)
18.09.2019 03:35 21,2 C 9,6 C 8,8 C 70 % 79 % 1016,8 hPa 0,0 l/m 0,0 km/h (0 Bft) N-NO 22 6,1 C 9,6 C 0,0 km/h (0 Bft)
18.09.2019 03:34 21,2 C 9,6 C 8,8 C 70 % 79 % 1016,8 hPa 0,0 l/m 0,0 km/h (0 Bft) N-NO 22 6,1 C 9,6 C 0,0 km/h (0 Bft)
18.09.2019 03:33 21,2 C 9,7 C 8,9 C 70 % 79 % 1016,8 hPa 0,0 l/m 0,0 km/h (0 Bft) N-NO 22 6,2 C 9,7 C 0,0 km/h (0 Bft)
18.09.2019 03:32 21,2 C 9,7 C 8,9 C 70 % 79 % 1016,8 hPa 0,0 l/m 0,0 km/h (0 Bft) N-NO 22 6,2 C 9,7 C 0,0 km/h (0 Bft)
18.09.2019 03:31 21,2 C 9,7 C 8,9 C 70 % 79 % 1016,8 hPa 0,0 l/m 0,0 km/h (0 Bft) N-NO 22 6,2 C 9,7 C 0,0 km/h (0 Bft)
18.09.2019 03:30 21,2 C 9,7 C 8,9 C 70 % 79 % 1016,8 hPa 0,0 l/m 0,0 km/h (0 Bft) N-NO 22 6,2 C 9,7 C 0,0 km/h (0 Bft)
18.09.2019 03:29 21,2 C 9,8 C 9,1 C 70 % 79 % 1016,8 hPa 0,0 l/m 0,0 km/h (0 Bft) N-NO 22 6,3 C 9,8 C 0,0 km/h (0 Bft)
18.09.2019 03:28 21,2 C 9,8 C 9,1 C 70 % 79 % 1016,8 hPa 0,0 l/m 0,0 km/h (0 Bft) N-NO 22 6,3 C 9,8 C 0,0 km/h (0 Bft)
18.09.2019 03:27 21,2 C 9,9 C 9,3 C 70 % 79 % 1016,8 hPa 0,0 l/m 0,0 km/h (0 Bft) N-NO 22 6,4 C 9,9 C 0,0 km/h (0 Bft)
18.09.2019 03:26 21,2 C 9,9 C 9,3 C 70 % 79 % 1016,8 hPa 0,0 l/m 0,0 km/h (0 Bft) N-NO 22 6,4 C 9,9 C 0,0 km/h (0 Bft)
18.09.2019 03:25 21,2 C 9,9 C 9,3 C 70 % 79 % 1016,8 hPa 0,0 l/m 0,0 km/h (0 Bft) N-NO 22 6,4 C 9,9 C 0,0 km/h (0 Bft)
18.09.2019 03:24 21,2 C 9,9 C 9,3 C 70 % 79 % 1016,8 hPa 0,0 l/m 0,0 km/h (0 Bft) N-NO 22 6,4 C 9,9 C 0,0 km/h (0 Bft)
18.09.2019 03:23 21,2 C 9,9 C 9,3 C 70 % 79 % 1016,8 hPa 0,0 l/m 0,0 km/h (0 Bft) N-NO 22 6,4 C 9,9 C 0,0 km/h (0 Bft)
18.09.2019 03:22 21,2 C 9,9 C 9,3 C 70 % 79 % 1016,8 hPa 0,0 l/m 0,0 km/h (0 Bft) N-NO 22 6,4 C 9,9 C 0,0 km/h (0 Bft)
18.09.2019 03:21 21,2 C 9,9 C 9,3 C 70 % 79 % 1016,8 hPa 0,0 l/m 0,0 km/h (0 Bft) N-NO 22 6,4 C 9,9 C 0,0 km/h (0 Bft)
18.09.2019 03:20 21,2 C 9,9 C 9,3 C 70 % 79 % 1016,8 hPa 0,0 l/m 0,0 km/h (0 Bft) N-NO 22 6,4 C 9,9 C 0,0 km/h (0 Bft)
18.09.2019 03:19 21,2 C 9,9 C 9,2 C 70 % 79 % 1016,8 hPa 0,0 l/m 0,0 km/h (0 Bft) N-NO 22 6,4 C 9,9 C 0,0 km/h (0 Bft)
18.09.2019 03:18 21,2 C 9,9 C 9,2 C 70 % 79 % 1016,8 hPa 0,0 l/m 0,0 km/h (0 Bft) N-NO 22 6,4 C 9,9 C 0,0 km/h (0 Bft)
18.09.2019 03:17 21,2 C 10,0 C 9,3 C 70 % 79 % 1016,8 hPa 0,0 l/m 0,0 km/h (0 Bft) N-NO 22 6,5 C 10,0 C 0,0 km/h (0 Bft)
18.09.2019 03:16 21,2 C 10,0 C 9,3 C 70 % 79 % 1016,8 hPa 0,0 l/m 0,0 km/h (0 Bft) N-NO 22 6,5 C 10,0 C 0,0 km/h (0 Bft)
18.09.2019 03:15 21,2 C 10,1 C 9,4 C 70 % 79 % 1016,8 hPa 0,0 l/m 0,0 km/h (0 Bft) N-NO 22 6,6 C 10,1 C 0,0 km/h (0 Bft)
18.09.2019 03:14 21,2 C 10,1 C 9,4 C 70 % 79 % 1016,8 hPa 0,0 l/m 0,0 km/h (0 Bft) N-NO 22 6,6 C 10,1 C 0,0 km/h (0 Bft)
18.09.2019 03:13 21,2 C 10,1 C 9,4 C 70 % 79 % 1016,8 hPa 0,0 l/m 0,0 km/h (0 Bft) N-NO 22 6,6 C 10,1 C 0,0 km/h (0 Bft)
18.09.2019 03:12 21,2 C 10,1 C 9,4 C 70 % 79 % 1016,8 hPa 0,0 l/m 0,0 km/h (0 Bft) N-NO 22 6,6 C 10,1 C 0,0 km/h (0 Bft)
18.09.2019 03:11 21,2 C 10,2 C 9,5 C 70 % 79 % 1016,8 hPa 0,0 l/m 0,0 km/h (0 Bft) N-NO 22 6,7 C 10,2 C 0,0 km/h (0 Bft)
18.09.2019 03:10 21,2 C 10,2 C 9,5 C 70 % 79 % 1016,8 hPa 0,0 l/m 0,0 km/h (0 Bft) N-NO 22 6,7 C 10,2 C 0,0 km/h (0 Bft)
18.09.2019 03:09 21,2 C 10,2 C 9,5 C 70 % 79 % 1016,8 hPa 0,0 l/m 0,0 km/h (0 Bft) N-NO 22 6,7 C 10,2 C 0,0 km/h (0 Bft)
18.09.2019 03:08 21,2 C 10,2 C 9,5 C 70 % 79 % 1016,8 hPa 0,0 l/m 0,0 km/h (0 Bft) N-NO 22 6,7 C 10,2 C 0,0 km/h (0 Bft)
18.09.2019 03:07 21,2 C 10,5 C 9,6 C 70 % 78 % 1016,8 hPa 0,0 l/m 0,0 km/h (0 Bft) N-NO 22 6,8 C 10,5 C 0,0 km/h (0 Bft)
18.09.2019 03:06 21,2 C 10,5 C 9,6 C 70 % 78 % 1016,8 hPa 0,0 l/m 0,0 km/h (0 Bft) N-NO 22 6,8 C 10,5 C 0,0 km/h (0 Bft)
18.09.2019 03:05 21,2 C 10,5 C 9,6 C 70 % 78 % 1016,6 hPa 0,0 l/m 0,0 km/h (0 Bft) N-NO 22 6,8 C 10,5 C 0,0 km/h (0 Bft)
18.09.2019 03:04 21,2 C 10,5 C 9,6 C 70 % 78 % 1016,6 hPa 0,0 l/m 0,0 km/h (0 Bft) N-NO 22 6,8 C 10,5 C 0,0 km/h (0 Bft)
18.09.2019 03:03 21,2 C 10,5 C 9,6 C 70 % 78 % 1016,6 hPa 0,0 l/m 0,0 km/h (0 Bft) N-NO 22 6,8 C 10,5 C 0,0 km/h (0 Bft)
18.09.2019 03:02 21,2 C 10,5 C 9,6 C 70 % 78 % 1016,6 hPa 0,0 l/m 0,0 km/h (0 Bft) N-NO 22 6,8 C 10,5 C 0,0 km/h (0 Bft)
18.09.2019 03:01 21,2 C 10,5 C 9,6 C 70 % 78 % 1016,6 hPa 0,0 l/m 0,0 km/h (0 Bft) N-NO 22 6,8 C 10,5 C 0,0 km/h (0 Bft)
18.09.2019 03:00 21,2 C 10,5 C 9,6 C 70 % 78 % 1016,6 hPa 0,0 l/m 0,0 km/h (0 Bft) N-NO 22 6,8 C 10,5 C 0,0 km/h (0 Bft)
18.09.2019 02:59 21,2 C 10,6 C 9,7 C 70 % 78 % 1016,6 hPa 0,0 l/m 0,0 km/h (0 Bft) N-NO 22 6,9 C 10,6 C 0,0 km/h (0 Bft)
18.09.2019 02:58 21,2 C 10,6 C 9,7 C 70 % 78 % 1016,6 hPa 0,0 l/m 0,0 km/h (0 Bft) N-NO 22 6,9 C 10,6 C 0,0 km/h (0 Bft)
18.09.2019 02:57 21,2 C 10,8 C 9,7 C 70 % 78 % 1016,6 hPa 0,0 l/m 0,0 km/h (0 Bft) N-NO 22 7,1 C 10,8 C 0,0 km/h (0 Bft)
18.09.2019 02:56 21,2 C 10,8 C 9,7 C 70 % 78 % 1016,6 hPa 0,0 l/m 0,0 km/h (0 Bft) N-NO 22 7,1 C 10,8 C 0,0 km/h (0 Bft)
18.09.2019 02:55 21,2 C 10,8 C 10,0 C 70 % 78 % 1016,6 hPa 0,0 l/m 0,0 km/h (0 Bft) N-NO 22 7,1 C 10,8 C 0,0 km/h (0 Bft)
18.09.2019 02:54 21,2 C 10,8 C 10,0 C 70 % 78 % 1016,6 hPa 0,0 l/m 0,0 km/h (0 Bft) N-NO 22 7,1 C 10,8 C 0,0 km/h (0 Bft)
18.09.2019 02:53 21,2 C 10,9 C 10,1 C 70 % 78 % 1016,6 hPa 0,0 l/m 0,0 km/h (0 Bft) N-NO 22 7,2 C 10,9 C 0,0 km/h (0 Bft)
18.09.2019 02:52 21,2 C 10,9 C 10,1 C 70 % 78 % 1016,6 hPa 0,0 l/m 0,0 km/h (0 Bft) N-NO 22 7,2 C 10,9 C 0,0 km/h (0 Bft)
18.09.2019 02:51 21,2 C 11,0 C 10,1 C 70 % 78 % 1016,6 hPa 0,0 l/m 0,0 km/h (0 Bft) N-NO 22 7,3 C 11,0 C 0,0 km/h (0 Bft)
18.09.2019 02:50 21,2 C 11,0 C 10,1 C 70 % 78 % 1016,6 hPa 0,0 l/m 0,0 km/h (0 Bft) N-NO 22 7,3 C 11,0 C 0,0 km/h (0 Bft)
18.09.2019 02:49 21,2 C 11,1 C 10,3 C 70 % 78 % 1016,6 hPa 0,0 l/m 0,0 km/h (0 Bft) N-NO 22 7,4 C 11,1 C 0,0 km/h (0 Bft)
18.09.2019 02:48 21,2 C 11,1 C 10,3 C 70 % 78 % 1016,6 hPa 0,0 l/m 0,0 km/h (0 Bft) N-NO 22 7,4 C 11,1 C 0,0 km/h (0 Bft)
18.09.2019 02:47 21,2 C 11,2 C 10,4 C 70 % 78 % 1016,6 hPa 0,0 l/m 0,0 km/h (0 Bft) N-NO 22 7,5 C 11,2 C 0,0 km/h (0 Bft)
18.09.2019 02:46 21,2 C 11,2 C 10,4 C 70 % 78 % 1016,6 hPa 0,0 l/m 0,0 km/h (0 Bft) N-NO 22 7,5 C 11,2 C 0,0 km/h (0 Bft)
18.09.2019 02:45 21,2 C 11,2 C 10,4 C 70 % 78 % 1016,4 hPa 0,0 l/m 0,0 km/h (0 Bft) N-NO 22 7,5 C 11,2 C 0,0 km/h (0 Bft)
18.09.2019 02:44 21,2 C 11,2 C 10,4 C 70 % 78 % 1016,4 hPa 0,0 l/m 0,0 km/h (0 Bft) N-NO 22 7,5 C 11,2 C 0,0 km/h (0 Bft)
18.09.2019 02:43 21,2 C 11,3 C 10,5 C 70 % 78 % 1016,4 hPa 0,0 l/m 0,0 km/h (0 Bft) N-NO 22 7,6 C 11,3 C 0,0 km/h (0 Bft)
18.09.2019 02:42 21,2 C 11,3 C 10,5 C 70 % 78 % 1016,4 hPa 0,0 l/m 0,0 km/h (0 Bft) N-NO 22 7,6 C 11,3 C 0,0 km/h (0 Bft)
18.09.2019 02:41 21,2 C 11,3 C 10,6 C 70 % 78 % 1016,4 hPa 0,0 l/m 0,0 km/h (0 Bft) N-NO 22 7,6 C 11,3 C 0,0 km/h (0 Bft)
18.09.2019 02:40 21,2 C 11,3 C 10,6 C 70 % 78 % 1016,4 hPa 0,0 l/m 0,0 km/h (0 Bft) N-NO 22 7,6 C 11,3 C 0,0 km/h (0 Bft)
18.09.2019 02:39 21,2 C 11,3 C 10,5 C 70 % 78 % 1016,4 hPa 0,0 l/m 0,0 km/h (0 Bft) N-NO 22 7,6 C 11,3 C 0,0 km/h (0 Bft)
18.09.2019 02:38 21,2 C 11,3 C 10,5 C 70 % 78 % 1016,4 hPa 0,0 l/m 0,0 km/h (0 Bft) N-NO 22 7,6 C 11,3 C 0,0 km/h (0 Bft)
18.09.2019 02:37 21,2 C 11,3 C 10,6 C 70 % 78 % 1016,4 hPa 0,0 l/m 0,0 km/h (0 Bft) N-NO 22 7,6 C 11,3 C 0,0 km/h (0 Bft)
18.09.2019 02:36 21,2 C 11,3 C 10,6 C 70 % 78 % 1016,4 hPa 0,0 l/m 0,0 km/h (0 Bft) N-NO 22 7,6 C 11,3 C 0,0 km/h (0 Bft)
18.09.2019 02:35 21,2 C 11,3 C 10,6 C 70 % 78 % 1016,4 hPa 0,0 l/m 0,0 km/h (0 Bft) N-NO 22 7,6 C 11,3 C 0,0 km/h (0 Bft)
18.09.2019 02:34 21,2 C 11,3 C 10,6 C 70 % 78 % 1016,4 hPa 0,0 l/m 0,0 km/h (0 Bft) N-NO 22 7,6 C 11,3 C 0,0 km/h (0 Bft)
18.09.2019 02:33 21,2 C 11,3 C 10,5 C 70 % 78 % 1016,4 hPa 0,0 l/m 0,0 km/h (0 Bft) N-NO 22 7,6 C 11,3 C 0,0 km/h (0 Bft)
18.09.2019 02:32 21,2 C 11,3 C 10,5 C 70 % 78 % 1016,4 hPa 0,0 l/m 0,0 km/h (0 Bft) N-NO 22 7,6 C 11,3 C 0,0 km/h (0 Bft)
18.09.2019 02:31 21,2 C 11,4 C 10,5 C 70 % 78 % 1016,4 hPa 0,0 l/m 0,0 km/h (0 Bft) N-NO 22 7,7 C 11,4 C 0,0 km/h (0 Bft)
18.09.2019 02:30 21,2 C 11,4 C 10,5 C 70 % 78 % 1016,4 hPa 0,0 l/m 0,0 km/h (0 Bft) N-NO 22 7,7 C 11,4 C 0,0 km/h (0 Bft)
18.09.2019 02:29 21,2 C 11,4 C 10,6 C 70 % 78 % 1016,4 hPa 0,0 l/m 0,0 km/h (0 Bft) N-NO 22 7,7 C 11,4 C 0,0 km/h (0 Bft)
18.09.2019 02:28 21,2 C 11,4 C 10,6 C 70 % 78 % 1016,4 hPa 0,0 l/m 0,0 km/h (0 Bft) N-NO 22 7,7 C 11,4 C 0,0 km/h (0 Bft)
18.09.2019 02:27 21,2 C 11,4 C 10,7 C 70 % 78 % 1016,4 hPa 0,0 l/m 0,0 km/h (0 Bft) N-NO 22 7,7 C 11,4 C 0,0 km/h (0 Bft)
18.09.2019 02:26 21,2 C 11,4 C 10,7 C 70 % 78 % 1016,4 hPa 0,0 l/m 0,0 km/h (0 Bft) N-NO 22 7,7 C 11,4 C 0,0 km/h (0 Bft)
18.09.2019 02:25 21,2 C 11,4 C 10,7 C 70 % 78 % 1016,4 hPa 0,0 l/m 0,0 km/h (0 Bft) N-NO 22 7,7 C 11,4 C 0,0 km/h (0 Bft)
18.09.2019 02:24 21,2 C 11,4 C 10,7 C 70 % 78 % 1016,4 hPa 0,0 l/m 0,0 km/h (0 Bft) N-NO 22 7,7 C 11,4 C 0,0 km/h (0 Bft)
18.09.2019 02:23 21,2 C 11,4 C 10,8 C 70 % 78 % 1016,4 hPa 0,0 l/m 0,0 km/h (0 Bft) N-NO 22 7,7 C 11,4 C 0,0 km/h (0 Bft)
18.09.2019 02:22 21,2 C 11,4 C 10,8 C 70 % 78 % 1016,4 hPa 0,0 l/m 0,0 km/h (0 Bft) N-NO 22 7,7 C 11,4 C 0,0 km/h (0 Bft)
18.09.2019 02:21 21,2 C 11,4 C 10,7 C 70 % 78 % 1016,4 hPa 0,0 l/m 0,0 km/h (0 Bft) N-NO 22 7,7 C 11,4 C 0,0 km/h (0 Bft)
18.09.2019 02:20 21,2 C 11,4 C 10,7 C 70 % 78 % 1016,4 hPa 0,0 l/m 0,0 km/h (0 Bft) N-NO 22 7,7 C 11,4 C 0,0 km/h (0 Bft)
18.09.2019 02:19 21,2 C 11,4 C 10,6 C 70 % 78 % 1016,4 hPa 0,0 l/m 0,0 km/h (0 Bft) N-NO 22 7,7 C 11,4 C 0,0 km/h (0 Bft)
18.09.2019 02:18 21,2 C 11,4 C 10,6 C 70 % 78 % 1016,4 hPa 0,0 l/m 0,0 km/h (0 Bft) N-NO 22 7,7 C 11,4 C 0,0 km/h (0 Bft)
18.09.2019 02:17 21,2 C 11,5 C 10,7 C 70 % 78 % 1016,4 hPa 0,0 l/m 0,0 km/h (0 Bft) N-NO 22 7,8 C 11,5 C 0,0 km/h (0 Bft)
18.09.2019 02:16 21,2 C 11,5 C 10,7 C 70 % 78 % 1016,4 hPa 0,0 l/m 0,0 km/h (0 Bft) N-NO 22 7,8 C 11,5 C 0,0 km/h (0 Bft)
18.09.2019 02:15 21,2 C 11,5 C 10,8 C 70 % 78 % 1016,4 hPa 0,0 l/m 0,0 km/h (0 Bft) N-NO 22 7,8 C 11,5 C 0,0 km/h (0 Bft)
18.09.2019 02:14 21,2 C 11,5 C 10,8 C 70 % 78 % 1016,4 hPa 0,0 l/m 0,0 km/h (0 Bft) N-NO 22 7,8 C 11,5 C 0,0 km/h (0 Bft)
18.09.2019 02:13 21,2 C 11,6 C 10,8 C 70 % 78 % 1016,4 hPa 0,0 l/m 0,0 km/h (0 Bft) N-NO 22 7,9 C 11,6 C 0,0 km/h (0 Bft)
18.09.2019 02:12 21,2 C 11,6 C 10,8 C 70 % 78 % 1016,4 hPa 0,0 l/m 0,0 km/h (0 Bft) N-NO 22 7,9 C 11,6 C 0,0 km/h (0 Bft)
18.09.2019 02:11 21,2 C 11,6 C 10,8 C 70 % 78 % 1016,4 hPa 0,0 l/m 0,0 km/h (0 Bft) N-NO 22 7,9 C 11,6 C 0,0 km/h (0 Bft)
18.09.2019 02:10 21,2 C 11,6 C 10,8 C 70 % 78 % 1016,4 hPa 0,0 l/m 0,0 km/h (0 Bft) N-NO 22 7,9 C 11,6 C 0,0 km/h (0 Bft)
18.09.2019 02:09 21,2 C 11,7 C 10,9 C 70 % 78 % 1016,4 hPa 0,0 l/m 0,0 km/h (0 Bft) N-NO 22 8,0 C 11,7 C 0,0 km/h (0 Bft)
18.09.2019 02:08 21,2 C 11,7 C 10,9 C 70 % 78 % 1016,4 hPa 0,0 l/m 0,0 km/h (0 Bft) N-NO 22 8,0 C 11,7 C 0,0 km/h (0 Bft)
18.09.2019 02:07 21,2 C 11,8 C 10,8 C 70 % 77 % 1016,4 hPa 0,0 l/m 0,0 km/h (0 Bft) N-NO 22 7,9 C 11,8 C 0,0 km/h (0 Bft)
18.09.2019 02:06 21,2 C 11,8 C 10,8 C 70 % 77 % 1016,4 hPa 0,0 l/m 0,0 km/h (0 Bft) N-NO 22 7,9 C 11,8 C 0,0 km/h (0 Bft)
18.09.2019 02:05 21,2 C 11,8 C 10,8 C 70 % 77 % 1016,4 hPa 0,0 l/m 0,0 km/h (0 Bft) N-NO 22 7,9 C 11,8 C 0,0 km/h (0 Bft)
18.09.2019 02:04 21,2 C 11,8 C 10,8 C 70 % 77 % 1016,4 hPa 0,0 l/m 0,0 km/h (0 Bft) N-NO 22 7,9 C 11,8 C 0,0 km/h (0 Bft)
18.09.2019 02:03 21,2 C 12,0 C 10,8 C 70 % 77 % 1016,4 hPa 0,0 l/m 0,0 km/h (0 Bft) N-NO 22 8,1 C 12,0 C 0,0 km/h (0 Bft)
18.09.2019 02:02 21,2 C 12,0 C 10,8 C 70 % 77 % 1016,4 hPa 0,0 l/m 0,0 km/h (0 Bft) N-NO 22 8,1 C 12,0 C 0,0 km/h (0 Bft)
18.09.2019 02:01 21,2 C 12,1 C 11,0 C 70 % 77 % 1016,4 hPa 0,0 l/m 0,0 km/h (0 Bft) N-NO 22 8,2 C 12,1 C 0,0 km/h (0 Bft)
18.09.2019 02:00 21,2 C 12,1 C 11,0 C 70 % 77 % 1016,4 hPa 0,0 l/m 0,0 km/h (0 Bft) N-NO 22 8,2 C 12,1 C 0,0 km/h (0 Bft)
18.09.2019 01:59 21,2 C 12,2 C 11,2 C 70 % 77 % 1016,4 hPa 0,0 l/m 0,0 km/h (0 Bft) N-NO 22 8,3 C 12,2 C 0,0 km/h (0 Bft)
18.09.2019 01:58 21,2 C 12,2 C 11,2 C 70 % 77 % 1016,4 hPa 0,0 l/m 0,0 km/h (0 Bft) N-NO 22 8,3 C 12,2 C 0,0 km/h (0 Bft)
18.09.2019 01:57 21,2 C 12,3 C 11,2 C 70 % 77 % 1016,4 hPa 0,0 l/m 0,0 km/h (0 Bft) N-NO 22 8,4 C 12,3 C 0,0 km/h (0 Bft)
18.09.2019 01:56 21,2 C 12,3 C 11,2 C 70 % 77 % 1016,4 hPa 0,0 l/m 0,0 km/h (0 Bft) N-NO 22 8,4 C 12,3 C 0,0 km/h (0 Bft)
18.09.2019 01:55 21,2 C 12,5 C 11,4 C 70 % 77 % 1016,4 hPa 0,0 l/m 0,0 km/h (0 Bft) N-NO 22 8,6 C 12,5 C 0,0 km/h (0 Bft)
18.09.2019 01:54 21,2 C 12,5 C 11,4 C 70 % 77 % 1016,4 hPa 0,0 l/m 0,0 km/h (0 Bft) N-NO 22 8,6 C 12,5 C 0,0 km/h (0 Bft)
18.09.2019 01:53 21,2 C 12,5 C 11,4 C 70 % 77 % 1016,4 hPa 0,0 l/m 0,0 km/h (0 Bft) N-NO 22 8,6 C 12,5 C 0,0 km/h (0 Bft)
18.09.2019 01:52 21,2 C 12,5 C 11,4 C 70 % 77 % 1016,4 hPa 0,0 l/m 0,0 km/h (0 Bft) N-NO 22 8,6 C 12,5 C 0,0 km/h (0 Bft)
18.09.2019 01:51 21,2 C 12,6 C 11,4 C 70 % 77 % 1016,4 hPa 0,0 l/m 0,0 km/h (0 Bft) N-NO 22 8,7 C 12,6 C 0,0 km/h (0 Bft)
18.09.2019 01:50 21,2 C 12,6 C 11,4 C 70 % 77 % 1016,4 hPa 0,0 l/m 0,0 km/h (0 Bft) N-NO 22 8,7 C 12,6 C 0,0 km/h (0 Bft)
18.09.2019 01:49 21,2 C 12,7 C 11,5 C 70 % 77 % 1016,4 hPa 0,0 l/m 0,0 km/h (0 Bft) N-NO 22 8,8 C 12,7 C 0,0 km/h (0 Bft)
18.09.2019 01:48 21,2 C 12,7 C 11,5 C 70 % 77 % 1016,4 hPa 0,0 l/m 0,0 km/h (0 Bft) N-NO 22 8,8 C 12,7 C 0,0 km/h (0 Bft)
18.09.2019 01:47 21,2 C 12,7 C 11,5 C 69 % 77 % 1016,4 hPa 0,0 l/m 0,0 km/h (0 Bft) N-NO 22 8,8 C 12,7 C 0,0 km/h (0 Bft)
18.09.2019 01:46 21,2 C 12,7 C 11,5 C 69 % 77 % 1016,4 hPa 0,0 l/m 0,0 km/h (0 Bft) N-NO 22 8,8 C 12,7 C 0,0 km/h (0 Bft)
18.09.2019 01:45 21,2 C 12,7 C 11,5 C 69 % 77 % 1016,2 hPa 0,0 l/m 0,0 km/h (0 Bft) N-NO 22 8,8 C 12,7 C 0,0 km/h (0 Bft)
18.09.2019 01:44 21,2 C 12,7 C 11,5 C 69 % 77 % 1016,2 hPa 0,0 l/m 0,0 km/h (0 Bft) N-NO 22 8,8 C 12,7 C 0,0 km/h (0 Bft)
18.09.2019 01:43 21,2 C 12,8 C 11,6 C 69 % 77 % 1016,2 hPa 0,0 l/m 0,0 km/h (0 Bft) N-NO 22 8,9 C 12,8 C 0,0 km/h (0 Bft)
18.09.2019 01:42 21,2 C 12,8 C 11,6 C 69 % 77 % 1016,2 hPa 0,0 l/m 0,0 km/h (0 Bft) N-NO 22 8,9 C 12,8 C 0,0 km/h (0 Bft)
18.09.2019 01:41 21,2 C 12,8 C 11,8 C 69 % 77 % 1016,2 hPa 0,0 l/m 0,0 km/h (0 Bft) N-NO 22 8,9 C 12,8 C 0,0 km/h (0 Bft)
18.09.2019 01:40 21,2 C 12,8 C 11,8 C 69 % 77 % 1016,2 hPa 0,0 l/m 0,0 km/h (0 Bft) N-NO 22 8,9 C 12,8 C 0,0 km/h (0 Bft)
18.09.2019 01:39 21,2 C 12,8 C 11,8 C 69 % 77 % 1016,2 hPa 0,0 l/m 0,0 km/h (0 Bft) N-NO 22 8,9 C 12,8 C 0,0 km/h (0 Bft)
18.09.2019 01:38 21,2 C 12,8 C 11,8 C 69 % 77 % 1016,2 hPa 0,0 l/m 0,0 km/h (0 Bft) N-NO 22 8,9 C 12,8 C 0,0 km/h (0 Bft)
18.09.2019 01:37 21,2 C 12,8 C 11,8 C 69 % 77 % 1016,2 hPa 0,0 l/m 0,0 km/h (0 Bft) N-NO 22 8,9 C 12,8 C 0,0 km/h (0 Bft)
18.09.2019 01:36 21,2 C 12,8 C 11,8 C 69 % 77 % 1016,2 hPa 0,0 l/m 0,0 km/h (0 Bft) N-NO 22 8,9 C 12,8 C 0,0 km/h (0 Bft)
18.09.2019 01:35 21,2 C 12,8 C 11,6 C 69 % 77 % 1016,2 hPa 0,0 l/m 0,0 km/h (0 Bft) N-NO 22 8,9 C 12,8 C 0,0 km/h (0 Bft)
18.09.2019 01:34 21,2 C 12,8 C 11,6 C 69 % 77 % 1016,2 hPa 0,0 l/m 0,0 km/h (0 Bft) N-NO 22 8,9 C 12,8 C 0,0 km/h (0 Bft)
18.09.2019 01:33 21,2 C 12,8 C 11,6 C 69 % 77 % 1016,2 hPa 0,0 l/m 0,0 km/h (0 Bft) N-NO 22 8,9 C 12,8 C 0,0 km/h (0 Bft)
18.09.2019 01:32 21,2 C 12,8 C 11,6 C 69 % 77 % 1016,2 hPa 0,0 l/m 0,0 km/h (0 Bft) N-NO 22 8,9 C 12,8 C 0,0 km/h (0 Bft)
18.09.2019 01:31 21,2 C 12,8 C 11,6 C 69 % 77 % 1016,2 hPa 0,0 l/m 0,0 km/h (0 Bft) N-NO 22 8,9 C 12,8 C 0,0 km/h (0 Bft)
18.09.2019 01:30 21,2 C 12,8 C 11,6 C 69 % 77 % 1016,2 hPa 0,0 l/m 0,0 km/h (0 Bft) N-NO 22 8,9 C 12,8 C 0,0 km/h (0 Bft)
18.09.2019 01:29 21,2 C 12,8 C 11,7 C 69 % 77 % 1016,2 hPa 0,0 l/m 0,0 km/h (0 Bft) N-NO 22 8,9 C 12,8 C 0,0 km/h (0 Bft)
18.09.2019 01:28 21,2 C 12,8 C 11,7 C 69 % 77 % 1016,2 hPa 0,0 l/m 0,0 km/h (0 Bft) N-NO 22 8,9 C 12,8 C 0,0 km/h (0 Bft)
18.09.2019 01:27 21,2 C 12,8 C 11,8 C 69 % 77 % 1016,2 hPa 0,0 l/m 0,0 km/h (0 Bft) N-NO 22 8,9 C 12,8 C 0,0 km/h (0 Bft)
18.09.2019 01:26 21,2 C 12,8 C 11,8 C 69 % 77 % 1016,2 hPa 0,0 l/m 0,0 km/h (0 Bft) N-NO 22 8,9 C 12,8 C 0,0 km/h (0 Bft)
18.09.2019 01:25 21,2 C 12,8 C 11,8 C 69 % 77 % 1015,9 hPa 0,0 l/m 0,0 km/h (0 Bft) N-NO 22 8,9 C 12,8 C 0,0 km/h (0 Bft)
18.09.2019 01:24 21,2 C 12,8 C 11,8 C 69 % 77 % 1015,9 hPa 0,0 l/m 0,0 km/h (0 Bft) N-NO 22 8,9 C 12,8 C 0,0 km/h (0 Bft)
18.09.2019 01:23 21,2 C 12,8 C 11,7 C 69 % 77 % 1015,9 hPa 0,0 l/m 0,0 km/h (0 Bft) N-NO 22 8,9 C 12,8 C 0,0 km/h (0 Bft)
18.09.2019 01:22 21,2 C 12,8 C 11,7 C 69 % 77 % 1015,9 hPa 0,0 l/m 0,0 km/h (0 Bft) N-NO 22 8,9 C 12,8 C 0,0 km/h (0 Bft)
18.09.2019 01:21 21,2 C 12,9 C 11,6 C 69 % 77 % 1015,9 hPa 0,0 l/m 0,0 km/h (0 Bft) N-NO 22 9,0 C 12,9 C 0,0 km/h (0 Bft)
18.09.2019 01:20 21,2 C 12,9 C 11,6 C 69 % 77 % 1015,9 hPa 0,0 l/m 0,0 km/h (0 Bft) N-NO 22 9,0 C 12,9 C 0,0 km/h (0 Bft)
18.09.2019 01:19 21,2 C 13,0 C 11,8 C 68 % 76 % 1015,9 hPa 0,0 l/m 0,0 km/h (0 Bft) N-NO 22 8,9 C 13,0 C 0,0 km/h (0 Bft)
18.09.2019 01:18 21,2 C 13,0 C 11,8 C 68 % 76 % 1015,9 hPa 0,0 l/m 0,0 km/h (0 Bft) N-NO 22 8,9 C 13,0 C 0,0 km/h (0 Bft)
18.09.2019 01:17 21,2 C 13,0 C 11,9 C 68 % 77 % 1015,9 hPa 0,0 l/m 0,0 km/h (0 Bft) N-NO 22 9,1 C 13,0 C 0,0 km/h (0 Bft)
18.09.2019 01:16 21,2 C 13,0 C 11,9 C 68 % 77 % 1015,9 hPa 0,0 l/m 0,0 km/h (0 Bft) N-NO 22 9,1 C 13,0 C 0,0 km/h (0 Bft)
18.09.2019 01:15 21,2 C 13,0 C 11,9 C 68 % 77 % 1015,9 hPa 0,0 l/m 0,0 km/h (0 Bft) N-NO 22 9,1 C 13,0 C 0,0 km/h (0 Bft)
18.09.2019 01:14 21,2 C 13,0 C 11,9 C 68 % 77 % 1015,9 hPa 0,0 l/m 0,0 km/h (0 Bft) N-NO 22 9,1 C 13,0 C 0,0 km/h (0 Bft)
18.09.2019 01:13 21,2 C 12,9 C 11,9 C 68 % 78 % 1015,9 hPa 0,0 l/m 0,0 km/h (0 Bft) N-NO 22 9,2 C 12,9 C 0,0 km/h (0 Bft)
18.09.2019 01:12 21,2 C 12,9 C 11,9 C 68 % 78 % 1015,9 hPa 0,0 l/m 0,0 km/h (0 Bft) N-NO 22 9,2 C 12,9 C 0,0 km/h (0 Bft)
18.09.2019 01:11 21,2 C 13,0 C 11,8 C 68 % 77 % 1015,9 hPa 0,0 l/m 0,0 km/h (0 Bft) N-NO 22 9,1 C 13,0 C 0,0 km/h (0 Bft)
18.09.2019 01:10 21,2 C 13,0 C 11,8 C 68 % 77 % 1015,9 hPa 0,0 l/m 0,0 km/h (0 Bft) N-NO 22 9,1 C 13,0 C 0,0 km/h (0 Bft)
18.09.2019 01:09 21,2 C 13,0 C 11,9 C 68 % 77 % 1015,9 hPa 0,0 l/m 0,0 km/h (0 Bft) N-NO 22 9,1 C 13,0 C 0,0 km/h (0 Bft)
18.09.2019 01:08 21,2 C 13,0 C 11,9 C 68 % 77 % 1015,9 hPa 0,0 l/m 0,0 km/h (0 Bft) N-NO 22 9,1 C 13,0 C 0,0 km/h (0 Bft)
18.09.2019 01:07 21,2 C 13,1 C 12,0 C 68 % 77 % 1015,9 hPa 0,0 l/m 0,0 km/h (0 Bft) N-NO 22 9,2 C 13,1 C 0,0 km/h (0 Bft)
18.09.2019 01:06 21,2 C 13,1 C 12,0 C 68 % 77 % 1015,9 hPa 0,0 l/m 0,0 km/h (0 Bft) N-NO 22 9,2 C 13,1 C 0,0 km/h (0 Bft)
18.09.2019 01:05 21,2 C 13,1 C 12,0 C 68 % 77 % 1015,7 hPa 0,0 l/m 0,0 km/h (0 Bft) N-NO 22 9,2 C 13,1 C 0,0 km/h (0 Bft)
18.09.2019 01:04 21,2 C 13,1 C 12,0 C 68 % 77 % 1015,7 hPa 0,0 l/m 0,0 km/h (0 Bft) N-NO 22 9,2 C 13,1 C 0,0 km/h (0 Bft)
18.09.2019 01:03 21,2 C 13,1 C 12,1 C 68 % 77 % 1015,7 hPa 0,0 l/m 0,0 km/h (0 Bft) N-NO 22 9,2 C 13,1 C 0,0 km/h (0 Bft)
18.09.2019 01:02 21,2 C 13,1 C 12,1 C 68 % 77 % 1015,7 hPa 0,0 l/m 0,0 km/h (0 Bft) N-NO 22 9,2 C 13,1 C 0,0 km/h (0 Bft)
18.09.2019 01:01 21,2 C 13,0 C 12,0 C 68 % 77 % 1015,7 hPa 0,0 l/m 0,0 km/h (0 Bft) N-NO 22 9,1 C 13,0 C 0,0 km/h (0 Bft)
18.09.2019 01:00 21,2 C 13,0 C 12,0 C 68 % 77 % 1015,7 hPa 0,0 l/m 0,0 km/h (0 Bft) N-NO 22 9,1 C 13,0 C 0,0 km/h (0 Bft)
18.09.2019 00:59 21,2 C 13,0 C 11,9 C 68 % 77 % 1015,7 hPa 0,0 l/m 0,0 km/h (0 Bft) N-NO 22 9,1 C 13,0 C 0,0 km/h (0 Bft)
18.09.2019 00:58 21,2 C 13,0 C 11,9 C 68 % 77 % 1015,7 hPa 0,0 l/m 0,0 km/h (0 Bft) N-NO 22 9,1 C 13,0 C 0,0 km/h (0 Bft)
18.09.2019 00:57 21,2 C 13,0 C 11,9 C 68 % 77 % 1015,7 hPa 0,0 l/m 0,0 km/h (0 Bft) N-NO 22 9,1 C 13,0 C 0,0 km/h (0 Bft)
18.09.2019 00:56 21,2 C 13,0 C 11,9 C 68 % 77 % 1015,7 hPa 0,0 l/m 0,0 km/h (0 Bft) N-NO 22 9,1 C 13,0 C 0,0 km/h (0 Bft)
18.09.2019 00:55 21,2 C 13,1 C 12,0 C 68 % 77 % 1015,7 hPa 0,0 l/m 0,0 km/h (0 Bft) N-NO 22 9,2 C 13,1 C 0,0 km/h (0 Bft)
18.09.2019 00:54 21,2 C 13,1 C 12,0 C 68 % 77 % 1015,7 hPa 0,0 l/m 0,0 km/h (0 Bft) N-NO 22 9,2 C 13,1 C 0,0 km/h (0 Bft)
18.09.2019 00:53 21,2 C 13,1 C 12,0 C 67 % 77 % 1015,7 hPa 0,0 l/m 0,0 km/h (0 Bft) N-NO 22 9,2 C 13,1 C 0,0 km/h (0 Bft)
18.09.2019 00:52 21,2 C 13,1 C 12,0 C 67 % 77 % 1015,7 hPa 0,0 l/m 0,0 km/h (0 Bft) N-NO 22 9,2 C 13,1 C 0,0 km/h (0 Bft)
18.09.2019 00:51 21,2 C 13,1 C 12,0 C 67 % 77 % 1015,7 hPa 0,0 l/m 0,0 km/h (0 Bft) N-NO 22 9,2 C 13,1 C 0,0 km/h (0 Bft)
18.09.2019 00:50 21,2 C 13,1 C 12,0 C 67 % 77 % 1015,7 hPa 0,0 l/m 0,0 km/h (0 Bft) N-NO 22 9,2 C 13,1 C 0,0 km/h (0 Bft)
18.09.2019 00:49 21,2 C 13,1 C 12,0 C 67 % 77 % 1015,7 hPa 0,0 l/m 0,0 km/h (0 Bft) N-NO 22 9,2 C 13,1 C 0,0 km/h (0 Bft)
18.09.2019 00:48 21,2 C 13,1 C 12,0 C 67 % 77 % 1015,7 hPa 0,0 l/m 0,0 km/h (0 Bft) N-NO 22 9,2 C 13,1 C 0,0 km/h (0 Bft)
18.09.2019 00:47 21,2 C 13,2 C 12,2 C 67 % 78 % 1015,7 hPa 0,0 l/m 0,0 km/h (0 Bft) N-NO 22 9,4 C 13,2 C 0,0 km/h (0 Bft)
18.09.2019 00:46 21,2 C 13,2 C 12,2 C 67 % 78 % 1015,7 hPa 0,0 l/m 0,0 km/h (0 Bft) N-NO 22 9,4 C 13,2 C 0,0 km/h (0 Bft)
18.09.2019 00:45 21,2 C 13,2 C 12,2 C 67 % 78 % 1015,4 hPa 0,0 l/m 0,0 km/h (0 Bft) N-NO 22 9,4 C 13,2 C 0,0 km/h (0 Bft)
18.09.2019 00:44 21,2 C 13,2 C 12,2 C 67 % 78 % 1015,4 hPa 0,0 l/m 0,0 km/h (0 Bft) N-NO 22 9,4 C 13,2 C 0,0 km/h (0 Bft)
18.09.2019 00:43 21,2 C 13,2 C 12,2 C 67 % 78 % 1015,4 hPa 0,0 l/m 0,0 km/h (0 Bft) N-NO 22 9,4 C 13,2 C 0,0 km/h (0 Bft)
18.09.2019 00:42 21,2 C 13,2 C 12,2 C 67 % 78 % 1015,4 hPa 0,0 l/m 0,0 km/h (0 Bft) N-NO 22 9,4 C 13,2 C 0,0 km/h (0 Bft)
18.09.2019 00:41 21,2 C 13,2 C 12,2 C 67 % 78 % 1015,4 hPa 0,0 l/m 0,0 km/h (0 Bft) N-NO 22 9,4 C 13,2 C 0,0 km/h (0 Bft)
18.09.2019 00:40 21,2 C 13,2 C 12,2 C 67 % 78 % 1015,4 hPa 0,0 l/m 0,0 km/h (0 Bft) N-NO 22 9,4 C 13,2 C 0,0 km/h (0 Bft)
18.09.2019 00:39 21,2 C 13,2 C 12,0 C 67 % 78 % 1015,4 hPa 0,0 l/m 0,0 km/h (0 Bft) N-NO 22 9,4 C 13,2 C 0,0 km/h (0 Bft)
18.09.2019 00:38 21,2 C 13,2 C 12,0 C 67 % 78 % 1015,4 hPa 0,0 l/m 0,0 km/h (0 Bft) N-NO 22 9,4 C 13,2 C 0,0 km/h (0 Bft)
18.09.2019 00:37 21,2 C 13,2 C 12,2 C 67 % 78 % 1015,4 hPa 0,0 l/m 0,0 km/h (0 Bft) N-NO 22 9,4 C 13,2 C 0,0 km/h (0 Bft)
18.09.2019 00:36 21,2 C 13,2 C 12,2 C 67 % 78 % 1015,4 hPa 0,0 l/m 0,0 km/h (0 Bft) N-NO 22 9,4 C 13,2 C 0,0 km/h (0 Bft)
18.09.2019 00:35 21,2 C 13,2 C 12,2 C 67 % 78 % 1015,4 hPa 0,0 l/m 0,0 km/h (0 Bft) N-NO 22 9,4 C 13,2 C 0,0 km/h (0 Bft)
18.09.2019 00:34 21,2 C 13,2 C 12,2 C 67 % 78 % 1015,4 hPa 0,0 l/m 0,0 km/h (0 Bft) N-NO 22 9,4 C 13,2 C 0,0 km/h (0 Bft)
18.09.2019 00:33 21,2 C 13,3 C 12,0 C 67 % 78 % 1015,4 hPa 0,0 l/m 0,0 km/h (0 Bft) N-NO 22 9,5 C 13,3 C 0,0 km/h (0 Bft)
18.09.2019 00:32 21,2 C 13,3 C 12,0 C 67 % 78 % 1015,4 hPa 0,0 l/m 0,0 km/h (0 Bft) N-NO 22 9,5 C 13,3 C 0,0 km/h (0 Bft)
18.09.2019 00:31 21,2 C 13,3 C 12,1 C 67 % 78 % 1015,4 hPa 0,0 l/m 0,0 km/h (0 Bft) N-NO 22 9,5 C 13,3 C 0,0 km/h (0 Bft)
18.09.2019 00:30 21,2 C 13,3 C 12,1 C 67 % 78 % 1015,4 hPa 0,0 l/m 0,0 km/h (0 Bft) N-NO 22 9,5 C 13,3 C 0,0 km/h (0 Bft)
18.09.2019 00:29 21,2 C 13,3 C 12,2 C 67 % 78 % 1015,4 hPa 0,0 l/m 0,0 km/h (0 Bft) N-NO 22 9,5 C 13,3 C 0,0 km/h (0 Bft)
18.09.2019 00:28 21,2 C 13,3 C 12,2 C 67 % 78 % 1015,4 hPa 0,0 l/m 0,0 km/h (0 Bft) N-NO 22 9,5 C 13,3 C 0,0 km/h (0 Bft)
18.09.2019 00:27 21,2 C 13,1 C 12,1 C 67 % 78 % 1015,4 hPa 0,0 l/m 0,0 km/h (0 Bft) N-NO 22 9,4 C 13,1 C 0,0 km/h (0 Bft)
18.09.2019 00:26 21,2 C 13,1 C 12,1 C 67 % 78 % 1015,4 hPa 0,0 l/m 0,0 km/h (0 Bft) N-NO 22 9,4 C 13,1 C 0,0 km/h (0 Bft)
18.09.2019 00:25 21,2 C 13,1 C 12,1 C 67 % 78 % 1015,2 hPa 0,0 l/m 0,0 km/h (0 Bft) N-NO 22 9,4 C 13,1 C 0,0 km/h (0 Bft)
18.09.2019 00:24 21,2 C 13,1 C 12,1 C 67 % 78 % 1015,2 hPa 0,0 l/m 0,0 km/h (0 Bft) N-NO 22 9,4 C 13,1 C 0,0 km/h (0 Bft)
18.09.2019 00:23 21,2 C 13,1 C 12,1 C 67 % 78 % 1015,2 hPa 0,0 l/m 0,0 km/h (0 Bft) N-NO 22 9,4 C 13,1 C 0,0 km/h (0 Bft)
18.09.2019 00:22 21,2 C 13,1 C 12,1 C 67 % 78 % 1015,2 hPa 0,0 l/m 0,0 km/h (0 Bft) N-NO 22 9,4 C 13,1 C 0,0 km/h (0 Bft)
18.09.2019 00:21 21,2 C 13,1 C 12,1 C 67 % 78 % 1015,2 hPa 0,0 l/m 0,0 km/h (0 Bft) N-NO 22 9,4 C 13,1 C 0,0 km/h (0 Bft)
18.09.2019 00:20 21,2 C 13,1 C 12,1 C 67 % 78 % 1015,2 hPa 0,0 l/m 0,0 km/h (0 Bft) N-NO 22 9,4 C 13,1 C 0,0 km/h (0 Bft)
18.09.2019 00:19 21,2 C 13,1 C 12,1 C 67 % 78 % 1015,2 hPa 0,0 l/m 0,0 km/h (0 Bft) N-NO 22 9,4 C 13,1 C 0,0 km/h (0 Bft)
18.09.2019 00:18 21,2 C 13,1 C 12,1 C 67 % 78 % 1015,2 hPa 0,0 l/m 0,0 km/h (0 Bft) N-NO 22 9,4 C 13,1 C 0,0 km/h (0 Bft)
18.09.2019 00:17 21,2 C 13,2 C 12,3 C 67 % 78 % 1015,2 hPa 0,0 l/m 0,0 km/h (0 Bft) N-NO 22 9,4 C 13,2 C 0,0 km/h (0 Bft)
18.09.2019 00:16 21,2 C 13,2 C 12,3 C 67 % 78 % 1015,2 hPa 0,0 l/m 0,0 km/h (0 Bft) N-NO 22 9,4 C 13,2 C 0,0 km/h (0 Bft)
18.09.2019 00:15 21,2 C 13,2 C 12,2 C 67 % 78 % 1015,2 hPa 0,0 l/m 0,0 km/h (0 Bft) N-NO 22 9,4 C 13,2 C 0,0 km/h (0 Bft)
18.09.2019 00:14 21,2 C 13,2 C 12,2 C 67 % 78 % 1015,2 hPa 0,0 l/m 0,0 km/h (0 Bft) N-NO 22 9,4 C 13,2 C 0,0 km/h (0 Bft)
18.09.2019 00:13 21,2 C 13,1 C 12,0 C 67 % 79 % 1015,2 hPa 0,0 l/m 0,0 km/h (0 Bft) N-NO 22 9,5 C 13,1 C 0,0 km/h (0 Bft)
18.09.2019 00:12 21,2 C 13,1 C 12,0 C 67 % 79 % 1015,2 hPa 0,0 l/m 0,0 km/h (0 Bft) N-NO 22 9,5 C 13,1 C 0,0 km/h (0 Bft)
18.09.2019 00:11 21,2 C 13,1 C 12,0 C 67 % 79 % 1015,2 hPa 0,0 l/m 0,0 km/h (0 Bft) N-NO 22 9,5 C 13,1 C 0,0 km/h (0 Bft)
18.09.2019 00:10 21,2 C 13,1 C 12,0 C 67 % 79 % 1015,2 hPa 0,0 l/m 0,0 km/h (0 Bft) N-NO 22 9,5 C 13,1 C 0,0 km/h (0 Bft)
18.09.2019 00:09 21,2 C 13,1 C 12,0 C 67 % 79 % 1015,2 hPa 0,0 l/m 0,0 km/h (0 Bft) N-NO 22 9,5 C 13,1 C 0,0 km/h (0 Bft)
18.09.2019 00:08 21,2 C 13,1 C 12,0 C 67 % 79 % 1015,2 hPa 0,0 l/m 0,0 km/h (0 Bft) N-NO 22 9,5 C 13,1 C 0,0 km/h (0 Bft)
18.09.2019 00:07 21,2 C 13,1 C 12,1 C 67 % 79 % 1015,2 hPa 0,0 l/m 0,0 km/h (0 Bft) N-NO 22 9,5 C 13,1 C 0,0 km/h (0 Bft)
18.09.2019 00:06 21,2 C 13,1 C 12,1 C 67 % 79 % 1015,2 hPa 0,0 l/m 0,0 km/h (0 Bft) N-NO 22 9,5 C 13,1 C 0,0 km/h (0 Bft)
18.09.2019 00:05 21,2 C 13,1 C 12,1 C 67 % 79 % 1015,1 hPa 0,0 l/m 0,0 km/h (0 Bft) N-NO 22 9,5 C 13,1 C 0,0 km/h (0 Bft)
18.09.2019 00:04 21,2 C 13,1 C 12,1 C 67 % 79 % 1015,1 hPa 0,0 l/m 0,0 km/h (0 Bft) N-NO 22 9,5 C 13,1 C 0,0 km/h (0 Bft)
18.09.2019 00:03 21,2 C 13,1 C 12,2 C 67 % 79 % 1015,1 hPa 0,0 l/m 0,0 km/h (0 Bft) N-NO 22 9,5 C 13,1 C 0,0 km/h (0 Bft)
18.09.2019 00:02 21,2 C 13,1 C 12,2 C 67 % 79 % 1015,1 hPa 0,0 l/m 0,0 km/h (0 Bft) N-NO 22 9,5 C 13,1 C 0,0 km/h (0 Bft)
18.09.2019 00:01 21,2 C 13,1 C 12,2 C 67 % 79 % 1015,1 hPa 0,0 l/m 0,0 km/h (0 Bft) N-NO 22 9,5 C 13,1 C 0,0 km/h (0 Bft)
18.09.2019 00:00 21,2 C 13,1 C 12,2 C 67 % 79 % 1015,1 hPa 0,0 l/m 0,0 km/h (0 Bft) N-NO 22 9,5 C 13,1 C 0,0 km/h (0 Bft)
_ Min-Zeit 11:24 06:24 06:54 18:02 15:14 00:00 - 00:00 - - 18:08 06:24 00:00
Minimum _ 19,1 C 6,7 C 5,9 C 41 % 34 % 1015,1 hPa - 0,0 km/h (0 Bft) - - 0,5 C 6,7 C 0,0 km/h (0 Bft)
_ Max-Zeit 00:00 16:12 16:16 01:48 07:54 06:46 00:00 00:00 - - 00:28 16:12 00:00
Maximum _ 21,2 C 17,9 C 24,2 C 70 % 83 % 1018,8 hPa 0,0 l/m 0,0 km/h
N-NO (0 Bft)
- - 9,5 C 17,9 C 0,0 km/h
N-NO (0 Bft)
Durchschnitt _ 20,2 C 12,5 C 12,7 C 58 % 61 % 1017,4 hPa #0,0 l/m 0,0 km/h (0 Bft) - - - 4,5 C 12,5 C 0,0 km/h (0 Bft)